     2              OBSERVATION DATA    GPS                 RINEX VERSION / TYPE
ASHTORIN IGPP 01 - MAY - 98 11:38                           PGM / RUN BY / DATE
                                                            COMMENT
Original Marker Name: 109 FMK 1974                          COMMENT
Campaign Name: Anza Transect 1998                           COMMENT
4-Character Station Name: G109                              COMMENT
6-Character Antenna Code: DMRCHT                            COMMENT
Vertical Measurement Point: BCR                             COMMENT
Vertical Offset to Rinex Ref. Point: 0.0349                 COMMENT
Radial Measurement Point: ECF                               COMMENT
Radial Offset to Rinex Ref. Point: 0.1896                   COMMENT
Antenna Height from Field Measurement: 0.8610 m             COMMENT
Additional Antenna Identification Info.:                    COMMENT
Turborogue and Ashtech Choke Ring                           COMMENT
Original XYZ: 0.0000 0.0000 0.0000                          COMMENT
New XYZ position is based on association with SCEC monument COMMENT
E1D0K4C1+0011. Position of that monument is believed to be  COMMENT
valid to within 1 m horizontally; vertical accuracy         COMMENT
should be no worse than 3-times this value.                 COMMENT
                                                            COMMENT
Revised Rinex header created by UCSD GPS archive for        COMMENT
GSAC on 12-Apr-1999 (1999:102) 08:01:16 GMT                 COMMENT
For assistance contact dagnew@ucsd.edu or hjohnson@ucsd.edu COMMENT
                                                            COMMENT
109 FMK 1974                                                MARKER NAME
G109                                                        MARKER NUMBER
Elliott/Anderson SCRIPPS INSTITUTION OF OCEANOGRAPHY        OBSERVER / AGENCY
319 ASHTECH Z12-XII3 1F501D0                                REC # / TYPE / VERS
409 DORNE-MARGOL. TYPE T                                    ANT # / TYPE
 -2385616.0000 -4756928.0000  3506251.0000                  APPROX POSITION XYZ
        0.8050        0.0000        0.0000                  ANTENNA: DELTA H/E/N
     1     1     0                                          WAVELENGTH FACT L1/2
     7    L1    L2    C1    P1    P2    D1    D2            # / TYPES OF OBSERV
    30                                                      INTERVAL
  1998     5     1    18    25   30.000000                  TIME OF FIRST OBS
  1998     5     1    23    59   30.000000                  TIME OF LAST OBS
     0                                                      # OF SATELLITES
                                                            END OF HEADER
 98  5  1 18 25 30.0000000  0  5  2  4  5  7 24                      0.000000000
    180687.171 9    126138.11452         0.000           0.0004          0.0005
        -0.000          -0.000
    -82500.030 9    -57220.18752         0.000           0.0004          0.0005
        -0.000          -0.000
   -178808.38619   -123989.43545         0.000           0.0005   23739824.1144
        -0.000          -0.000
    182875.812 9    131331.37448  21979322.231    21979321.5924   21979328.6984
        -0.000          -0.000
   -251098.493 9   -177155.20752         0.000           0.0004          0.0005
        -0.000          -0.000
 98  5  1 18 26  0.0000000  0  5  2  4  5  7 24                      0.000454168
    246442.994 9     21045.45746         0.000           0.0004   22857844.7964
        -0.000          -0.000
   -107483.096 9    -16124.02752         0.000           0.0004          0.0005
        -0.000          -0.000
   -255376.060 9   -183652.46746  23725246.469    23725245.8044   23725253.8574
        -0.000          -0.000
    251163.875 9    184542.82948  21992316.859    21992316.3464   21992323.4934
        -0.000          -0.000
   -334861.41319    -39829.73447         0.000           0.0005   21986356.4834
        -0.000          -0.000
 98  5  1 18 26 30.0000000  0  5  2  4  5  7 24                      0.000000179
   -409174.990 9   -489825.76447  22733076.898    22733076.4984   22733085.1054
        -0.000          -0.000
   -853582.471 9   -598004.85852         0.000           0.0004          0.0005
        -0.000          -0.000
  -1053617.719 9   -805658.87346  23573346.344    23573345.3524   23573353.4354
        -0.000          -0.000
   -402113.287 9   -324504.34048  21868002.492    21868001.8874   21868009.0384
        -0.000          -0.000
  -1139968.827 9   -667186.09647  21833141.285    21833141.1814   21833149.7204
        -0.000          -0.000
 98  5  1 18 27  0.0000000  0  6  2  4  5  7  9 24                   0.000000184
   -349298.357 9   -443168.70447  22744471.212    22744470.8804   22744479.2774
        -0.000          -0.000
   -883887.444 9   -622139.10652         0.000           0.0004          0.0005
        -0.000          -0.000
  -1136649.107 9   -870358.56146  23557545.632    23557544.9514   23557552.7994
        -0.000          -0.000
   -340081.061 9   -276167.55848  21879806.872    21879806.2654   21879813.4554
        -0.000          -0.000
   -759079.70819   -587677.78548         0.000           0.0005   21445454.4804
        -0.000          -0.000
  -1229520.932 9   -736966.88247  21816100.205    21816100.0184   21816108.5844
        -0.000          -0.000
 98  5  1 18 27 30.0000000  0  6  2  4  5  7  9 24                   0.000000178
   -289154.447 9   -396303.37147  22755916.251    22755915.8474   22755924.2684
        -0.000          -0.000
   -913597.495 9   -586349.38952         0.000           0.0004          0.0005
        -0.000          -0.000
  -1219692.215 9   -935067.36546  23541742.845    23541742.3614   23541750.2274
        -0.000          -0.000
   -277962.953 9   -227763.86248  21891627.524    21891626.9424   21891634.2524
        -0.000          -0.000
   -794602.158 9   -615357.59648  21438688.262    21438688.1754   21438694.7364
        -0.000          -0.000
  -1318736.322 9   -806485.31147  21799123.102    21799122.9414   21799131.4434
        -0.000          -0.000
 98  5  1 18 28  0.0000000  0  6  2  4  5  7  9 24                   0.000000155
   -228731.152 9   -349220.33047  22767414.355    22767413.9384   22767422.4764
        -0.000          -0.000
   -942660.527 9   -609250.42252         0.000           0.0004          0.0005
        -0.000          -0.000
  -1302711.906 9   -999757.95346  23525944.630    23525944.2574   23525952.1474
        -0.000          -0.000
   -215717.427 9   -179260.88048  21903472.500    21903471.9124   21903479.2984
        -0.000          -0.000
   -829565.974 9   -642602.11548  21432034.814    21432034.8114   21432041.3874
        -0.000          -0.000
  -1407577.592 9   -875712.20347  21782217.165    21782217.0054   21782225.5044
        -0.000          -0.000
 98  5  1 18 28 30.0000000  0  6  2  4  5  7  9 24                   0.000000178
   -168034.694 9   -301924.45247  22778964.505    22778964.0314   22778972.6454
        -0.000          -0.000
   -971063.107 9   -631846.62752         0.000           0.0004          0.0005
        -0.000          -0.000
  -1385691.684 9  -1064417.44446  23510154.086    23510153.6894   23510161.6634
        -0.000          -0.000
   -153324.720 9   -130643.20947  21915345.416    21915344.8124   21915352.2704
        -0.000          -0.000
   -863960.103 9   -669402.72848  21425489.579    21425489.8224   21425496.4094
        -0.000          -0.000
  -1496026.170 9   -944633.11547  21765386.012    21765385.7874   21765394.3014
        -0.000          -0.000
 98  5  1 18 29  0.0000000  0  6  2  4  5  7  9 24                   0.000000113
   -107068.575 9   -254418.44347  22790565.996    22790565.5294   22790574.1924
        -0.000          -0.000
   -998823.289 9   -599775.07852         0.000           0.0004          0.0005
        -0.000          -0.000
  -1468621.558 9  -1129038.04846  23494373.134    23494372.6934   23494380.4494
        -0.000          -0.000
    -90780.250 9    -81907.28748  21927247.182    21927246.6434   21927254.1474
        -0.000          -0.000
   -897781.262 9   -695756.86148  21419053.775    21419053.8384   21419060.4794
        -0.000          -0.000
  -1584095.133 9  -1013258.21647  21748627.006    21748626.7794   21748635.2854
        -0.000          -0.000
 98  5  1 18 29 30.0000000  0  6  2  4  5  7  9 24                   0.000000071
    -45816.555 9   -206689.64847  22802221.941    22802221.4804   22802230.1034
        -0.000          -0.000
  -1025959.691 9   -620740.51752         0.000           0.0004          0.0005
        -0.000          -0.000
  -1551486.978 9  -1193608.44746  23478604.586    23478604.0704   23478611.7104
        -0.000          -0.000
    -28087.428 9    -33055.75148  21939177.224    21939176.6544   21939184.2084
        -0.000          -0.000
   -931034.956 9   -721668.81648  21412725.802    21412725.8484   21412732.5044
        -0.000          -0.000
  -1671785.761 9  -1081588.51647  21731939.983    21731939.8214   21731948.2804
        -0.000          -0.000
 98  5  1 18 30  0.0000000  0  6  2  4  5  7  9 24                   0.000000045
     15698.673 9   -158755.75047  22813927.921    22813927.4464   22813936.0964
        -0.000          -0.000
  -1052519.316 9   -640943.94252         0.000           0.0004          0.0005
        -0.000          -0.000
  -1634315.772 9  -1258150.28946  23462842.908    23462842.3624   23462849.9354
        -0.000          -0.000
     34695.444 9     15865.94847  21951124.488    21951123.9134   21951131.3464
        -0.000          -0.000
   -963763.772 9   -747171.78248  21406497.788    21406497.8004   21406504.3984
        -0.000          -0.000
  -1759146.475 9  -1149661.73948  21715315.806    21715315.6304   21715324.0824
        -0.000          -0.000
 98  5  1 18 30 30.0000000  0  6  2  4  5  7  9 24                   0.000000022
     77451.861 9   -110636.45647  22825679.244    22825678.7414   22825687.4724
        -0.000          -0.000
  -1078557.420 9   -614944.46352         0.000           0.0004          0.0005
        -0.000          -0.000
  -1717156.007 9  -1322701.05646  23447078.866    23447078.3054   23447085.9634
        -0.000          -0.000
     97500.271 9     64804.74747  21963075.899    21963075.3094   21963082.6414
        -0.000          -0.000
   -996013.416 9   -772301.36348  21400360.996    21400360.9684   21400367.4294
        -0.000          -0.000
  -1846223.209 9  -1217513.69148  21698745.628    21698745.4714   21698753.8784
        -0.000          -0.000
 98  5  1 18 31  0.0000000  0  6  2  4  5  7  9 24                   0.000000030
    139497.655 9    -62289.15647  22837486.150    22837485.6584   22837494.4684
        -0.000          -0.000
  -1104034.393 9   -635306.76252         0.000           0.0004          0.0005
        -0.000          -0.000
  -1799978.854 9  -1387238.27446  23431318.029    23431317.5374   23431325.1914
        -0.000          -0.000
    160352.329 9    113780.35747  21975036.309    21975035.7194   21975043.0094
        -0.000          -0.000
  -1027756.986 9   -797036.59648  21394320.442    21394320.3514   21394326.8124
        -0.000          -0.000
  -1932985.510 9  -1285120.61448  21682235.293    21682235.1514   21682243.5464
        -0.000          -0.000
 98  5  1 18 31 30.0000000  0  6  2  4  5  7  9 24                   0.000000053
    201821.946 9    -13724.84947  22849346.211    22849345.6774   22849354.4764
        -0.000          -0.000
  -1128951.688 9   -655233.86752         0.000           0.0004          0.0005
        -0.000          -0.000
  -1882812.220 9  -1451783.65946  23415555.250    23415554.7794   23415562.5774
        -0.000          -0.000
    223219.424 9    162767.68047  21986999.563    21986998.8984   21987006.2104
        -0.000          -0.000
  -1059026.079 9   -821402.10848  21388370.006    21388369.9704   21388376.4544
        -0.000          -0.000
  -2019450.346 9  -1352495.74848  21665781.611    21665781.4424   21665789.8324
        -0.000          -0.000
 98  5  1 18 32  0.0000000  0  6  2  4  5  7  9 24                   0.000000086
    264434.400 9     35063.99947  22861260.985    22861260.4984   22861269.2784
        -0.000          -0.000
  -1153275.75919   -630423.72048         0.000           0.0005   20587203.5324
        -0.000          -0.000
  -1965643.217 9  -1516327.22146  23399792.932    23399792.4214   23399800.4534
        -0.000          -0.000
    286128.579 9    211787.79047  21998970.722    21998970.1104   21998977.3984
        -0.000          -0.000
  -1089795.934 9   -845378.60348  21382514.747    21382514.6534   21382521.1444
        -0.000          -0.000
  -2105583.985 9  -1419612.81648  21649390.879    21649390.7194   21649399.1334
        -0.000          -0.000
 98  5  1 18 32 30.0000000  0  6  2  4  5  7  9 24                   0.000000105
    327306.213 9     84054.92747  22873225.249    22873224.7064   22873233.5214
        -0.000          -0.000
  -1177011.870 9   -648919.37248  20582679.955    20582680.1974   20582686.5654
        -0.000          -0.000
  -2048486.562 9  -1580880.39646  23384028.400    23384027.8444   23384036.0024
        -0.000          -0.000
    349100.225 9    260856.58147  22010953.838    22010953.1844   22010960.5674
        -0.000          -0.000
  -1120061.917 9   -868962.48148  21376755.298    21376755.2404   21376761.7484
        -0.000          -0.000
  -2191382.573 9  -1486468.79548  21633063.844    21633063.6924   21633072.2224
        -0.000          -0.000
 98  5  1 18 33  0.0000000  0  6  2  4  5  7  9 24                   0.000000110
    390440.112 9    133250.11647  22885239.371    22885238.8094   22885247.5884
        -0.000          -0.000
  -1200128.982 9   -666932.68349  20578280.960    20578281.1724   20578287.5204
        -0.000          -0.000
  -2131310.150 9  -1645418.19146  23368267.613    23368267.0154   23368275.2534
        -0.000          -0.000
    412176.807 9    310007.13347  22022956.835    22022956.2744   22022963.8004
        -0.000          -0.000
  -1149782.584 9   -892121.43148  21371099.710    21371099.6264   21371106.1734
        -0.000          -0.000
  -2276816.666 9  -1553040.75848  21616806.267    21616806.1074   21616814.6454
        -0.000          -0.000
 98  5  1 18 33 30.0000000  0  6  2  4  5  7  9 24                   0.000000100
    453831.818 9    182646.18547  22897302.365    22897301.8684   22897310.6364
        -0.000          -0.000
  -1222613.644 9   -684453.17249  20574002.279    20574002.4854   20574008.8544
        -0.000          -0.000
  -2214087.524 9  -1709919.97346  23352515.488    23352514.9704   23352523.2584
        -0.000          -0.000
    475379.493 9    359255.96247  22034984.059    22034983.4484   22034990.9594
        -0.000          -0.000
  -1178914.089 9   -914821.29248  21365556.146    21365556.0534   21365562.5764
        -0.000          -0.000
  -2361855.141 9  -1619304.43548  21600623.968    21600623.7494   21600632.3604
        -0.000          -0.000
 98  5  1 18 34  0.0000000  0  6  2  4  5  7  9 24                   0.000000083
    517475.056 9    232238.23147  22909413.262    22909412.7934   22909421.5794
        -0.000          -0.000
  -1244482.498 9   -701493.81949  20569840.746    20569840.9564   20569847.3394
        -0.000          -0.000
  -2296812.658 9  -1774381.03646  23336773.420    23336772.8684   23336781.1684
        -0.000          -0.000
    538710.912 9    408605.08647  22047035.813    22047035.1654   22047042.6254
        -0.000          -0.000
  -1207457.106 9   -937062.59648  21360124.655    21360124.5334   21360131.0274
        -0.000          -0.000
  -2446501.718 9  -1685262.74948  21584516.215    21584516.0114   21584524.5944
        -0.000          -0.000
 98  5  1 18 34 30.0000000  0  6  2  4  5  7  9 24                   0.000000054
    581364.727 9    282022.32247  22921571.101    22921570.6464   22921579.4434
        -0.000          -0.000
  -1265743.871 9   -718061.09849  20565794.775    20565794.9874   20565801.4004
        -0.000          -0.000
  -2379493.201 9  -1838807.35646  23321039.941    23321039.2904   23321047.5334
        -0.000          -0.000
    602154.632 9    458041.72647  22059108.942    22059108.2574   22059115.6454
        -0.000          -0.000
  -1235424.918 9   -958855.68948  21354802.533    21354802.4284   21354808.9314
        -0.000          -0.000
  -2530779.107 9  -1750933.37548  21568478.699    21568478.5234   21568487.1144
        -0.000          -0.000
 98  5  1 18 35  0.0000000  0  6  2  4  5  7  9 24                   0.000000034
    645527.269 9    332019.05247  22933781.005    22933780.4844   22933789.2764
        -0.000          -0.000
  -1286390.898 9   -734149.67049  20561865.749    20561865.9564   20561872.4084
        -0.000          -0.000
  -2462117.328 9  -1903189.71446  23305317.014    23305316.4554   23305324.5414
        -0.000          -0.000
    665706.221 9    507562.40347  22071202.492    22071201.7854   22071209.1044
        -0.000          -0.000
  -1262814.441 9   -980198.16548  21349590.495    21349590.3964   21349596.9054
        -0.000          -0.000
  -2614669.663 9  -1816302.57748  21552514.841    21552514.6554   21552523.2854
        -0.000          -0.000
 98  5  1 18 35 30.0000000  0  6  2  4  5  7  9 24                   0.000000014
    709943.850 9    382213.70646  22946039.064    22946038.5484   22946047.4204
        -0.000          -0.000
  -1306454.854 9   -749783.90249  20558047.681    20558047.9094   20558054.3474
        -0.000          -0.000
  -2544721.615 9  -1967556.61246  23289597.963    23289597.3574   23289605.3484
        -0.000          -0.000
    729319.662 9    557131.30647  22083307.809    22083307.1044   22083314.2664
        -0.000          -0.000
  -1289685.171 9  -1001136.39048  21344477.231    21344477.1264   21344483.5744
        -0.000          -0.000
  -2698202.550 9  -1881393.08248  21536619.012    21536618.8494   21536627.4564
        -0.000          -0.000
 98  5  1 18 36  0.0000000  0  6  2  4  5  7  9 24                   0.000000004
    774644.650 9    432629.82146  22958351.311    22958350.8244   22958359.5654
        -0.000          -0.000
  -1325909.718 9   -764943.51649  20554345.554    20554345.7534   20554352.2254
        -0.000          -0.000
  -2627301.021 9  -2031904.12946  23273883.492    23273882.9764   23273890.8354
        -0.000          -0.000
    793011.198 9    606761.04747  22095427.827    22095427.1544   22095434.3504
        -0.000          -0.000
  -1316039.890 9  -1021672.53048  21339462.111    21339462.0184   21339468.4754
        -0.000          -0.000
  -2781374.149 9  -1946202.06648  21520791.988    21520791.7864   21520800.3614
        -0.000          -0.000
 98  5  1 18 36 30.0000000  0  6  2  4  5  7  9 24                  -0.000000007
    839635.217 9    483271.72946  22970718.631    22970718.0934   22970726.9104
        -0.000          -0.000
  -1344731.445 9   -779609.77949  20550763.853    20550764.0924   20550770.5424
        -0.000          -0.000
  -2709853.265 9  -2096230.49246  23258174.185    23258173.7614   23258181.4654
        -0.000          -0.000
    856793.823 9    656461.76347  22107565.221    22107564.6114   22107571.8194
        -0.000          -0.000
  -1341850.100 9  -1041784.37648  21334550.669    21334550.5384   21334556.9334
        -0.000          -0.000
  -2864154.569 9  -2010706.22948  21505039.342    21505039.2014   21505047.7584
        -0.000          -0.000
 98  5  1 18 37  0.0000000  0  6  2  4  5  7  9 24                  -0.000000035
    904878.466 9    534110.54946  22983133.974    22983133.5084   22983142.3524
        -0.000          -0.000
  -1362966.227 9   -793818.67749  20547293.959    20547294.1844   20547300.5484
        -0.000          -0.000
  -2792409.465 9  -2160559.92246  23242464.174    23242463.7374   23242471.4824
        -0.000          -0.000
    920637.115 9    706209.76947  22119714.187    22119713.6314   22119720.8594
        -0.000          -0.000
  -1367134.190 9  -1061486.26148  21329739.254    21329739.1494   21329745.4604
        -0.000          -0.000
  -2946569.050 9  -2074925.24848  21489356.343    21489356.2084   21489364.7354
        -0.000          -0.000
 98  5  1 18 37 30.0000000  0  6  2  4  5  7  9 24                  -0.000000058
    970420.218 9    585181.94646  22995606.290    22995605.7534   22995614.6674
        -0.000          -0.000
  -1380564.685 9   -807531.74649  20543945.140    20543945.3434   20543951.6544
        -0.000          -0.000
  -2874917.152 9  -2224851.55346  23226763.325    23226762.9674   23226770.7174
        -0.000          -0.000
    984574.073 9    756030.74347  22131881.051    22131880.4084   22131887.7714
        -0.000          -0.000
  -1391842.167 9  -1080739.21848  21325037.529    21325037.4044   21325043.7554
        -0.000          -0.000
  -3028595.203 9  -2138841.67548  21473747.266    21473747.1544   21473755.6134
        -0.000          -0.000
 98  5  1 18 38  0.0000000  0  7  2  4  5  7  9 24  8               -0.000000069
   1036266.363 9    636490.54346  23008136.503    23008135.9794   23008144.9774
        -0.000          -0.000
  -1397529.147 9   -820750.79149  20540716.914    20540717.1374   20540723.4224
        -0.000          -0.000
  -2957367.274 9  -2289098.32046  23211073.563    23211073.1194   23211080.8364
        -0.000          -0.000
   1048610.360 9    805929.10747  22144066.721    22144066.0924   22144073.5864
        -0.000          -0.000
  -1415955.120 9  -1099528.52548  21320448.967    21320448.8414   21320455.2254
        -0.000          -0.000
  -3110232.879 9  -2202455.39348  21458212.098    21458212.0094   21458220.4294
        -0.000          -0.000
   -987997.194 9   -757132.90052         0.000           0.0004          0.0005
        -0.000          -0.000
 98  5  1 18 38 30.0000000  0  7  2  4  5  7  9 24  8               -0.000000068
   1102388.342 9    688014.07746  23020719.220    23020718.6884   23020727.6924
        -0.000          -0.000
  -1413909.304 9   -833514.52949  20537599.904    20537600.1254   20537606.3814
        -0.000          -0.000
  -3039775.127 9  -2353312.16146  23195391.767    23195391.3654   23195399.0584
        -0.000          -0.000
   1112706.123 9    855873.83547  22156263.794    22156263.1784   22156270.6904
        -0.000          -0.000
  -1439494.332 9  -1117870.75648  21315969.568    21315969.4614   21315975.8834
        -0.000          -0.000
  -3191504.410 9  -2265783.80148  21442746.564    21442746.5364   21442754.9194
        -0.000          -0.000
  -1078919.55219   -827981.30445         0.000           0.0005   23176809.9474
        -0.000          -0.000
 98  5  1 18 39  0.0000000  0  7  2  4  5  7  9 24  8               -0.000000044
   1168781.798 9    739749.15946  23033353.609    23033353.0614   23033361.9714
        -0.000          -0.000
  -1429732.360 9   -845844.17049  20534588.945    20534589.1504   20534595.4104
        -0.000          -0.000
  -3122143.827 9  -2417495.48846  23179717.563    23179717.0964   23179724.7164
        -0.000          -0.000
   1176828.414 9    905839.22347  22168465.837    22168465.2614   22168472.7864
        -0.000          -0.000
  -1462498.207 9  -1135795.84648  21311592.112    21311591.9724   21311598.4594
        -0.000          -0.000
  -3272446.361 9  -2328855.40348  21427343.831    21427343.7984   21427352.0944
        -0.000          -0.000
  -1169532.210 9   -898588.50046  23159559.076    23159558.5114   23159566.9144
        -0.000          -0.000
 98  5  1 18 39 30.0000000  0  7  2  4  5  7  9 24  8                0.000000012
   1235428.593 9    791681.64746  23046036.106    23046035.5714   23046044.5514
        -0.000          -0.000
  -1445005.879 9   -857745.60249  20531682.482    20531682.7024   20531688.9324
        -0.000          -0.000
  -3204492.368 9  -2481663.09546  23164047.115    23164046.5954   23164054.2044
        -0.000          -0.000
   1240958.544 9    955810.71647  22180669.550    22180668.9024   22180676.3734
        -0.000          -0.000
  -1485001.273 9  -1153330.69748  21307309.877    21307309.7664   21307316.2844
        -0.000          -0.000
  -3353065.868 9  -2391675.73748  21412002.549    21412002.4394   21412010.6914
        -0.000          -0.000
  -1259866.058 9   -968978.46646  23142370.065    23142369.1714   23142376.4564
        -0.000          -0.000
 98  5  1 18 40  0.0000000  0  7  2  4  5  7  9 24  8                0.000000028
   1302333.894 9    843815.58647  23058768.027    23058767.4374   23058776.3714
        -0.000          -0.000
  -1459715.326 9   -869207.48949  20528883.416    20528883.6104   20528889.8444
        -0.000          -0.000
  -3286809.788 9  -2545806.46546  23148382.670    23148382.0884   23148389.7314
        -0.000          -0.000
   1305128.053 9   1005812.90447  22192880.632    22192879.9694   22192887.4574
        -0.000          -0.000
  -1506987.677 9  -1170462.95748  21303126.002    21303125.8834   21303132.3664
        -0.000          -0.000
  -3433313.304 9  -2454206.15248  21396732.017    21396731.8514   21396740.0684
        -0.000          -0.000
  -1349892.901 9  -1039129.18946  23125238.164    23125237.3314   23125244.7474
        -0.000          -0.000
 98  5  1 18 40 30.0000000  0  7  2  4  5  7  9 24  8                0.000000036
   1369482.932 9    896139.42146  23071546.223    23071545.6314   23071554.4554
        -0.000          -0.000
  -1473847.664 9   -880219.68949  20526194.104    20526194.3114   20526200.5094
        -0.000          -0.000
  -3369101.956 9  -2609930.15546  23132722.905    23132722.2804   23132729.9884
        -0.000          -0.000
   1369339.147 9   1055847.48947  22205099.582    22205098.9204   22205106.4244
        -0.000          -0.000
  -1528451.319 9  -1187187.86648  21299041.588    21299041.4604   21299047.9554
        -0.000          -0.000
  -3513171.030 9  -2516432.90748  21381535.538    21381535.4314   21381543.5734
        -0.000          -0.000
  -1439609.109 9  -1109037.86146  23108165.551    23108164.7314   23108172.3674
        -0.000          -0.000
 98  5  1 18 41  0.0000000  0  7  2  4  5  7  9 24  8                0.000000039
   1436886.426 9    948661.54247  23084372.743    23084372.1424   23084381.0854
        -0.000          -0.000
  -1487358.432 9   -890747.54549  20523623.082    20523623.2914   20523629.5044
        -0.000          -0.000
  -3451359.488 9  -2674026.86846  23117069.667    23117069.1664   23117076.9074
        -0.000          -0.000
   1433625.305 9   1105940.56247  22217332.861    22217332.2204   22217339.7554
        -0.000          -0.000
  -1549374.162 9  -1203491.37348  21295060.106    21295060.0074   21295066.4824
        -0.000          -0.000
  -3592602.455 9  -2578327.47148  21366420.196    21366420.0654   21366428.1804
        -0.000          -0.000
  -1528962.691 9  -1178663.97146  23091161.786    23091161.0834   23091168.9244
        -0.000          -0.000
 98  5  1 18 41 30.0000000  0  7  2  4  5  7  9 24  8                0.000000021
   1504513.620 9   1001357.96247  23097241.810    23097241.2534   23097250.2814
        -0.000          -0.000
  -1500250.808 9   -900793.53849  20521169.684    20521169.8904   20521176.1384
        -0.000          -0.000
  -3533610.530 9  -2738118.51546  23101417.721    23101417.3014   23101424.9974
        -0.000          -0.000
   1497986.495 9   1156092.10347  22229580.474    22229579.8324   22229587.3564
        -0.000          -0.000
  -1569761.933 9  -1219377.94248  21291180.498    21291180.3934   21291186.8264
        -0.000          -0.000
  -3671609.329 9  -2639891.20948  21351385.708    21351385.5344   21351393.6544
        -0.000          -0.000
  -1617935.205 9  -1247993.16146  23074230.504    23074229.9934   23074237.8914
        -0.000          -0.000
 98  5  1 18 42  0.0000000  0  7  2  4  5  7  9 24  8               -0.000000002
   1572402.356 9   1054258.18446  23110160.529    23110160.0494   23110169.1144
        -0.000          -0.000
  -1512487.360 9   -910328.50249  20518841.178    20518841.3624   20518847.6184
        -0.000          -0.000
  -3615819.420 9  -2802177.31446  23085773.820    23085773.4124   23085781.1634
        -0.000          -0.000
   1562457.513 9   1206329.22447  22241848.956    22241848.2894   22241855.8594
        -0.000          -0.000
  -1589571.985 9  -1234814.34648  21287410.791    21287410.6724   21287417.1024
        -0.000          -0.000
  -3750174.590 9  -2701110.84248  21336435.182    21336435.0034   21336443.1114
        -0.000          -0.000
  -1706483.361 9  -1316991.66546  23057380.129    23057379.6794   23057387.7224
        -0.000          -0.000
 98  5  1 18 42 30.0000000  0  7  2  4  5  7  9 24  8               -0.000000023
   1640575.039 9   1107379.66546  23123133.379    23123132.9684   23123142.0524
        -0.000          -0.000
  -1524054.678 9   -919341.98349  20516640.014    20516640.1864   20516646.3974
        -0.000          -0.000
  -3697978.563 9  -2866197.34846  23070139.518    23070138.9654   23070146.7244
        -0.000          -0.000
   1627042.464 9   1256655.13047  22254139.092    22254138.4414   22254146.0404
        -0.000          -0.000
  -1608806.119 9  -1249801.97848  21283750.613    21283750.5464   21283756.9734
        -0.000          -0.000
  -3828302.947 9  -2761990.03348  21321567.804    21321567.6464   21321575.7154
        -0.000          -0.000
  -1794603.748 9  -1385656.84446  23040611.338    23040610.9174   23040618.9604
        -0.000          -0.000
 98  5  1 18 43  0.0000000  0  7  2  4  5  7  9 24  8               -0.000000046
   1709027.620 9   1160719.23547  23136159.710    23136159.2604   23136168.3194
        -0.000          -0.000
  -1534982.529 9   -927857.17949  20514560.465    20514560.6754   20514566.9004
        -0.000          -0.000
  -3780099.694 9  -2930187.75446  23054512.256    23054511.7834   23054519.5804
        -0.000          -0.000
   1691723.100 9   1307055.59247  22266447.424    22266446.7804   22266454.3274
        -0.000          -0.000
  -1627482.204 9  -1264354.76948  21280196.773    21280196.6364   21280203.0084
        -0.000          -0.000
  -3906035.986 9  -2822561.18048  21306775.566    21306775.4274   21306783.5884
        -0.000          -0.000
  -1882312.163 9  -1454001.01446  23023921.100    23023920.6314   23023928.6164
        -0.000          -0.000
 98  5  1 18 43 30.0000000  0  7  2  4  5  7  9 24  8               -0.000000055
   1777795.396 9   1214304.40746  23149245.930    23149245.3814   23149254.4464
        -0.000          -0.000
  -1545260.127 9   -935865.68449  20512604.740    20512604.9794   20512611.1524
        -0.000          -0.000
  -3862142.878 9  -2994117.44246  23038899.826    23038899.4424   23038907.1924
        -0.000          -0.000
   1756514.841 9   1357542.63047  22278776.935    22278776.2644   22278783.8594
        -0.000          -0.000
  -1645570.782 9  -1278449.76348  21276754.592    21276754.4894   21276760.8254
        -0.000          -0.000
  -3983363.521 9  -2882816.35448  21292060.454    21292060.3534   21292068.6314
        -0.000          -0.000
  -1969615.374 9  -1522029.42746  23007307.857    23007307.3724   23007315.3324
        -0.000          -0.000
 98  5  1 18 44  0.0000000  0  7  2  4  5  7  9 24  8               -0.000000062
   1846862.888 9   1268123.12646  23162389.016    23162388.4824   23162397.6024
        -0.000          -0.000
  -1554918.690 9   -943391.82349  20510766.787    20510767.0024   20510773.1554
        -0.000          -0.000
  -3944132.637 9  -3058005.49346  23023297.643    23023297.2834   23023305.0434
        -0.000          -0.000
   1821376.826 9   1408084.40447  22291119.780    22291119.0894   22291126.7024
        -0.000          -0.000
  -1663090.456 9  -1292101.45448  21273420.677    21273420.5974   21273426.9314
        -0.000          -0.000
  -4060310.041 9  -2942774.63648  21277417.969    21277417.8804   21277426.1474
        -0.000          -0.000
  -2056548.166 9  -1589769.21446  22990764.937    22990764.5054   22990772.4734
        -0.000          -0.000
 98  5  1 18 44 30.0000000  0  7  2  4  5  7  9 24  8               -0.000000057
   1916229.651 9   1322175.03846  23175589.149    23175588.6444   23175597.7114
        -0.000          -0.000
  -1563955.688 9   -950433.62649  20509047.099    20509047.3224   20509053.4834
        -0.000          -0.000
  -4026055.703 9  -3121841.58646  23007708.157    23007707.8754   23007715.5924
        -0.000          -0.000
   1886310.128 9   1458681.76347  22303476.075    22303475.4164   22303483.0644
        -0.000          -0.000
  -1680026.890 9  -1305298.67148  21270197.759    21270197.6494   21270204.0844
        -0.000          -0.000
  -4136848.428 9  -3002414.87948  21262853.170    21262853.0344   21262861.3444
        -0.000          -0.000
  -2143096.922 9  -1657209.74646  22974295.229    22974294.8174   22974302.7974
        -0.000          -0.000
 98  5  1 18 45  0.0000000  0  7  2  4  5  7  9 24  8               -0.000000053
   1985871.013 9   1376440.91746  23188841.590    23188841.0394   23188850.0884
        -0.000          -0.000
  -1572394.205 9   -957009.08649  20507441.300    20507441.5244   20507447.7194
        -0.000          -0.000
  -4107918.447 9  -3185630.66646  22992130.160    22992129.8704   22992137.5824
        -0.000          -0.000
   1951298.340 9   1509321.89047  22315842.819    22315842.2244   22315849.9054
        -0.000          -0.000
  -1696377.665 9  -1318039.53948  21267086.269    21267086.1834   21267092.6764
        -0.000          -0.000
  -4212985.617 9  -3061742.51848  21248364.671    21248364.5734   21248372.8814
        -0.000          -0.000
  -2229279.370 9  -1724364.82746  22957895.209    22957894.8114   22957902.7804
        -0.000          -0.000
 98  5  1 18 45 30.0000000  0  7  2  4  5  7  9 24  8               -0.000000046
   2055786.961 9   1430920.76346  23202146.204    23202145.6994   23202154.7044
        -0.000          -0.000
  -1580226.877 9   -963112.45149  20505950.771    20505950.9964   20505957.2134
        -0.000          -0.000
  -4189720.527 9  -3249372.48646  22976563.708    22976563.4464   22976571.1654
        -0.000          -0.000
   2016339.158 9   1560003.01347  22328219.756    22328219.1454   22328226.7744
        -0.000          -0.000
  -1712154.455 9  -1330333.13648  21264084.035    21264083.9614   21264090.4354
        -0.000          -0.000
  -4288698.997 9  -3120739.90748  21233956.878    21233956.7584   21233965.0234
        -0.000          -0.000
  -2315091.246 9  -1791231.17746  22941565.629    22941565.3544   22941573.2674
        -0.000          -0.000
 98  5  1 18 46  0.0000000  0  7  2  4  5  7  9 24  8               -0.000000031
   2125980.450 9   1485616.87046  23215503.628    23215503.1214   23215512.1644
        -0.000          -0.000
  -1587444.203 9   -968736.32949  20504577.319    20504577.5474   20504583.7984
        -0.000          -0.000
  -4271459.825 9  -3313065.38846  22961009.289    22961008.9654   22961016.6264
        -0.000          -0.000
   2081441.161 9   1610731.80147  22340608.274    22340607.5894   22340615.2724
        -0.000          -0.000
  -1727357.146 9  -1342179.39048  21261191.038    21261190.9644   21261197.4674
        -0.000          -0.000
  -4363975.967 9  -3179397.22848  21219632.146    21219632.0444   21219640.3134
        -0.000          -0.000
  -2400514.649 9  -1857794.80046  22925310.267    22925309.7884   22925317.7384
        -0.000          -0.000
 98  5  1 18 46 30.0000000  0  7  2  4  5  7  9 24  8               -0.000000027
   2196408.774 9   1540495.96846  23228905.833    23228905.3134   23228914.3504
        -0.000          -0.000
  -1594093.101 9   -973917.27549  20503312.095    20503312.3024   20503318.5614
        -0.000          -0.000
  -4353158.731 9  -3376726.80146  22945462.527    22945462.0684   22945469.7184
        -0.000          -0.000
   2146575.623 9   1661485.90747  22353002.983    22353002.3884   22353009.9344
        -0.000          -0.000
  -1742037.275 9  -1353618.45048  21258397.476    21258397.4474   21258403.9674
        -0.000          -0.000
  -4438856.674 9  -3237745.78248  21205382.815    21205382.6994   21205390.9294
        -0.000          -0.000
  -2485587.248 9  -1924085.07246  22909121.523    22909121.0264   22909128.9364
        -0.000          -0.000
 98  5  1 18 47  0.0000000  0  7  2  4  5  7  9 24  8               -0.000000017
   2267105.382 9   1595584.12346  23242359.064    23242358.5304   23242367.5694
        -0.000          -0.000
  -1600159.554 9   -978644.36749  20502157.690    20502157.8824   20502164.1564
        -0.000          -0.000
  -4434799.822 9  -3440343.16246  22929926.736    22929926.2624   22929933.9024
        -0.000          -0.000
   2211775.153 9   1712290.71147  22365410.150    22365409.5094   22365416.9834
        -0.000          -0.000
  -1756181.127 9  -1364639.63148  21255706.044    21255706.0014   21255712.4884
        -0.000          -0.000
  -4513330.727 9  -3295777.46548  21191210.925    21191210.8004   21191218.8924
        -0.000          -0.000
  -2570290.672 9  -1990087.68046  22893003.010    22893002.5244   22893010.3834
        -0.000          -0.000
 98  5  1 18 47 30.0000000  0  7  2  4  5  7  9 24  8               -0.000000004
   2338056.780 9   1650870.83646  23255860.625    23255860.1234   23255869.3224
        -0.000          -0.000
  -1605652.955 9   -982924.92649  20501112.270    20501112.4754   20501118.7294
        -0.000          -0.000
  -4516392.924 9  -3503922.13546  22914400.016    22914399.5224   22914407.1224
        -0.000          -0.000
   2277026.235 9   1763135.66247  22377827.093    22377826.4334   22377833.8424
        -0.000          -0.000
  -1769804.535 9  -1375255.27548  21253113.640    21253113.5854   21253120.0554
        -0.000          -0.000
  -4587413.634 9  -3353504.36448  21177113.355    21177113.2704   21177121.3304
        -0.000          -0.000
  -2654617.171 9  -2055796.57346  22876956.060    22876955.6244   22876963.5234
        -0.000          -0.000
 98  5  1 18 48  0.0000000  0  7  2  4  5  7  9 24  8                0.000000007
   2409257.025 9   1706351.40546  23269409.651    23269409.1234   23269418.5094
        -0.000          -0.000
  -1610573.543 9   -986759.13949  20500175.915    20500176.1234   20500182.2904
        -0.000          -0.000
  -4597935.424 9  -3567461.67246  22898882.849    22898882.4244   22898890.0504
        -0.000          -0.000
   2342329.498 9   1814021.29447  22390254.002    22390253.2704   22390260.7594
        -0.000          -0.000
  -1782893.383 9  -1385454.37348  21250622.894    21250622.8604   21250629.3774
        -0.000          -0.000
  -4661111.280 9  -3410931.04348  21163089.120    21163089.0584   21163097.1934
        -0.000          -0.000
  -2738555.747 9  -2121203.20446  22860983.090    22860982.6404   22860990.5614
        -0.000          -0.000
 98  5  1 18 48 30.0000000  0  7  2  4  5  7  9 24  8                0.000000015
   2480699.868 9   1762021.04846  23283004.866    23283004.3124   23283013.6824
        -0.000          -0.000
  -1614930.146 9   -990153.87649  20499346.892    20499347.1074   20499353.2244
        -0.000          -0.000
  -4679441.583 9  -3630972.88846  22883372.636    22883372.2314   22883379.8894
        -0.000          -0.000
   2407674.260 9   1864939.25047  22402688.656    22402687.9724   22402695.5804
        -0.000          -0.000
  -1795447.498 9  -1395236.79648  21248233.977    21248233.9144   21248240.4574
        -0.000          -0.000
  -4734425.234 9  -3468058.74948  21149137.954    21149137.8764   21149145.9934
        -0.000          -0.000
  -2822099.659 9  -2186302.27746  22845085.294    22845084.8574   22845092.6534
        -0.000          -0.000
 98  5  1 18 49  0.0000000  0  7  2  4  5  7  9 24  8                0.000000013
   2552379.302 9   1817875.02946  23296645.127    23296644.4984   23296653.9454
        -0.000          -0.000
  -1618718.884 9   -993106.12349  20498625.966    20498626.1864   20498632.2594
        -0.000          -0.000
  -4760931.334 9  -3694471.33346  22867865.610    22867865.2174   22867872.8214
        -0.000          -0.000
   2473043.507 9   1915876.29647  22415127.938    22415127.3504   22415134.9874
        -0.000          -0.000
  -1807452.170 9  -1404591.07948  21245949.585    21245949.5254   21245956.0794
        -0.000          -0.000
  -4807342.582 9  -3524877.41348  21135262.241    21135262.1434   21135270.2584
        -0.000          -0.000
  -2905243.799 9  -2251089.86246  22829263.564    22829263.1004   22829270.8424
        -0.000          -0.000
 98  5  1 18 49 30.0000000  0  7  2  4  5  7  9 24  8                0.000000003
   2624303.726 9   1873919.92346  23310331.899    23310331.3244   23310340.8944
        -0.000          -0.000
  -1621909.944 9   -995592.64949  20498018.757    20498018.9574   20498025.0034
        -0.000          -0.000
  -4842380.897 9  -3757938.45846  22852366.243    22852365.8464   22852373.4374
        -0.000          -0.000
   2538438.484 9   1966833.38847  22427572.280    22427571.6754   22427579.3214
        -0.000          -0.000
  -1818877.961 9  -1413494.29548  21243775.285    21243775.2704   21243781.8204
        -0.000          -0.000
  -4879834.622 9  -3581364.66648  21121467.467    21121467.3224   21121475.4584
        -0.000          -0.000
  -2987962.812 9  -2315546.18246  22813522.769    22813522.1684   22813529.8774
        -0.000          -0.000
 98  5  1 18 50  0.0000000  0  7  2  4  5  7  9 24  8               -0.000000002
   2696506.371 9   1930181.58546  23324071.735    23324071.2014   23324080.8224
        -0.000          -0.000
  -1624471.932 9   -997588.99249  20497531.239    20497531.4444   20497537.4974
        -0.000          -0.000
  -4923777.295 9  -3821364.15446  22836876.976    22836876.5894   22836884.0954
        -0.000          -0.000
   2603881.684 9   2017828.05647  22440025.727    22440025.1744   22440032.8184
        -0.000          -0.000
  -1829697.628 9  -1421925.20248  21241716.383    21241716.3564   21241722.9344
        -0.000          -0.000
  -4951868.664 9  -3637495.03548  21107759.761    21107759.6124   21107767.8064
        -0.000          -0.000
  -3070240.947 9  -2379658.96746  22797865.689    22797865.0674   22797872.7374
        -0.000          -0.000
 98  5  1 18 50 30.0000000  0  7  2  4  5  7  9 24  8                0.000000002
   2768983.941 9   1986657.47046  23337863.976    23337863.4134   23337873.0444
        -0.000          -0.000
  -1626415.748 9   -999103.63549  20497161.298    20497161.5014   20497167.6424
        -0.000          -0.000
  -5005121.788 9  -3884749.40546  22821397.730    22821397.2464   22821404.7704
        -0.000          -0.000
   2669370.971 9   2068858.63747  22452487.859    22452487.3374   22452495.0514
        -0.000          -0.000
  -1839909.156 9  -1429882.23548  21239773.172    21239773.1114   21239779.6824
        -0.000          -0.000
  -5023430.694 9  -3693257.60648  21094141.898    21094141.7604   21094149.9414
        -0.000          -0.000
  -3152082.354 9  -2443431.44946  22782291.590    22782291.0584   22782298.7284
        -0.000          -0.000
 98  5  1 18 51  0.0000000  0  7  2  4  5  7  9 24  8                0.000000000
   2841717.445 9   2043332.80646  23351704.789    23351704.2214   23351713.9584
        -0.000          -0.000
  -1627758.694 9  -1000150.07449  20496905.746    20496905.9374   20496912.0864
        -0.000          -0.000
  -5086420.905 9  -3948099.29146  22805926.954    22805926.4264   22805933.9274
        -0.000          -0.000
   2734891.913 9   2119913.87647  22464956.115    22464955.5854   22464963.2784
        -0.000          -0.000
  -1849534.556 9  -1437382.54648  21237941.460    21237941.4494   21237947.9514
        -0.000          -0.000
  -5094540.154 9  -3748667.52548  21080610.149    21080610.0274   21080618.1754
        -0.000          -0.000
  -3233506.163 9  -2506878.50746  22766796.997    22766796.5544   22766804.2814
        -0.000          -0.000
 98  5  1 18 51 30.0000000  0  7  2  4  5  7  9 24  8               -0.000000005
   2914704.169 9   2100205.44546  23365593.904    23365593.3264   23365602.9854
        -0.000          -0.000
  -1628510.132 9  -1000735.59549  20496762.674    20496762.8864   20496769.0704
        -0.000          -0.000
  -5167672.198 9  -4011411.92246  22790465.215    22790464.7604   22790472.1474
        -0.000          -0.000
   2800440.297 9   2170990.50647  22477429.633    22477429.1094   22477436.7324
        -0.000          -0.000
  -1858603.068 9  -1444448.91848  21236215.808    21236215.7944   21236222.2434
        -0.000          -0.000
  -5165222.893 9  -3803744.93348  21067159.657    21067159.5294   21067167.6384
        -0.000          -0.000
  -3314521.994 9  -2570007.66746  22751380.273    22751379.7784   22751387.4714
        -0.000          -0.000
 98  5  1 18 52  0.0000000  0  7  2  4  5  7  9 24  8               -0.000000004
   2987962.571 9   2157289.80646  23379534.621    23379534.0654   23379543.6434
        -0.000          -0.000
  -1628657.225 9  -1000850.19649  20496734.662    20496734.9064   20496741.0894
        -0.000          -0.000
  -5248858.213 9  -4074673.68646  22775015.859    22775015.4744   22775022.8604
        -0.000          -0.000
   2866052.345 9   2222116.74547  22489915.280    22489914.7064   22489922.3114
        -0.000          -0.000
  -1867109.586 9  -1451077.37348  21234597.090    21234597.0344   21234603.4704
        -0.000          -0.000
  -5235454.662 9  -3858470.94248  21053794.956    21053794.8514   21053802.9114
        -0.000          -0.000
  -3395115.563 9  -2632807.80546  22736043.794    22736043.3354   22736051.0044
        -0.000          -0.000
 98  5  1 18 52 30.0000000  0  7  2  4  5  7  9 24  8                0.000000004
   3061479.186 9   2214575.34846  23393524.343    23393523.9214   23393533.4354
        -0.000          -0.000
  -1628213.201 9  -1000504.18549  20496819.153    20496819.3674   20496825.5874
        -0.000          -0.000
  -5329966.253 9  -4137874.67846  22759581.514    22759581.0804   22759588.4074
        -0.000          -0.000
   2931730.726 9   2273294.65847  22502413.414    22502412.8844   22502420.5864
        -0.000          -0.000
  -1875066.097 9  -1457277.24948  21233083.030    21233083.0024   21233089.4014
        -0.000          -0.000
  -5305241.535 9  -3912850.27348  21040514.943    21040514.8254   21040522.8164
        -0.000          -0.000
  -3475289.356 9  -2695280.83746  22720787.188    22720786.5474   22720794.3274
        -0.000          -0.000
 98  5  1 18 53  0.0000000  0  7  2  4  5  7  9 24  8               -0.000000001
   3135239.032 9   2272050.40546  23407560.484    23407559.9634   23407569.6074
        -0.000          -0.000
  -1627177.032 9   -999696.76749  20497016.274    20497016.5314   20497022.7524
        -0.000          -0.000
  -5411002.923 9  -4201020.07547  22744160.746    22744160.3454   22744167.5614
        -0.000          -0.000
   2997460.907 9   2324512.94147  22514921.447    22514920.9544   22514928.7034
        -0.000          -0.000
  -1882493.745 9  -1463065.01948  21231669.642    21231669.6014   21231675.9654
        -0.000          -0.000
  -5374609.202 9  -3966902.95448  21027314.637    21027314.5434   21027322.5084
        -0.000          -0.000
  -3555059.683 9  -2757439.47946  22705607.289    22705606.6764   22705614.4254
        -0.000          -0.000
 98  5  1 18 53 30.0000000  0  7  2  4  5  7  9 24  8               -0.000000026
   3209237.255 9   2329711.26046  23421641.881    23421641.4354   23421651.1344
        -0.000          -0.000
  -1625545.005 9   -998425.04849  20497326.876    20497327.1164   20497333.3164
        -0.000          -0.000
  -5491973.617 9  -4264114.05747  22728752.559    22728752.1124   22728759.3094
        -0.000          -0.000
   3063243.814 9   2375772.31447  22527439.659    22527439.1194   22527446.9144
        -0.000          -0.000
  -1889393.891 9  -1468441.75648  21230356.609    21230356.5404   21230362.9504
        -0.000          -0.000
  -5443555.472 9  -4020627.27148  21014194.582    21014194.4764   21014202.4484
        -0.000          -0.000
  -3634424.987 9  -2819282.52846  22690504.565    22690504.0214   22690511.6814
        -0.000          -0.000
 98  5  1 18 54  0.0000000  0  7  2  4  5  7  9 24  8               -0.000000041
   3283518.419 9   2387592.54246  23435777.286    23435776.7994   23435786.5684
        -0.000          -0.000
  -1623273.807 9   -996655.26549  20497759.063    20497759.3164   20497765.5524
        -0.000          -0.000
  -5572832.351 9  -4327120.78547  22713365.663    22713365.2644   22713372.4034
        -0.000          -0.000
   3129122.413 9   2427106.23947  22539975.863    22539975.3804   22539983.2584
        -0.000          -0.000
  -1895709.222 9  -1473362.79148  21229154.813    21229154.7624   21229161.1784
        -0.000          -0.000
  -5512031.800 9  -4073985.40448  21001164.031    21001163.8674   21001171.8084
        -0.000          -0.000
  -3713338.573 9  -2880773.57546  22675487.923    22675487.2364   22675494.8644
        -0.000          -0.000
 98  5  1 18 54 30.0000000  0  8  2  4  5 16  7  9 24  8            -0.000000032
   3358075.565 9   2445688.89346  23449965.157    23449964.6274   23449974.3984
        -0.000          -0.000
  -1620371.782 9   -994393.93749  20498311.390    20498311.6044   20498317.7874
        -0.000          -0.000
  -5653577.446 9  -4390038.98747  22698000.333    22697999.9914   22698007.0024
        -0.000          -0.000
  -2227134.421 8  -1728387.17545  24610780.719    24610780.1624   24610790.7074
        -0.000          -0.000
   3195067.437 9   2478491.94247  22552524.972    22552524.4324   22552532.2094
        -0.000          -0.000
  -1901447.471 9  -1477834.15448  21228062.902    21228062.7984   21228069.2444
        -0.000          -0.000
  -5580056.654 9  -4126991.72948  20988219.312    20988219.1384   20988227.0924
        -0.000          -0.000
  -3791801.436 9  -2941913.41446  22660556.936    22660556.2934   22660563.8854
        -0.000          -0.000
 98  5  1 18 55  0.0000000  0  8  2  4  5 16  7  9 24  8            -0.000000050
   3432904.297 9   2503996.87346  23464204.633    23464204.1194   23464213.7764
        -0.000          -0.000
  -1616847.352 9   -991647.61249  20498982.109    20498982.3204   20498988.4764
        -0.000          -0.000
  -5734221.772 9  -4452878.65147  22682654.295    22682653.8864   22682660.8414
        -0.000          -0.000
  -2249447.464 8  -1745773.89045  24606534.628    24606534.1914   24606544.5754
        -0.000          -0.000
   3261053.373 9   2529909.51647  22565081.748    22565081.2694   22565088.9684
        -0.000          -0.000
  -1906620.453 9  -1481865.05648  21227078.562    21227078.4694   21227084.9014
        -0.000          -0.000
  -5647649.630 9  -4179661.53548  20975356.699    20975356.5834   20975364.4974
        -0.000          -0.000
  -3869824.229 9  -3002710.33746  22645709.612    22645709.0524   22645716.5574
        -0.000          -0.000
 98  5  1 18 55 30.0000000  0  8  2  4  5 16  7  9 24  8            -0.000000061
   3508001.573 9   2562514.09846  23478495.216    23478494.7664   23478504.4114
        -0.000          -0.000
  -1612716.950 9   -988429.11349  20499768.122    20499768.3354   20499774.4424
        -0.000          -0.000
  -5814772.644 9  -4515645.50347  22667325.909    22667325.5274   22667332.4704
        -0.000          -0.000
  -2271303.575 8  -1762804.56245  24602375.440    24602374.9914   24602385.1954
        -0.000          -0.000
   3327071.681 9   2581352.33047  22577644.791    22577644.1334   22577651.7574
        -0.000          -0.000
  -1911234.165 9  -1485460.16148  21226200.595    21226200.4874   21226206.9434
        -0.000          -0.000
  -5714816.730 9  -4231999.48148  20962575.268    20962575.1114   20962582.9534
        -0.000          -0.000
  -3947409.441 9  -3063166.29746  22630945.509    22630945.0234   22630952.5314
        -0.000          -0.000
 98  5  1 18 56  0.0000000  0  8  2  4  5 16  7  9 24  8            -0.000000059
   3583377.837 9   2621248.70646  23492838.975    23492838.6164   23492848.1424
        -0.000          -0.000
  -1607976.152 9   -984734.97549  20500670.277    20500670.4614   20500676.5454
        -0.000          -0.000
  -5895222.775 9  -4578333.85547  22652016.812    22652016.4254   22652023.2604
        -0.000          -0.000
  -2292702.068 9  -1779478.63745  24598303.550    24598303.0184   24598313.0634
        -0.000          -0.000
   3393122.244 9   2632820.25447  22590213.801    22590213.2114   22590220.8194
        -0.000          -0.000
  -1915285.077 9  -1488616.72148  21225429.727    21225429.6314   21225436.1244
        -0.000          -0.000
  -5781550.914 9  -4284000.10148  20949876.135    20949875.9734   20949883.8194
        -0.000          -0.000
  -4024554.826 9  -3123279.54546  22616265.184    22616264.7764   22616272.1844
        -0.000          -0.000
 98  5  1 18 56 30.0000000  0  8  2  4  5 16  7  9 24  8            -0.000000042
   3659044.620 9   2680209.69646  23507238.231    23507237.7284   23507247.2804
        -0.000          -0.000
  -1602605.298 9   -980549.88249  20501692.311    20501692.5044   20501698.5734
        -0.000          -0.000
  -5975564.123 9  -4640937.44047  22636728.417    22636727.9204   22636734.7694
        -0.000          -0.000
  -2313633.083 8  -1795788.42345  24594320.522    24594320.0874   24594329.9924
        -0.000          -0.000
   3459229.326 9   2684332.23447  22602793.696    22602793.0424   22602800.6464
        -0.000          -0.000
  -1918753.347 9  -1491319.27248  21224769.757    21224769.6284   21224776.1564
        -0.000          -0.000
  -5847816.707 9  -4335635.73448  20937266.156    20937265.9924   20937273.8914
        -0.000          -0.000
  -4101235.797 9  -3183030.87546  22601673.195    22601672.7884   22601680.2794
        -0.000          -0.000
 98  5  1 18 57  0.0000000  0  8  2  4  5 16  7  9 24  8            -0.000000029
   3734968.640 9   2739371.14046  23521686.154    23521685.6664   23521695.2554
        -0.000          -0.000
  -1596639.066 9   -975900.86549  20502827.646    20502827.8384   20502833.8504
        -0.000          -0.000
  -6055849.739 9  -4703497.60147  22621450.439    22621449.9864   22621456.9254
        -0.000          -0.000
  -2334117.303 8  -1811750.11045  24590422.445    24590422.0354   24590431.9064
        -0.000          -0.000
   3525370.178 9   2735870.53147  22615379.988    22615379.3084   22615386.8904
        -0.000          -0.000
  -1921668.255 9  -1493590.63348  21224215.075    21224214.9624   21224221.4414
        -0.000          -0.000
  -5913631.901 9  -4386920.25248  20924741.925    20924741.7734   20924749.6274
        -0.000          -0.000
  -4177478.453 9  -3242440.67946  22587164.751    22587164.3224   22587171.7834
        -0.000          -0.000
 98  5  1 18 57 30.0000000  0  8  2  4  5 16  7  9 24  8            -0.000000015
   3811152.863 9   2798735.33446  23536183.568    23536182.9994   23536192.8244
        -0.000          -0.000
  -1590060.488 9   -970774.69449  20504079.516    20504079.6914   20504085.6804
        -0.000          -0.000
  -6136073.070 9  -4766009.23547  22606184.337    22606183.9254   22606190.8144
        -0.000          -0.000
  -2354134.829 8  -1827348.09045  24586613.080    24586612.6834   24586622.4064
        -0.000          -0.000
   3591571.041 9   2787455.58847  22627977.563    22627976.8684   22627984.5334
        -0.000          -0.000
  -1924007.208 9  -1495413.20148  21223770.057    21223769.9204   21223776.3674
        -0.000          -0.000
  -5978953.675 9  -4437820.29248  20912311.592    20912311.4384   20912319.2494
        -0.000          -0.000
  -4253256.935 9  -3301488.80446  22572744.691    22572744.0944   22572751.5324
        -0.000          -0.000
 98  5  1 18 58  0.0000000  0  8  2  4  5 16  7  9 24  8            -0.000000008
   3887585.369 9   2858292.98546  23550728.197    23550727.7004   23550737.5814
        -0.000          -0.000
  -1582877.833 9   -965177.81149  20505446.339    20505446.5454   20505452.5274
        -0.000          -0.000
  -6216238.486 9  -4828475.73147  22590929.247    22590928.8564   22590935.8074
        -0.000          -0.000
  -2373709.283 9  -1842600.86645  24582888.215    24582887.8214   24582897.5034
        -0.000          -0.000
   3657826.641 9   2839083.28747  22640585.606    22640584.9294   22640592.6164
        -0.000          -0.000
  -1925769.842 9  -1496786.68248  21223434.701    21223434.5424   21223440.9614
        -0.000          -0.000
  -6043770.181 9  -4488326.60348  20899977.384    20899977.2374   20899985.0674
        -0.000          -0.000
  -4328572.085 9  -3360175.88246  22558412.631    22558412.0364   22558419.4424
        -0.000          -0.000
 98  5  1 18 58 30.0000000  0  8  2  4  5 16  7  9 24  8            -0.000000010
   3964236.142 9   2918020.70246  23565314.437    23565313.9824   23565323.9374
        -0.000          -0.000
  -1575117.601 9   -959130.87549  20506923.063    20506923.2234   20506929.2134
        -0.000          -0.000
  -6296351.478 9  -4890901.38547  22575684.173    22575683.8004   22575690.7644
        -0.000          -0.000
  -2392845.541 8  -1857512.16745  24579246.748    24579246.3624   24579255.9654
        -0.000          -0.000
   3724112.541 9   2890734.60747  22653199.356    22653198.6874   22653206.4724
        -0.000          -0.000
  -1926962.804 9  -1497716.27648  21223207.726    21223207.5594   21223213.9434
        -0.000          -0.000
  -6108098.092 9  -4538452.20748  20887736.207    20887736.0514   20887743.8304
        -0.000          -0.000
  -4403421.923 9  -3418500.39646  22544169.114    22544168.5174   22544175.8374
        -0.000          -0.000
 98  5  1 18 59  0.0000000  0  8  2  4  5 16  7  9 24  8            -0.000000009
   4041126.362 9   2977935.01246  23579946.299    23579945.8634   23579955.7884
        -0.000          -0.000
  -1566766.771 9   -952623.73249  20508512.087    20508512.2724   20508518.2804
        -0.000          -0.000
  -6376378.587 9  -4953260.11647  22560455.481    22560455.0814   22560462.1484
        -0.000          -0.000
  -2411525.096 8  -1872067.61445  24575691.978    24575691.5634   24575701.4314
        -0.000          -0.000
   3790434.471 9   2942414.00247  22665819.966    22665819.3304   22665827.0914
        -0.000          -0.000
  -1927580.232 9  -1498197.39548  21223090.233    21223090.0704   21223096.4834
        -0.000          -0.000
  -6171939.969 9  -4588199.08048  20875587.525    20875587.3524   20875595.0704
        -0.000          -0.000
  -4477796.861 9  -3476454.85446  22530015.917    22530015.4754   22530022.6934
        -0.000          -0.000
 98  5  1 18 59 30.0000000  0  8  2  4  5 16  7  9 24  8            -0.000000015
   4118252.917 9   3038033.47546  23594623.060    23594622.5534   23594632.5264
        -0.000          -0.000
  -1557843.860 9   -945670.80649  20510210.045    20510210.2574   20510216.2794
        -0.000          -0.000
  -6456312.495 9  -5015546.22847  22545244.537    22545244.1924   22545251.2934
        -0.000          -0.000
  -2429786.609 8  -1886297.31445  24572216.864    24572216.4484   24572226.4024
        -0.000          -0.000
   3856766.155 9   2994101.00147  22678442.403    22678441.8024   22678449.6494
        -0.000          -0.000
  -1927636.806 9  -1498241.48548  21223079.450    21223079.3084   21223085.7854
        -0.000          -0.000
  -6235331.623 9  -4637595.12648  20863524.443    20863524.2834   20863531.9834
        -0.000          -0.000
  -4551726.087 9  -3534061.99546  22515947.550    22515947.1444   22515954.3654
        -0.000          -0.000
 98  5  1 19  0  0.0000000  0  8  2  4  5 16  7  9 24  8            -0.000000015
   4195647.967 9   3098341.16946  23609351.051    23609350.5864   23609360.4124
        -0.000          -0.000
  -1548335.216 9   -938261.46149  20512019.487    20512019.6944   20512025.7134
        -0.000          -0.000
  -6536129.672 9  -5077741.36747  22530055.798    22530055.4774   22530062.5874
        -0.000          -0.000
  -2447605.894 8  -1900182.41845  24568825.860    24568825.5064   24568835.5814
        -0.000          -0.000
   3923118.149 9   3045803.82547  22691068.790    22691068.2104   22691076.0754
        -0.000          -0.000
  -1927115.151 9  -1497835.00648  21223178.781    21223178.6294   21223185.0934
        -0.000          -0.000
  -6298279.413 9  -4686645.30748  20851545.870    20851545.7154   20851553.4174
        -0.000          -0.000
  -4625193.524 9  -3591309.29446  22501967.087    22501966.7034   22501973.9304
        -0.000          -0.000
 98  5  1 19  0 30.0000000  0  8  2  4  5 16  7  9 24  8             0.000000004
   4273315.433 9   3158861.13146  23624130.824    23624130.3354   23624140.2434
        -0.000          -0.000
  -1538253.964 9   -930405.93549  20513937.881    20513938.0764   20513944.0784
        -0.000          -0.000
  -6615847.169 9  -5139858.85547  22514886.022    22514885.7494   22514892.8484
        -0.000          -0.000
  -2464976.599 8  -1913717.97445  24565520.262    24565519.8144   24565529.9574
        -0.000          -0.000
   3989480.562 9   3097514.76547  22703697.181    22703696.5784   22703704.3954
        -0.000          -0.000
  -1926037.968 9  -1496995.65648  21223383.714    21223383.6074   21223390.0864
        -0.000          -0.000
  -6360806.859 9  -4735367.95048  20839647.270    20839647.1234   20839654.8354
        -0.000          -0.000
  -4698208.781 9  -3648204.24547  22488072.822    22488072.3324   22488079.5474
        -0.000          -0.000
 98  5  1 19  1  0.0000000  0  8  2  4  5 16  7  9 24  8             0.000000026
   4351255.555 9   3219593.53046  23638962.489    23638961.9674   23638972.0374
        -0.000          -0.000
  -1527618.392 9   -922118.46649  20515961.727    20515961.9654   20515967.9684
        -0.000          -0.000
  -6695485.450 9  -5201914.60347  22499731.332    22499731.0214   22499738.1584
        -0.000          -0.000
  -2481911.412 8  -1926913.86445  24562297.739    24562297.2554   24562307.3484
        -0.000          -0.000
   4055860.532 9   3149239.39046  22716328.913    22716328.3334   22716336.0714
        -0.000          -0.000
  -1924425.104 9  -1495738.88748  21223690.702    21223690.5454   21223697.0524
        -0.000          -0.000
  -6422918.792 9  -4783766.81048  20827827.693    20827827.5454   20827835.2474
        -0.000          -0.000
  -4770799.049 9  -3704768.03647  22474259.147    22474258.7454   22474265.9734
        -0.000          -0.000
 98  5  1 19  1 30.0000000  0  8  2  4  5 16  7  9 24  8             0.000000050
   4429453.834 9   3280527.10446  23653843.329    23653842.7464   23653852.8564
        -0.000          -0.000
  -1516431.031 9   -913401.03649  20518090.585    20518090.8214   20518096.8624
        -0.000          -0.000
  -6775054.501 9  -5263916.40847  22484589.845    22484589.4634   22484596.6344
        -0.000          -0.000
  -2498404.490 8  -1939765.55645  24559159.137    24559158.6084   24559168.8764
        -0.000          -0.000
   4122275.084 9   3200990.95946  22728967.148    22728966.6244   22728974.2694
        -0.000          -0.000
  -1922261.678 9  -1494053.10748  21224102.346    21224102.2204   21224108.7794
        -0.000          -0.000
  -6484597.218 9  -4831827.88448  20816090.651    20816090.5114   20816098.1614
        -0.000          -0.000
  -4842946.599 9  -3760986.85947  22460529.725    22460529.4494   22460536.6974
        -0.000          -0.000
 98  5  1 19  2  0.0000000  0  8  2  4  5 16  7  9 24  8             0.000000071
   4507885.935 9   3341642.87246  23668768.356    23668767.8434   23668778.2954
        -0.000          -0.000
  -1504675.843 9   -904241.14049  20520327.586    20520327.7934   20520333.8114
        -0.000          -0.000
  -6854557.252 9  -5325866.55147  22469460.878    22469460.5064   22469467.7254
        -0.000          -0.000
  -2514418.840 8  -1952244.22145  24556111.648    24556111.1584   24556121.3974
        -0.000          -0.000
   4188743.786 9   3252784.71846  22741615.760    22741615.1774   22741622.8154
        -0.000          -0.000
  -1919538.874 9  -1491931.44948  21224620.452    21224620.3514   21224626.9204
        -0.000          -0.000
  -6545805.350 9  -4879522.48448  20804443.043    20804442.9244   20804450.5874
        -0.000          -0.000
  -4914621.893 9  -3816837.68247  22446890.574    22446890.1324   22446897.3534
        -0.000          -0.000
 98  5  1 19  2 30.0000000  0  8  2  4  5 16  7  9 24  8             0.000000064
   4586513.532 9   3402910.98446  23683730.658    23683730.1854   23683740.8854
        -0.000          -0.000
  -1492377.044 9   -894657.64949  20522667.953    20522668.1824   20522674.1964
        -0.000          -0.000
  -6934011.872 9  -5387779.19047  22454341.162    22454340.7544   22454348.0244
        -0.000          -0.000
  -2529990.363 8  -1964377.81245  24553148.460    24553148.0594   24553158.1484
        -0.000          -0.000
   4255240.962 9   3304600.66046  22754269.656    22754269.0484   22754276.7534
        -0.000          -0.000
  -1916288.979 9  -1489399.06848  21225238.899    21225238.7734   21225245.3454
        -0.000          -0.000
  -6606555.678 9  -4926860.35548  20792882.597    20792882.4474   20792890.0874
        -0.000          -0.000
  -4985854.022 9  -3872343.18847  22433335.530    22433335.0554   22433342.3244
        -0.000          -0.000
 98  5  1 19  3  0.0000000  0  8  2  4  5 16  7  9 24  8             0.000000039
   4665362.520 9   3464351.58646  23698735.042    23698734.7274   23698745.3944
        -0.000          -0.000
  -1479476.623 9   -884605.37049  20525122.805    20525123.0434   20525129.0614
        -0.000          -0.000
  -7013367.590 9  -5449614.77147  22439240.165    22439239.7684   22439247.0274
        -0.000          -0.000
  -2545087.414 8  -1976141.69045  24550275.618    24550275.2284   24550285.1044
        -0.000          -0.000
   4321799.570 9   3356464.47346  22766935.283    22766934.7994   22766942.5414
        -0.000          -0.000
  -1912458.586 9  -1486414.36248  21225967.785    21225967.7084   21225974.2284
        -0.000          -0.000
  -6666806.072 9  -4973808.67448  20781417.236    20781417.1544   20781424.7824
        -0.000          -0.000
  -5056604.032 9  -3927473.03547  22419872.253    22419871.7264   22419879.0294
        -0.000          -0.000
 98  5  1 19  3 30.0000000  0  8  2  4  5 16  7  9 24  8            -0.000000015
   4744432.656 9   3525964.53946  23713781.812    23713781.4414   23713792.0484
        -0.000          -0.000
  -1465939.596 9   -874057.02849  20527698.819    20527699.0504   20527705.0794
        -0.000          -0.000
  -7092618.224 9  -5511368.47347  22424159.244    22424158.8084   22424166.0544
        -0.000          -0.000
  -2559701.927 8  -1987529.57345  24547494.506    24547494.0544   24547504.1004
        -0.000          -0.000
   4388408.799 9   3408367.72346  22779610.793    22779610.2834   22779617.8784
        -0.000          -0.000
  -1908037.502 9  -1482969.36748  21226809.202    21226809.0764   21226815.5714
        -0.000          -0.000
  -6726549.959 9  -5020362.30548  20770048.394    20770048.2654   20770055.8834
        -0.000          -0.000
  -5126863.711 9  -3982220.79847  22406502.098    22406501.5724   22406509.0594
        -0.000          -0.000
 98  5  1 19  4  0.0000000  0  8  2  4  5 16  7  9 24  8            -0.000000058
   4823802.537 9   3587811.03046  23728885.541    23728885.1944   23728895.7444
        -0.000          -0.000
  -1451701.337 9   -862962.27449  20530408.294    20530408.5144   20530414.5364
        -0.000          -0.000
  -7171703.537 9  -5572993.34447  22409109.738    22409109.2774   22409116.5524
        -0.000          -0.000
  -2573782.178 8  -1998501.14145  24544815.165    24544814.7284   24544824.6704
        -0.000          -0.000
   4455104.456 9   3460338.33546  22792302.710    22792302.0984   22792309.6964
        -0.000          -0.000
  -1902983.410 9  -1479031.12548  21227770.925    21227770.8604   21227777.3674
        -0.000          -0.000
  -6785736.571 9  -5066481.69248  20758785.481    20758785.3624   20758793.0274
        -0.000          -0.000
  -5196590.253 9  -4036553.13747  22393233.500    22393233.0374   22393240.5274
        -0.000          -0.000
 98  5  1 19  4 30.0000000  0  8  2  4  5 16  7  9 24  8            -0.000000087
   4903485.086 8   3649901.15845  23744048.752    23744048.2984   23744058.9484
        -0.000          -0.000
  -1436785.386 9   -851339.44949  20533246.690    20533246.9294   20533252.9084
        -0.000          -0.000
  -7250625.111 9  -5634490.63347  22394091.328    22394090.9244   22394098.1304
        -0.000          -0.000
  -2587362.004 8  -2009082.78545  24542231.049    24542230.6874   24542240.5394
        -0.000          -0.000
   4521862.925 9   3512357.87246  22805006.442    22805005.8734   22805013.5194
        -0.000          -0.000
  -1897311.075 9  -1474611.13648  21228850.326    21228850.2534   21228856.7324
        -0.000          -0.000
  -6844405.120 9  -5112197.40148  20747621.162    20747621.0414   20747628.7034
        -0.000          -0.000
  -5265795.863 9  -4090479.55547  22380064.114    22380063.6154   22380071.1344
        -0.000          -0.000
 98  5  1 19  5  0.0000000  0  8  2  4  5 16  7  9 24  8            -0.000000100
   4983478.692 9   3712233.68545  23759271.173    23759270.7494   23759281.2714
        -0.000          -0.000
  -1421203.001 9   -839197.31949  20536211.955    20536212.1764   20536218.1234
        -0.000          -0.000
  -7329398.593 9  -5695872.51947  22379101.148    22379100.8114   22379107.9334
        -0.000          -0.000
  -2600444.777 8  -2019277.10945  24539741.378    24539741.0114   24539750.9454
        -0.000          -0.000
   4588675.936 9   3564419.92546  22817720.539    22817720.0114   22817727.6404
        -0.000          -0.000
  -1891027.045 9  -1469714.50248  21230046.099    21230046.0654   21230052.4984
        -0.000          -0.000
  -6902573.545 9  -5157523.40548  20736552.071    20736551.9444   20736559.5534
        -0.000          -0.000
  -5334471.835 9  -4143993.27447  22366995.527    22366995.0224   22367002.5234
        -0.000          -0.000
 98  5  1 19  5 30.0000000  0  8  2  4  5 16  7  9 24  8            -0.000000077
   5063792.759 8   3774815.88545  23774554.559    23774554.0094   23774564.6674
        -0.000          -0.000
  -1404968.545 9   -826547.08349  20539301.241    20539301.4474   20539307.4324
        -0.000          -0.000
  -7408015.655 9  -5757132.52147  22364140.883    22364140.4184   22364147.4814
        -0.000          -0.000
  -2613015.464 8  -2029072.39345  24537349.224    24537348.8774   24537358.6704
        -0.000          -0.000
   4655554.351 9   3616532.93046  22830447.132    22830446.5714   22830454.2874
        -0.000          -0.000
  -1884132.724 9  -1464342.30748  21231358.127    21231358.0374   21231364.4494
        -0.000          -0.000
  -6960227.345 9  -5202448.39748  20725580.934    20725580.8094   20725588.3484
        -0.000          -0.000
  -5402603.100 9  -4197082.53447  22354030.393    22354029.9674   22354037.5604
        -0.000          -0.000
 98  5  1 19  6  0.0000000  0  8  2  4  5 16  7  9 24  8            -0.000000030
   5144379.384 8   3837610.49345  23789889.760    23789889.2924   23789899.8404
        -0.000          -0.000
  -1388165.319 9   -813453.64949  20542498.793    20542499.0144   20542504.9794
        -0.000          -0.000
  -7486505.145 9  -5818293.11047  22349204.763    22349204.3084   22349211.3674
        -0.000          -0.000
  -2625125.431 8  -2038508.66545  24535044.793    24535044.4424   24535054.0804
        -0.000          -0.000
   4722455.689 9   3668663.80046  22843177.959    22843177.4374   22843185.2324
        -0.000          -0.000
  -1876685.660 9  -1458539.41448  21232775.185    21232775.1664   21232781.6234
        -0.000          -0.000
  -7017421.476 9  -5247015.20749  20714697.278    20714697.1444   20714704.7164
        -0.000          -0.000
  -5470226.072 9  -4249775.73047  22341162.177    22341161.6764   22341169.2934
        -0.000          -0.000
 98  5  1 19  6 30.0000000  0  8  2  4  5 16  7  9 24  8             0.000000021
   5225190.788 9   3900580.24345  23805267.746    23805267.2074   23805277.8484
        -0.000          -0.000
  -1370843.157 9   -799955.85249  20545795.066    20545795.3124   20545801.2634
        -0.000          -0.000
  -7564897.281 9  -5879377.84847  22334287.192    22334286.7654   22334293.7924
        -0.000          -0.000
  -2636798.078 8  -2047604.19545  24532823.440    24532823.1804   24532832.7844
        -0.000          -0.000
   4789361.804 9   3720798.40046  22855909.927    22855909.3434   22855917.1394
        -0.000          -0.000
  -1868712.390 9  -1452326.48548  21234292.509    21234292.4554   21234298.8944
        -0.000          -0.000
  -7074176.478 9  -5291239.83649  20703897.125    20703896.9604   20703904.5554
        -0.000          -0.000
  -5537366.260 9  -4302092.73747  22328385.719    22328385.3004   22328392.8674
        -0.000          -0.000
 98  5  1 19  7  0.0000000  0  8  2  4  5 16  7  9 24  8             0.000000077
   5306218.154 9   3963718.29946  23820686.975    23820686.5214   23820697.1344
        -0.000          -0.000
  -1353001.627 9   -786053.35149  20549190.165    20549190.4214   20549196.3934
        -0.000          -0.000
  -7643200.791 9  -5940393.52647  22319386.418    22319386.0614   22319393.1034
        -0.000          -0.000
  -2648006.163 8  -2056337.75545  24530690.535    24530690.2274   24530700.0344
        -0.000          -0.000
   4856284.861 9   3772946.19846  22868645.075    22868644.4474   22868652.1854
        -0.000          -0.000
  -1860210.197 9  -1445701.41848  21235910.377    21235910.3354   21235916.7574
        -0.000          -0.000
  -7130456.173 9  -5335094.10548  20693187.427    20693187.2954   20693194.8454
        -0.000          -0.000
  -5604038.263 9  -4354044.91347  22315698.427    22315698.0544   22315705.6654
        -0.000          -0.000
 98  5  1 19  7 30.0000000  0  8  2  4  5 16  7  9 24  8             0.000000104
   5387420.044 9   4026992.32946  23836139.617    23836139.0644   23836149.5124
        -0.000          -0.000
  -1334695.475 9   -771788.80749  20552673.764    20552673.9704   20552679.9254
        -0.000          -0.000
  -7721449.236 9  -6001366.29747  22304496.285    22304495.8894   22304502.8894
        -0.000          -0.000
  -2658790.596 8  -2064741.15645  24528638.207    24528637.8084   24528647.9754
        -0.000          -0.000
   4923193.064 9   3825082.40246  22881377.199    22881376.5934   22881384.4684
        -0.000          -0.000
  -1851216.806 9  -1438693.59348  21237621.788    21237621.7304   21237628.1554
        -0.000          -0.000
  -7186276.314 9  -5378590.27049  20682565.181    20682565.0194   20682572.5834
        -0.000          -0.000
  -5670295.956 9  -4405674.25547  22303090.029    22303089.6534   22303097.2404
        -0.000          -0.000
 98  5  1 19  8  0.0000000  0  8  2  4  5 16  7  9 24  8             0.000000104
   5468805.845 9   4090409.67245  23851627.039    23851626.4524   23851637.0634
        -0.000          -0.000
  -1315910.460 9   -757151.13249  20556248.443    20556248.6754   20556254.5944
        -0.000          -0.000
  -7799644.524 9  -6062297.64547  22289616.277    22289615.8604   22289622.8294
        -0.000          -0.000
  -2669140.484 8  -2072805.99845  24526668.539    24526668.1824   24526678.4744
        -0.000          -0.000
   4990097.162 9   3877215.41646  22894108.677    22894108.0884   22894116.0534
        -0.000          -0.000
  -1841720.130 9  -1431293.60248  21239428.980    21239428.9394   21239435.3594
        -0.000          -0.000
  -7241631.775 9  -5421724.35149  20672031.297    20672031.1514   20672038.7794
        -0.000          -0.000
  -5736133.376 9  -4456976.10447  22290561.575    22290561.1564   22290568.7464
        -0.000          -0.000
 98  5  1 19  8 30.0000000  0  8  2  4  5 16  7  9 24  8             0.000000086
   5550399.241 9   4153988.76245  23867153.916    23867153.3734   23867163.8284
        -0.000          -0.000
  -1296605.120 9   -742108.00249  20559922.138    20559922.3424   20559928.2764
        -0.000          -0.000
  -7877774.919 9  -6123178.44547  22274748.572    22274748.1434   22274755.1154
        -0.000          -0.000
  -2679015.156 8  -2080500.49545  24524789.246    24524788.8714   24524799.2324
        -0.000          -0.000
   5057014.144 9   3929358.49346  22906842.632    22906842.0234   22906849.9674
        -0.000          -0.000
  -1831692.533 9  -1423479.91048  21241337.208    21241337.1284   21241343.5524
        -0.000          -0.000
  -7296492.668 9  -5464473.05649  20661591.544    20661591.4084   20661599.0284
        -0.000          -0.000
  -5801525.292 9  -4507930.81447  22278117.870    22278117.4704   22278125.0624
        -0.000          -0.000
 98  5  1 19  9  0.0000000  0  8  2  4  5 16  7  9 24  8             0.000000056
   5632212.754 8   4217739.37345  23882722.783    23882722.2554   23882732.6264
        -0.000          -0.000
  -1276754.506 9   -726639.98549  20563699.558    20563699.7774   20563705.7114
        -0.000          -0.000
  -7955819.764 9  -6183992.57047  22259897.141    22259896.7144   22259903.6524
        -0.000          -0.000
  -2688403.692 8  -2087816.18745  24523002.533    24523002.2494   24523012.5834
        -0.000          -0.000
   5123947.447 9   3981514.27546  22919579.651    22919579.0664   22919586.9094
        -0.000          -0.000
  -1821125.899 9  -1415246.17748  21243347.931    21243347.8664   21243354.3304
        -0.000          -0.000
  -7350858.692 9  -5506836.14749  20651246.020    20651245.9004   20651253.4874
        -0.000          -0.000
  -5866452.524 9  -4558523.42947  22265762.755    22265762.3044   22265769.8104
        -0.000          -0.000
 98  5  1 19  9 30.0000000  0  8  2  4  5 16  7  9 24  8             0.000000011
   5714251.917 9   4281665.79845  23898334.352    23898333.8084   23898344.3564
        -0.000          -0.000
  -1256329.647 9   -710724.50549  20567586.294    20567586.5264   20567592.4164
        -0.000          -0.000
  -8033754.002 9  -6244720.50647  22245066.710    22245066.2614   22245073.2454
        -0.000          -0.000
  -2697311.576 8  -2094757.34845  24521307.405    24521307.0724   24521317.3944
        -0.000          -0.000
   5190904.433 9   4033688.49946  22932321.061    22932320.5554   22932328.4084
        -0.000          -0.000
  -1810004.076 9  -1406579.84348  21245464.310    21245464.2814   21245470.7764
        -0.000          -0.000
  -7404738.531 9  -5548820.39349  20640992.979    20640992.8784   20641000.4734
        -0.000          -0.000
  -5930879.924 9  -4608726.56147  22253502.565    22253502.1014   22253509.6464
        -0.000          -0.000
 98  5  1 19 10  0.0000000  0  8  2  4  5 16  7  9 24  8            -0.000000029
   5796546.940 8   4345791.59445  23913994.753    23913994.0964   23914004.7464
        -0.000          -0.000
  -1235283.143 9   -694324.62749  20571591.318    20571591.5444   20571597.4434
        -0.000          -0.000
  -8111550.548 9  -6305341.16447  22230262.412    22230262.0404   22230269.0504
        -0.000          -0.000
  -2705703.088 8  -2101296.14945  24519710.613    24519710.3684   24519720.6244
        -0.000          -0.000
   5257893.543 9   4085887.77446  22945068.597    22945068.1504   22945076.0134
        -0.000          -0.000
  -1798303.433 9  -1397462.47748  21247690.922    21247690.8804   21247697.3614
        -0.000          -0.000
  -7458120.376 9  -5590416.59349  20630834.666    20630834.6304   20630842.2224
        -0.000          -0.000
  -5994764.081 9  -4658506.39547  22241345.825    22241345.3774   22241352.8594
        -0.000          -0.000
 98  5  1 19 10 30.0000000  0  8  2  4  5 16  7  9 24  8            -0.000000062
   5879096.008 8   4410115.35545  23929703.292    23929702.6814   23929713.5474
        -0.000          -0.000
  -1213622.735 9   -677446.38249  20575713.067    20575713.3304   20575719.2704
        -0.000          -0.000
  -8189190.726 9  -6365839.96347  22215487.983    22215487.5884   22215494.5144
        -0.000          -0.000
  -2713587.008 8  -2107439.43945  24518210.219    24518210.0764   24518220.2994
        -0.000          -0.000
   5324903.552 9   4138103.31846  22957820.212    22957819.7324   22957827.5944
        -0.000          -0.000
  -1786027.455 9  -1387896.79348  21250026.945    21250026.9124   21250033.4164
        -0.000          -0.000
  -7510990.455 9  -5631614.01349  20620773.844    20620773.7554   20620781.3074
        -0.000          -0.000
  -6058104.949 9  -4707862.89147  22229292.452    22229292.0814   22229299.4704
        -0.000          -0.000
 98  5  1 19 11  0.0000000  0  8  2  4  5 16  7  9 24  8            -0.000000093
   5961900.229 8   4474637.95845  23945460.308    23945459.8734   23945470.7744
        -0.000          -0.000
  -1191355.225 9   -660095.06949  20579950.441    20579950.6974   20579956.6854
        -0.000          -0.000
  -8266678.929 9  -6426220.33647  22200742.465    22200742.0174   22200748.9244
        -0.000          -0.000
  -2720984.745 8  -2113203.86645  24516802.611    24516802.4714   24516812.5634
        -0.000          -0.000
   5391930.019 9   4190331.67746  22970575.059    22970574.5624   22970582.4004
        -0.000          -0.000
  -1773174.658 9  -1377881.64648  21252472.761    21252472.7294   21252479.2634
        -0.000          -0.000
  -7563347.799 9  -5672411.90349  20610810.526    20610810.4534   20610817.9934
        -0.000          -0.000
  -6120908.401 9  -4756800.61047  22217341.351    22217340.9364   22217348.3774
        -0.000          -0.000
 98  5  1 19 11 30.0000000  0  8  2  4  5 16  7  9 24  8            -0.000000115
   6044975.515 8   4539371.75545  23961269.065    23961268.6294   23961279.6614
        -0.000          -0.000
  -1168476.156 9   -642267.22049  20584304.133    20584304.3834   20584310.4074
        -0.000          -0.000
  -8344012.457 9  -6486480.19247  22186026.274    22186025.8944   22186032.8124
        -0.000          -0.000
  -2727899.186 8  -2118591.70645  24515486.772    24515486.6324   24515496.6734
        -0.000          -0.000
   5458980.980 9   4242579.15146  22983334.611    22983333.9994   22983341.7134
        -0.000          -0.000
  -1759735.138 9  -1367409.31148  21255030.243    21255030.1794   21255036.6894
        -0.000          -0.000
  -7615179.471 9  -5712800.18049  20600947.230    20600947.1714   20600954.7134
        -0.000          -0.000
  -6183164.736 9  -4805312.00647  22205494.282    22205493.8974   22205501.3704
        -0.000          -0.000
 98  5  1 19 12  0.0000000  0  8  2  4  5 16  7  9 24  8            -0.000000117
   6128335.117 8   4604327.10445  23977131.824    23977131.4884   23977142.5364
        -0.000          -0.000
  -1145004.131 9   -623977.32449  20588770.680    20588770.9404   20588776.9574
        -0.000          -0.000
  -8421190.864 9  -6546619.18047  22171339.681    22171339.3514   22171346.2514
        -0.000          -0.000
  -2734324.148 8  -2123598.12745  24514264.311    24514264.0184   24514274.1374
        -0.000          -0.000
   5526048.782 9   4294839.73446  22996097.248    22996096.6334   22996104.4254
        -0.000          -0.000
  -1745723.058 9  -1356490.82248  21257696.659    21257696.6134   21257703.1164
        -0.000          -0.000
  -7666480.159 9  -5752774.70049  20591185.015    20591184.9594   20591192.4864
        -0.000          -0.000
  -6244886.639 9  -4853406.97347  22193748.913    22193748.5574   22193756.0144
        -0.000          -0.000
 98  5  1 19 12 30.0000000  0  8  2  4  5 16  7  9 24  8            -0.000000111
   6211959.994 8   4669489.13345  23993045.246    23993044.8704   23993056.1014
        -0.000          -0.000
  -1120943.263 9   -605228.59349  20593349.300    20593349.5414   20593355.5284
        -0.000          -0.000
  -8498215.845 9  -6606638.60847  22156682.352    22156681.9084   22156688.7794
        -0.000          -0.000
  -2740269.050 8  -2128230.47745  24513133.076    24513132.8014   24513142.5844
        -0.000          -0.000
   5593144.925 9   4347122.40046  23008865.243    23008864.6744   23008872.5384
        -0.000          -0.000
  -1731140.968 9  -1345128.16748  21260471.559    21260471.4724   21260478.0074
        -0.000          -0.000
  -7717253.389 9  -5792338.21849  20581523.178    20581523.1084   20581530.5784
        -0.000          -0.000
  -6306074.593 9  -4901085.87147  22182105.331    22182104.9284   22182112.2284
        -0.000          -0.000
 98  5  1 19 13  0.0000000  0  8  2  4  5 16  7  9 24  8            -0.000000106
   6295839.899 8   4734849.88345  24009007.292    24009006.9704   24009018.1644
        -0.000          -0.000
  -1096287.560 9   -586016.34849  20598041.123    20598041.3534   20598047.3384
        -0.000          -0.000
  -8575108.694 9  -6666555.08147  22142050.148    22142049.7274   22142056.5534
        -0.000          -0.000
  -2745732.191 9  -2132487.42745  24512093.451    24512093.1714   24512102.8744
        -0.000          -0.000
   5660280.304 9   4399435.62646  23021640.692    23021640.1104   23021648.1414
        -0.000          -0.000
  -1715995.104 9  -1333326.21148  21263353.707    21263353.6564   21263360.1834
        -0.000          -0.000
  -7767525.061 9  -5831510.91249  20571956.789    20571956.7014   20571964.0874
        -0.000          -0.000
  -6366713.476 9  -4948336.93447  22170566.144    22170565.7564   22170572.9954
        -0.000          -0.000
 98  5  1 19 13 30.0000000  0  8  2  4  5 16  7  9 24  8            -0.000000098
   6379971.315 8   4800406.63745  24025017.162    24025016.7074   24025027.9194
        -0.000          -0.000
  -1071039.365 9   -566342.42649  20602845.686    20602845.9464   20602851.9024
        -0.000          -0.000
  -8651865.170 9  -6726365.28647  22127443.799    22127443.4704   22127450.2614
        -0.000          -0.000
  -2750702.734 8  -2136360.55845  24511147.701    24511147.3364   24511156.9684
        -0.000          -0.000
   5727469.180 9   4451790.54746  23034426.380    23034425.7394   23034433.8274
        -0.000          -0.000
  -1700283.392 9  -1321083.33548  21266343.603    21266343.5374   21266350.0784
        -0.000          -0.000
  -7817290.982 9  -5870289.51549  20562486.559    20562486.4974   20562493.8784
        -0.000          -0.000
  -6426791.127 9  -4995150.67347  22159133.794    22159133.4014   22159140.5484
        -0.000          -0.000
 98  5  1 19 14  0.0000000  0  8  2  4  5 16  7  9 24  8            -0.000000089
   6464339.414 8   4866147.80345  24041072.260    24041071.6514   24041082.7194
        -0.000          -0.000
  -1045208.160 9   -546214.20749  20607761.280    20607761.5144   20607767.4164
        -0.000          -0.000
  -8728487.143 9  -6786070.68447  22112863.175    22112862.8344   22112869.6454
        -0.000          -0.000
  -2755178.515 8  -2139848.16645  24510296.056    24510295.7754   24510305.2314
        -0.000          -0.000
   5794709.974 9   4504185.92446  23047221.891    23047221.2614   23047229.2834
        -0.000          -0.000
  -1684012.609 9  -1308404.82148  21269439.851    21269439.7934   21269446.2994
        -0.000          -0.000
  -7866557.982 9  -5908679.35049  20553111.367    20553111.3274   20553118.6494
        -0.000          -0.000
  -6486310.417 9  -5041529.32947  22147807.805    22147807.3524   22147814.3754
        -0.000          -0.000
 98  5  1 19 14 30.0000000  0  8  2  4  5 16  7  9 24  8            -0.000000075
   6548949.042 9   4932077.19545  24057173.190    24057172.5954   24057183.5484
        -0.000          -0.000
  -1018780.223 9   -525621.00549  20612790.371    20612790.6224   20612796.5014
        -0.000          -0.000
  -8804966.749 9  -6845665.15147  22098309.652    22098309.2594   22098316.0674
        -0.000          -0.000
  -2759146.671 8  -2142940.20045  24509540.787    24509540.5984   24509549.9564
        -0.000          -0.000
   5862026.556 9   4556640.35646  23060031.829    23060031.2134   23060039.1624
        -0.000          -0.000
  -1667152.380 9  -1295267.00248  21272648.313    21272648.1924   21272654.7134
        -0.000          -0.000
  -7915318.709 9  -5946674.68649  20543832.523    20543832.4214   20543839.7194
        -0.000          -0.000
  -6545246.197 9  -5087453.29147  22136592.676    22136592.3064   22136599.2534
        -0.000          -0.000
 98  5  1 19 15  0.0000000  0  8  2  4  5 16  7  9 24  8            -0.000000058
   6633781.846 9   4998180.46945  24073316.479    24073315.9204   24073326.9924
        -0.000          -0.000
   -991801.289 9   -504598.44949  20617924.334    20617924.5584   20617930.4564
        -0.000          -0.000
  -8881326.274 9  -6905166.04147  22083778.943    22083778.4884   22083785.3114
        -0.000          -0.000
  -2762621.365 8  -2145647.71445  24508879.512    24508879.2664   24508888.7884
        -0.000          -0.000
   5929384.781 9   4609127.24246  23072849.714    23072849.0894   23072857.1134
        -0.000          -0.000
  -1649731.864 9  -1281692.59248  21275963.264    21275963.2174   21275969.7114
        -0.000          -0.000
  -7963594.419 9  -5984292.08749  20534645.910    20534645.8014   20534653.1144
        -0.000          -0.000
  -6603638.130 9  -5132953.48147  22125481.099    22125480.6994   22125487.6074
        -0.000          -0.000
 98  5  1 19 15 30.0000000  0  8  2  4  5 16  7  9 24  8            -0.000000046
   6718824.510 8   5064447.28345  24089499.838    24089499.3064   24089510.3054
        -0.000          -0.000
   -964291.201 9   -483162.01049  20623159.296    20623159.5444   20623165.4514
        -0.000          -0.000
  -8957549.635 9  -6964560.84047  22069274.038    22069273.6504   22069280.5014
        -0.000          -0.000
  -2765610.898 8  -2147977.17745  24508310.655    24508310.1904   24508319.8634
        -0.000          -0.000
   5996770.337 9   4661635.42946  23085672.714    23085672.1724   23085680.2244
        -0.000          -0.000
  -1631754.044 9  -1267683.92148  21279384.383    21279384.3194   21279390.7574
        -0.000          -0.000
  -8011373.729 9  -6021522.68649  20525553.747    20525553.6654   20525560.9784
        -0.000          -0.000
  -6661516.783 9  -5178053.71347  22114467.164    22114466.7444   22114473.5744
        -0.000          -0.000
 98  5  1 19 16  0.0000000  0  8  2  4  5 16  7  9 24  8            -0.000000043
   6804071.531 8   5130873.29545  24105721.956    24105721.4864   24105732.5044
        -0.000          -0.000
   -936249.297 9   -461311.16949  20628495.513    20628495.7404   20628501.6334
        -0.000          -0.000
  -9033625.471 9  -7023840.67347  22054797.315    22054796.9124   22054803.7024
        -0.000          -0.000
  -2768095.675 9  -2149913.33645  24507837.876    24507837.4674   24507847.0574
        -0.000          -0.000
   6064173.145 9   4714157.06146  23098499.155    23098498.5534   23098506.5524
        -0.000          -0.000
  -1613229.343 9  -1253249.10748  21282909.500    21282909.4384   21282915.8814
        -0.000          -0.000
  -8058653.978 9  -6058364.40249  20516556.637    20516556.5344   20516563.8644
        -0.000          -0.000
  -6718890.918 9  -5222760.81247  22103549.241    22103548.7724   22103555.6504
        -0.000          -0.000
 98  5  1 19 16 30.0000000  0  8  2  4  5 16  7  9 24  8            -0.000000054
   6889512.604 8   5197450.53845  24121980.911    24121980.3514   24121991.5494
        -0.000          -0.000
   -907679.306 9   -439048.83849  20633932.198    20633932.4264   20633938.3074
        -0.000          -0.000
  -9109558.069 9  -7083008.90447  22040347.904    22040347.4754   22040354.2184
        -0.000          -0.000
  -2770066.885 9  -2151449.32645  24507462.804    24507462.3274   24507471.9494
        -0.000          -0.000
   6131578.192 9   4766680.42446  23111325.965    23111325.3134   23111333.2954
        -0.000          -0.000
  -1594166.617 9  -1238395.05348  21286537.008    21286536.9774   21286543.4064
        -0.000          -0.000
  -8105432.997 9  -6094815.55449  20507654.889    20507654.7864   20507662.1334
        -0.000          -0.000
  -6775768.812 9  -5267081.23447  22092725.678    22092725.2444   22092732.2104
        -0.000          -0.000
 98  5  1 19 17  0.0000000  0  8  2  4  5 16  7  9 24  8            -0.000000070
   6975168.218 8   5264194.93545  24138280.746    24138280.1864   24138291.2834
        -0.000          -0.000
   -878556.713 9   -416355.90349  20639474.046    20639474.2994   20639480.2034
        -0.000          -0.000
  -9185318.139 9  -7142042.69647  22025931.116    22025930.7654   22025937.5044
        -0.000          -0.000
  -2771497.554 8  -2152564.10945  24507190.533    24507190.0454   24507199.7104
        -0.000          -0.000
   6198999.942 9   4819216.81946  23124155.844    23124155.2604   23124163.1984
        -0.000          -0.000
  -1574564.145 9  -1223120.41548  21290267.294    21290267.2444   21290273.6474
        -0.000          -0.000
  -8151672.325 9  -6130846.16049  20498855.815    20498855.7074   20498863.0694
        -0.000          -0.000
  -6832128.208 9  -5310997.62247  22082000.742    22082000.3194   22082007.3634
        -0.000          -0.000
 98  5  1 19 17 30.0000000  0  8  2  4  5 16  7  9 24  8            -0.000000088
   7061051.994 8   5331117.15745  24154623.761    24154623.4524   24154634.8254
        -0.000          -0.000
   -848863.460 9   -393218.30149  20645124.457    20645124.7184   20645130.6834
        -0.000          -0.000
  -9260897.876 9  -7200935.97447  22011548.768    22011548.4024   22011555.0824
        -0.000          -0.000
  -2772393.875 8  -2153262.51245  24507019.902    24507019.6234   24507029.1474
        -0.000          -0.000
   6266441.481 9   4871768.62946  23136989.616    23136989.0764   23136997.0094
        -0.000          -0.000
  -1554414.185 9  -1207419.16648  21294101.739    21294101.6904   21294108.0954
        -0.000          -0.000
  -8197361.638 9  -6166448.19049  20490161.453    20490161.3374   20490168.6834
        -0.000          -0.000
  -6887948.915 9  -5354494.26847  22071378.396    22071377.9734   22071385.0094
        -0.000          -0.000
 98  5  1 19 18  0.0000000  0  8  2  4  5 16  7  9 24  8            -0.000000099
   7147185.261 8   5398233.74145  24171014.511    24171014.2844   24171025.6964
        -0.000          -0.000
   -818590.935 9   -369629.31449  20650885.134    20650885.4194   20650891.3734
        -0.000          -0.000
  -9336317.455 9  -7259704.43947  21997196.917    21997196.5484   21997203.1864
        -0.000          -0.000
  -2772748.584 8  -2153538.89345  24506952.423    24506952.0904   24506961.6184
        -0.000          -0.000
   6333894.860 9   4924329.65246  23149825.578    23149825.0694   23149833.0704
        -0.000          -0.000
  -1533722.289 9  -1191295.61648  21298039.234    21298039.2044   21298045.6414
        -0.000          -0.000
  -8242511.997 9  -6201630.24949  20481569.565    20481569.4554   20481576.8414
        -0.000          -0.000
  -6943213.500 9  -5397557.56147  22060861.907    22060861.5044   22060868.4904
        -0.000          -0.000
 98  5  1 19 18 30.0000000  0  8  2  4  5 16  7  9 24  8            -0.000000096
   7233584.447 8   5465557.55445  24187456.009    24187455.7224   24187467.1354
        -0.000          -0.000
   -787744.791 9   -345593.36149  20656754.949    20656755.2364   20656761.1974
        -0.000          -0.000
  -9411589.236 9  -7318357.75547  21982873.137    21982872.7644   21982879.3844
        -0.000          -0.000
  -2772586.503 8  -2153412.57845  24506983.138    24506982.8594   24506992.4604
        -0.000          -0.000
   6401363.212 9   4976902.34446  23162664.466    23162663.9414   23162671.9344
        -0.000          -0.000
  -1512477.009 9  -1174740.87148  21302082.092    21302082.0954   21302088.5664
        -0.000          -0.000
  -8287133.323 9  -6236400.08649  20473078.414    20473078.2934   20473085.6674
        -0.000          -0.000
  -6997916.224 9  -5440183.04047  22050452.178    22050451.8404   22050458.9114
        -0.000          -0.000
 98  5  1 19 19  0.0000000  0  8  2  4  5 16  7  9 24  8            -0.000000084
   7320239.568 8   5533080.81245  24203946.180    24203945.8964   24203957.3044
        -0.000          -0.000
   -756360.874 9   -321138.36149  20662727.079    20662727.3824   20662733.3424
        -0.000          -0.000
  -9486730.648 9  -7376909.47847  21968574.193    21968573.8034   21968580.3614
        -0.000          -0.000
  -2771945.206 8  -2152912.85145  24507105.005    24507104.8344   24507114.4094
        -0.000          -0.000
   6468829.711 9   5029473.59746  23175503.040    23175502.4534   23175510.3394
        -0.000          -0.000
  -1490696.129 9  -1157768.77948  21306226.901    21306226.8564   21306233.3594
        -0.000          -0.000
  -8331248.427 9  -6270775.46249  20464683.614    20464683.4954   20464690.8634
        -0.000          -0.000
  -7052077.634 9  -5482386.72147  22040145.494    22040145.1854   22040152.2614
        -0.000          -0.000
 98  5  1 19 19 30.0000000  0  8  2  4  5 16  7  9 24  8            -0.000000062
   7407141.663 8   5600796.47445  24220483.265    24220482.8594   24220494.5814
        -0.000          -0.000
   -724471.480 9   -296289.47849  20668795.460    20668795.7404   20668801.6954
        -0.000          -0.000
  -9561757.100 9  -7435371.61447  21954297.136    21954296.6974   21954303.2324
        -0.000          -0.000
  -2770844.782 8  -2152055.35945  24507314.349    24507314.1304   24507323.7914
        -0.000          -0.000
   6536287.355 9   5082037.94546  23188339.756    23188339.2274   23188347.1554
        -0.000          -0.000
  -1468383.234 9  -1140382.12648  21310472.844    21310472.8374   21310479.3464
        -0.000          -0.000
  -8374886.301 9  -6304778.96349  20456379.486    20456379.3934   20456386.7394
        -0.000          -0.000
  -7105712.015 9  -5524179.72447  22029939.334    22029938.9514   22029945.9724
        -0.000          -0.000
 98  5  1 19 20  0.0000000  0  8  2  4  5 16  7  9 24  8            -0.000000034
   7494276.310 8   5668693.36345  24237064.688    24237064.1494   24237076.0914
        -0.000          -0.000
   -692086.795 9   -271054.65749  20674958.080    20674958.3444   20674964.3114
        -0.000          -0.000
  -9636672.034 9  -7493746.86847  21940041.213    21940040.8464   21940047.3814
        -0.000          -0.000
  -2769276.101 8  -2150832.98845  24507612.676    24507612.3944   24507621.9754
        -0.000          -0.000
   6603740.603 9   5134598.87446  23201175.699    23201175.1414   23201183.1904
        -0.000          -0.000
  -1445548.803 9  -1122589.08648  21314818.142    21314818.1184   21314824.6694
        -0.000          -0.000
  -8418059.355 9  -6338420.27649  20448163.863    20448163.7914   20448171.1324
        -0.000          -0.000
  -7158825.084 9  -5565566.51847  22019832.242    22019831.8484   22019838.8584
        -0.000          -0.000
 98  5  1 19 20 30.0000000  0  8  2  4  5 16  7  9 24  8            -0.000000010
   7581625.428 8   5736757.39145  24253686.904    24253686.3914   24253698.3494
        -0.000          -0.000
   -659215.181 9   -245440.41049  20681213.292    20681213.5644   20681219.5394
        -0.000          -0.000
  -9711454.809 9  -7552019.13247  21925810.435    21925810.0984   21925816.6944
        -0.000          -0.000
  -2767253.434 8  -2149256.87045  24507997.594    24507997.2264   24508006.9844
        -0.000          -0.000
   6671194.212 9   5187160.05646  23214011.752    23214011.1344   23214019.3034
        -0.000          -0.000
  -1422200.201 9  -1104395.39048  21319261.258    21319261.2134   21319267.7374
        -0.000          -0.000
  -8460758.475 9  -6371692.28249  20440038.529    20440038.4164   20440045.7494
        -0.000          -0.000
  -7211421.658 9  -5606550.84647  22009823.438    22009822.9974   22009830.0744
        -0.000          -0.000
 98  5  1 19 21  0.0000000  0  8  2  4  5 16  7  9 24  8             0.000000009
   7669186.496 8   5804986.53745  24270349.321    24270348.7874   24270360.9514
        -0.000          -0.000
   -625835.694 9   -219430.41849  20687565.185    20687565.4474   20687571.4044
        -0.000          -0.000
  -9786073.424 9  -7610163.48047  21911610.928    21911610.5684   21911617.2554
        -0.000          -0.000
  -2764756.134 8  -2147310.89145  24508472.766    24508472.4084   24508482.3264
        -0.000          -0.000
   6738671.834 9   5239739.98446  23226852.353    23226851.7854   23226859.7704
        -0.000          -0.000
  -1398335.246 9  -1085799.34748  21323802.676    21323802.6594   21323809.1334
        -0.000          -0.000
  -8502954.501 9  -6404572.27549  20432008.865    20432008.7854   20432016.0514
        -0.000          -0.000
  -7263479.217 9  -5647115.17647  21999917.052    21999916.6954   21999923.7984
        -0.000          -0.000
 98  5  1 19 21 30.0000000  0  8  2  4  5 16  7  9 24  8             0.000000018
   7756955.075 8   5873377.39945  24287051.257    24287050.7744   24287063.2104
        -0.000          -0.000
   -591920.275 9   -193002.81549  20694019.015    20694019.3094   20694025.3044
        -0.000          -0.000
  -9860516.259 9  -7668170.85447  21897444.873    21897444.5354   21897451.2364
        -0.000          -0.000
  -2761772.066 8  -2144985.64145  24509040.614    24509040.0954   24509050.1754
        -0.000          -0.000
   6806189.929 9   5292351.43046  23239700.585    23239700.0804   23239708.0014
        -0.000          -0.000
  -1373945.813 9  -1066794.61048  21328443.850    21328443.8164   21328450.3654
        -0.000          -0.000
  -8544639.984 9  -6437054.43049  20424076.325    20424076.2564   20424083.5204
        -0.000          -0.000
  -7314983.944 9  -5687248.71247  21990116.101    21990115.7004   21990122.8264
        -0.000          -0.000
 98  5  1 19 22  0.0000000  0  8  2  4  5 16  7  9 24  8             0.000000002
   7844921.599 8   5941922.50045  24303790.787    24303790.3154   24303803.0024
        -0.000          -0.000
   -557451.934 9   -166144.36449  20700578.114    20700578.4384   20700584.4444
        -0.000          -0.000
  -9934784.688 9  -7726042.32347  21883312.003    21883311.6994   21883318.4084
        -0.000          -0.000
  -2758300.143 9  -2142280.20545  24509701.267    24509700.7674   24509710.6804
        -0.000          -0.000
   6873735.925 9   5344984.62246  23252554.265    23252553.7324   23252561.6164
        -0.000          -0.000
  -1349034.826 9  -1047383.46948  21333184.308    21333184.2744   21333190.8374
        -0.000          -0.000
  -8585799.898 9  -6469127.06449  20416243.784    20416243.7294   20416251.0064
        -0.000          -0.000
  -7365936.318 9  -5726951.85147  21980420.232    21980419.7524   21980426.9644
        -0.000          -0.000
 98  5  1 19 22 30.0000000  0  8  2  4  5 16  7  9 24  8            -0.000000018
   7933110.294 8   6010640.69545  24320572.569    24320572.2374   24320584.9664
        -0.000          -0.000
   -522411.481 9   -138840.11149  20707246.123    20707246.4024   20707252.4504
        -0.000          -0.000
 -10008843.763 9  -7783750.66747  21869219.002    21869218.7154   21869225.4224
        -0.000          -0.000
  -2754316.833 9  -2139176.32945  24510459.613    24510459.1824   24510468.7604
        -0.000          -0.000
   6941334.865 9   5397659.07146  23265417.956    23265417.4564   23265425.3704
        -0.000          -0.000
  -1323564.575 9  -1027536.53948  21338031.123    21338031.0984   21338037.6434
        -0.000          -0.000
  -8626395.706 9  -6500760.13349  20408518.641    20408518.6064   20408525.8254
        -0.000          -0.000
  -7416302.247 9  -5766198.02447  21970835.752    21970835.3574   21970842.5634
        -0.000          -0.000
 98  5  1 19 23  0.0000000  0  8  2  4  5 16  7  9 24  8            -0.000000043
   8021500.725 8   6079516.06845  24337393.169    24337392.8824   24337405.1734
        -0.000          -0.000
   -486816.540 9   -111103.79349  20714019.642    20714019.9524   20714025.9574
        -0.000          -0.000
 -10082712.352 9  -7841310.57647  21855162.223    21855161.9264   21855168.6884
        -0.000          -0.000
  -2749820.249 9  -2135672.46245  24511315.435    24511314.8794   24511324.5054
        -0.000          -0.000
   7008971.774 9   5450363.11346  23278288.968    23278288.3864   23278296.3244
        -0.000          -0.000
  -1297530.660 9  -1007250.39048  21342985.236    21342985.2294   21342991.7614
        -0.000          -0.000
  -8666440.266 9  -6531963.64949  20400898.449    20400898.3924   20400905.6224
        -0.000          -0.000
  -7466083.901 9  -5804988.91947  21961362.556    21961362.2154   21961369.4164
        -0.000          -0.000
 98  5  1 19 23 30.0000000  0  8  2  4  5 16  7  9 24  8            -0.000000062
   8110106.868 8   6148559.55045  24354254.553    24354254.3104   24354266.4324
        -0.000          -0.000
   -450661.401 9    -82930.95449  20720899.766    20720900.0394   20720906.0114
        -0.000          -0.000
 -10156388.659 9  -7898720.65647  21841142.011    21841141.7424   21841148.5554
        -0.000          -0.000
  -2744786.683 9  -2131750.18045  24512273.426    24512272.9264   24512282.2204
        -0.000          -0.000
   7076629.479 9   5503083.36146  23291163.733    23291163.1034   23291171.2264
        -0.000          -0.000
  -1270916.802 9   -986512.34148  21348049.718    21348049.7034   21348056.2324
        -0.000          -0.000
  -8705932.744 9  -6562736.98049  20393383.258    20393383.2354   20393390.4464
        -0.000          -0.000
  -7515273.572 9  -5843318.53747  21952002.142    21952001.7464   21952008.9734
        -0.000          -0.000
 98  5  1 19 24  0.0000000  0  8  2  4  5 16  7  9 24  8            -0.000000083
   8198908.393 8   6217755.34445  24371153.006    24371152.5724   24371164.7644
        -0.000          -0.000
   -413981.535 9    -54349.24149  20727879.734    20727880.0074   20727885.9704
        -0.000          -0.000
 -10229899.720 9  -7956001.97147  21827153.376    21827153.0474   21827159.8474
        -0.000          -0.000
  -2739226.981 8  -2127417.91145  24513331.459    24513330.8844   24513340.1914
        -0.000          -0.000
   7144274.405 9   5555793.64746  23304036.016    23304035.4924   23304043.6594
        -0.000          -0.000
  -1243752.092 9   -965345.05648  21353218.986    21353218.9644   21353225.5134
        -0.000          -0.000
  -8744901.486 9  -6593102.20649  20385967.783    20385967.7184   20385974.8964
        -0.000          -0.000
  -7563897.799 9  -5881207.52947  21942749.218    21942748.8714   21942756.1914
        -0.000          -0.000
 98  5  1 19 24 30.0000000  0  8  2  4  5 16  7  9 24  8            -0.000000089
   8287935.167 8   6287126.56845  24388094.591    24388094.1734   24388106.1504
        -0.000          -0.000
   -376761.799 9    -25346.84949  20734962.448    20734962.6944   20734968.6554
        -0.000          -0.000
 -10303219.861 9  -8013134.52647  21813201.021    21813200.7354   21813207.4754
        -0.000          -0.000
  -2733122.261 8  -2122660.97045  24514492.985    24514492.4604   24514501.8104
        -0.000          -0.000
   7211936.672 9   5608517.42346  23316911.782    23316911.1584   23316919.3734
        -0.000          -0.000
  -1216024.471 9   -943739.14448  21358495.338    21358495.3114   21358501.8814
        -0.000          -0.000
  -8783336.294 9  -6623051.37549  20378653.864    20378653.7924   20378660.9504
        -0.000          -0.000
  -7611942.685 9  -5918645.09247  21933606.656    21933606.2904   21933613.5624
        -0.000          -0.000
 98  5  1 19 25  0.0000000  0  8  2  4  5 16  7  9 24  8            -0.000000107
   8377167.389 8   6356657.92845  24405074.940    24405074.7484   24405086.6764
        -0.000          -0.000
   -339014.596 9      4066.55249  20742145.507    20742145.7714   20742151.6984
        -0.000          -0.000
 -10376391.352 9  -8070151.25247  21799276.926    21799276.6254   21799283.3314
        -0.000          -0.000
  -2726496.965 8  -2117498.39645  24515753.621    24515753.0684   24515762.5054
        -0.000          -0.000
   7279589.528 9   5661233.88546  23329785.723    23329785.2164   23329793.4294
        -0.000          -0.000
  -1187775.296 9   -921726.81948  21363870.975    21363870.9604   21363877.5534
        -0.000          -0.000
  -8821266.937 9  -6652607.69049  20371435.828    20371435.7594   20371442.9054
        -0.000          -0.000
  -7659440.121 9  -5955656.08247  21924568.212    21924567.8874   21924575.1034
        -0.000          -0.000
 98  5  1 19 25 30.0000000  0  8  2  4  5 16  7  9 24  8            -0.000000107
   8466665.280 8   6426396.28945  24422106.087    24422105.8384   24422117.8654
        -0.000          -0.000
   -300688.827 9     33930.78849  20749438.615    20749438.9024   20749444.8034
        -0.000          -0.000
 -10449364.997 9  -8127013.80548  21785390.589    21785390.2384   21785396.9064
        -0.000          -0.000
  -2719311.328 8  -2111899.19245  24517121.069    24517120.4804   24517129.7794
        -0.000          -0.000
   7347290.546 9   5713987.87146  23342668.826    23342668.2974   23342676.5874
        -0.000          -0.000
  -1158979.892 9   -899288.86548  21369350.584    21369350.5464   21369357.1594
        -0.000          -0.000
  -8858648.673 9  -6681736.28449  20364322.286    20364322.2334   20364329.3554
        -0.000          -0.000
  -7706352.829 9  -5992211.42847  21915641.022    21915640.6984   21915647.8634
        -0.000          -0.000
 98  5  1 19 26  0.0000000  0  8  2  4  5 16  7  9 24  8            -0.000000107
   8556411.865 8   6496328.42445  24439184.578    24439184.2344   24439196.3384
        -0.000          -0.000
   -261816.693 9     64220.75749  20756835.694    20756835.9814   20756841.9274
        -0.000          -0.000
 -10522154.326 9  -8183732.73648  21771539.186    21771538.8474   21771545.5604
        -0.000          -0.000
  -2711612.818 8  -2105900.32845  24518586.036    24518585.4774   24518594.8814
        -0.000          -0.000
   7415036.689 9   5766777.00346  23355560.561    23355560.1024   23355568.2864
        -0.000          -0.000
  -1129663.234 9   -876444.74848  21374929.277    21374929.2644   21374935.8874
        -0.000          -0.000
  -8895497.904 9  -6710449.94449  20357310.011    20357309.9884   20357317.1154
        -0.000          -0.000
  -7752705.622 9  -6028330.48147  21906820.448    21906820.0544   21906827.1654
        -0.000          -0.000
 98  5  1 19 26 30.0000000  0  7  4  5 16  7  9 24  8                0.000000041
   -222494.125 9     94861.71749  20764318.559    20764318.8514   20764324.7724
        -0.000          -0.000
 -10594845.160 9  -8240374.91848  21757706.622    21757706.2934   21757712.9264
        -0.000          -0.000
  -2703501.035 8  -2099579.44545  24520129.483    24520128.9684   24520138.5144
        -0.000          -0.000
   7482735.038 9   5819528.89746  23368443.250    23368442.8044   23368450.8434
        -0.000          -0.000
  -1099914.799 9   -853264.17348  21380590.237    21380590.2164   21380596.7874
        -0.000          -0.000
  -8931891.061 9  -6738808.21949  20350384.585    20350384.5824   20350391.7174
        -0.000          -0.000
  -7798575.865 9  -6064073.51647  21898091.604    21898091.2474   21898098.3184
        -0.000          -0.000
 98  5  1 19 27  0.0000000  0  7  4  5 16  7  9 24  8               -0.000000028
   -182626.680 9    125927.25549  20771905.057    20771905.3594   20771911.2624
        -0.000          -0.000
 -10667323.491 9  -8296851.51248  21743914.416    21743914.0814   21743920.7184
        -0.000          -0.000
  -2694871.264 8  -2092854.95145  24521771.707    24521771.2114   24521780.7184
        -0.000          -0.000
   7550476.797 9   5872314.64346  23381334.130    23381333.5904   23381341.6654
        -0.000          -0.000
  -1069623.854 9   -829660.86548  21386354.415    21386354.4054   21386360.9424
        -0.000          -0.000
  -8967719.566 9  -6766726.50349  20343566.596    20343566.6124   20343573.7594
        -0.000          -0.000
  -7843845.232 9  -6099348.33447  21889477.139    21889476.7904   21889483.8444
        -0.000          -0.000
 98  5  1 19 27 30.0000000  0  7  4  5 16  7  9 24  8               -0.000000052
   -142182.017 9    157442.56849  20779601.395    20779601.6914   20779607.6234
        -0.000          -0.000
 -10739520.984 9  -8353109.27548  21730175.654    21730175.3434   21730181.9644
        -0.000          -0.000
  -2685671.770 8  -2085686.48745  24523522.262    24523521.6894   24523531.2874
        -0.000          -0.000
   7618306.761 9   5925169.10446  23394241.742    23394241.1544   23394249.3504
        -0.000          -0.000
  -1038732.135 9   -805589.42248  21392232.958    21392232.9154   21392239.4354
        -0.000          -0.000
  -9002933.237 9  -6794165.70249  20336865.681    20336865.6914   20336872.8514
        -0.000          -0.000
  -7888459.486 9  -6134112.68447  21880987.426    21880987.0384   21880994.0344
        -0.000          -0.000
 98  5  1 19 28  0.0000000  0  7  4  5 16  7  9 24  8               -0.000000060
   -101235.148 9    189349.21549  20787393.324    20787393.6274   20787399.5374
        -0.000          -0.000
 -10811519.423 9  -8409211.92248  21716474.779    21716474.4484   21716481.0654
        -0.000          -0.000
  -2675964.064 9  -2078122.00645  24525369.637    24525369.0304   24525378.5074
        -0.000          -0.000
   7686144.741 9   5978029.80946  23407150.919    23407150.3174   23407158.5834
        -0.000          -0.000
  -1007303.314 9   -781099.45548  21398213.653    21398213.6354   21398220.1624
        -0.000          -0.000
  -9037604.732 9  -6821182.42349  20330267.960    20330267.9384   20330275.0704
        -0.000          -0.000
  -7932473.086 9  -6168408.98447  21872611.894    21872611.5064   21872618.4914
        -0.000          -0.000
 98  5  1 19 28 30.0000000  0  7  4  5 16  7  9 24  8               -0.000000054
    -59797.443 9    221638.33149  20795278.711    20795278.9684   20795284.8824
        -0.000          -0.000
 -10883339.127 9  -8465175.30748  21702807.948    21702807.6094   21702814.1944
        -0.000          -0.000
  -2665743.132 9  -2070157.61045  24527314.715    24527314.0644   24527323.5794
        -0.000          -0.000
   7753975.380 9   6030884.80346  23420058.715    23420058.0524   23420066.3384
        -0.000          -0.000
   -975360.470 9   -756208.95048  21404292.167    21404292.1974   21404298.7674
        -0.000          -0.000
  -9071755.345 9  -6847793.25949  20323769.357    20323769.2874   20323776.4044
        -0.000          -0.000
  -7975890.172 9  -6202240.46847  21864349.864    21864349.4864   21864356.4544
        -0.000          -0.000
 98  5  1 19 29  0.0000000  0  8  4  5 16  7  9 24  8 30             0.000000033
    -17917.370 9    254272.14949  20803248.175    20803248.4714   20803254.4004
        -0.000          -0.000
 -10955040.787 9  -8521046.70248  21689163.528    21689163.2254   21689169.7544
        -0.000          -0.000
  -2655068.062 8  -2061839.37845  24529346.158    24529345.6574   24529355.1064
        -0.000          -0.000
   7821751.349 9   6083697.20246  23432956.123    23432955.5524   23432963.7814
        -0.000          -0.000
   -942959.578 9   -730961.53048  21410457.942    21410457.9384   21410464.5034
        -0.000          -0.000
  -9105447.011 9  -6874046.47849  20317357.943    20317357.9064   20317365.0534
        -0.000          -0.000
  -8018778.507 9  -6235659.94647  21856188.460    21856188.1064   21856195.0834
        -0.000          -0.000
  -5054698.739 8  -3513466.33645  24578794.160    24578794.3354   24578801.7304
        -0.000          -0.000
 98  5  1 19 29 30.0000000  0  8  4  5 16  7  9 24  8 30             0.000000013
     24467.608 9    287299.39949  20811313.809    20811314.1074   20811320.0174
        -0.000          -0.000
 -11026587.283 9  -8576797.19848  21675548.704    21675548.3104   21675554.8454
        -0.000          -0.000
  -2643883.575 9  -2053124.19245  24531474.397    24531473.9644   24531483.4254
        -0.000          -0.000
   7889542.581 9   6136521.49046  23445856.393    23445855.8424   23445863.9964
        -0.000          -0.000
   -910055.390 9   -705321.93148  21416719.438    21416719.4734   21416726.0364
        -0.000          -0.000
  -9138627.770 9  -6899901.58949  20311043.822    20311043.7874   20311050.9124
        -0.000          -0.000
  -8061084.469 9  -6268625.62147  21848137.789    21848137.4704   21848144.4754
        -0.000          -0.000
  -5153102.558 9  -3590144.58945  24560068.310    24560068.6084   24560076.1514
        -0.000          -0.000
 98  5  1 19 30  0.0000000  0  8  4  5 16  7  9 24  8 30             0.000000006
     67394.315 9    320748.78049  20819482.521    20819482.8324   20819488.7494
        -0.000          -0.000
 -11097942.196 9  -8632398.40748  21661970.173    21661969.8704   21661976.4254
        -0.000          -0.000
  -2632160.865 8  -2043989.61345  24533705.052    24533704.6404   24533714.0974
        -0.000          -0.000
   7957378.451 9   6189380.55046  23458765.198    23458764.6754   23458772.7214
        -0.000          -0.000
   -876619.629 9   -679268.11648  21423082.083    21423082.0894   21423088.7064
        -0.000          -0.000
  -9171269.606 9  -6925336.75749  20304832.274    20304832.2374   20304839.3564
        -0.000          -0.000
  -8102768.488 9  -6301106.67247  21840205.504    21840205.2014   21840212.1784
        -0.000          -0.000
  -5251511.808 9  -3666827.03345  24541341.369    24541341.5934   24541349.3404
        -0.000          -0.000
 98  5  1 19 30 30.0000000  0  8  4  5 16  7  9 24  8 30             0.000000002
    110854.045 9    354613.50049  20827752.676    20827752.9474   20827758.9184
        -0.000          -0.000
 -11169084.410 9  -8687833.87448  21648432.258    21648431.9534   21648438.5344
        -0.000          -0.000
  -2619905.447 9  -2034439.92745  24536037.208    24536036.8654   24536046.0274
        -0.000          -0.000
   8025249.543 9   6242267.04746  23471680.806    23471680.1144   23471688.4204
        -0.000          -0.000
   -842654.054 9   -652801.46048  21429545.465    21429545.5044   21429552.2004
        -0.000          -0.000
  -9203375.134 9  -6950354.02449  20298722.723    20298722.7374   20298729.8384
        -0.000          -0.000
  -8143852.211 9  -6333119.95147  21832387.591    21832387.2334   21832394.2414
        -0.000          -0.000
  -5349933.730 9  -3743519.35945  24522612.477    24522612.4284   24522620.3514
        -0.000          -0.000
 98  5  1 19 31  0.0000000  0  8  4  5 16  7  9 24  8 30            -0.000000007
    154830.101 9    388880.55649  20836120.984    20836121.3034   20836127.2464
        -0.000          -0.000
 -11240017.395 9  -8743106.30848  21634934.085    21634933.8474   21634940.4344
        -0.000          -0.000
  -2607136.161 9  -2024489.82645  24538467.067    24538466.8334   24538475.7494
        -0.000          -0.000
   8093140.097 9   6295168.72346  23484600.088    23484599.4804   23484607.7084
        -0.000          -0.000
   -808170.347 9   -625931.07348  21436107.558    21436107.5724   21436114.2844
        -0.000          -0.000
  -9234948.106 9  -6974956.31649  20292714.604    20292714.6064   20292721.6964
        -0.000          -0.000
  -8184348.653 9  -6364675.60747  21824681.320    21824680.9584   21824688.0304
        -0.000          -0.000
  -5448365.192 8  -3820219.15245  24503881.725    24503881.6964   24503889.2874
        -0.000          -0.000
 98  5  1 19 31 30.0000000  0  8  4  5 16  7  9 24  8 30            -0.000000006
    199319.583 9    423547.68049  20844587.085    20844587.4224   20844593.3074
        -0.000          -0.000
 -11310718.414 9  -8798197.99548  21621480.110    21621479.8914   21621486.4534
        -0.000          -0.000
  -2593826.517 9  -2014118.66445  24540999.764    24540999.5494   24541008.4854
        -0.000          -0.000
   8161059.219 9   6348092.66446  23497524.722    23497524.1524   23497532.3644
        -0.000          -0.000
   -773158.497 9   -598649.14048  21442770.126    21442770.1494   21442776.8734
        -0.000          -0.000
  -9265981.545 9  -6999138.19249  20286809.165    20286809.1544   20286816.1864
        -0.000          -0.000
  -8224236.013 9  -6395756.66847  21817090.970    21817090.6734   21817097.7064
        -0.000          -0.000
  -5546788.091 8  -3896912.24945  24485152.199    24485152.4324   24485159.8404
        -0.000          -0.000
 98  5  1 19 32  0.0000000  0  8  4  5 16  7  9 24  8 30            -0.000000011
    244302.989 9    458599.68249  20853147.199    20853147.5264   20853153.4154
        -0.000          -0.000
 -11381184.448 9  -8853106.56948  21608071.011    21608070.6544   21608077.2564
        -0.000          -0.000
  -2579982.005 9  -2003330.72645  24543634.449    24543634.1864   24543642.6944
        -0.000          -0.000
   8228985.594 9   6401022.24546  23510450.643    23510450.1244   23510458.4764
        -0.000          -0.000
   -737627.291 9   -570962.50648  21449531.565    21449531.5984   21449538.2894
        -0.000          -0.000
  -9296483.451 9  -7022905.88549  20281004.894    20281004.8524   20281011.8474
        -0.000          -0.000
  -8263528.986 9  -6426374.55847  21809613.780    21809613.4994   21809620.4864
        -0.000          -0.000
  -5645236.955 8  -3973625.58145  24466417.829    24466418.0914   24466425.7654
        -0.000          -0.000
 98  5  1 19 32 30.0000000  0  8  4  5 16  7  9 24  8 30            -0.000000008
    289780.111 9    494036.40049  20861801.177    20861801.4754   20861807.4124
        -0.000          -0.000
 -11451420.773 9  -8907836.15748  21594705.443    21594705.1174   21594711.6634
        -0.000          -0.000
  -2565603.454 8  -1992126.68245  24546370.574    24546370.2414   24546378.9674
        -0.000          -0.000
   8296937.587 9   6453971.79146  23523381.439    23523380.9024   23523389.2994
        -0.000          -0.000
   -701578.257 9   -542872.37548  21456391.495    21456391.4994   21456398.2014
        -0.000          -0.000
  -9326437.977 9  -7046247.05349  20275304.726    20275304.6894   20275311.6594
        -0.000          -0.000
  -8302249.024 9  -6456546.00347  21802245.669    21802245.3094   21802252.3364
        -0.000          -0.000
  -5743701.823 8  -4050351.36245  24447680.631    24447680.8644   24447688.3584
        -0.000          -0.000
 98  5  1 19 33  0.0000000  0  8  4  5 16  7  9 24  8 30            -0.000000010
    335726.209 9    529838.54749  20870544.408    20870544.7134   20870550.6514
        -0.000          -0.000
 -11521473.148 9  -8962422.40948  21581374.897    21581374.5954   21581381.0844
        -0.000          -0.000
  -2550719.009 9  -1980528.40345  24549202.884    24549202.5414   24549211.5864
        -0.000          -0.000
   8364885.724 9   6506918.33246  23536311.723    23536311.1314   23536319.3964
        -0.000          -0.000
   -665042.216 9   -514402.76048  21463344.154    21463344.1564   21463350.8184
        -0.000          -0.000
  -9355863.930 9  -7069176.34449  20269705.120    20269705.1054   20269712.1104
        -0.000          -0.000
  -8340411.715 9  -6486283.16547  21794983.510    21794983.1974   21794990.2184
        -0.000          -0.000
  -5842205.275 8  -4127107.19445  24428936.080    24428936.0804   24428943.8494
        -0.000          -0.000
 98  5  1 19 33 30.0000000  0  8  4  5 16  7  9 24  8 30            -0.000000011
    382150.173 9    566013.06549  20879378.572    20879378.9074   20879384.8854
        -0.000          -0.000
 -11591335.372 9  -9016860.47248  21568080.604    21568080.2294   21568086.7164
        -0.000          -0.000
  -2535325.029 9  -1968533.07045  24552132.311    24552131.9924   24552140.9864
        -0.000          -0.000
   8432838.599 9   6559868.57146  23549242.766    23549242.1984   23549250.3964
        -0.000          -0.000
   -628004.066 9   -485541.88748  21470392.314    21470392.2774   21470398.9244
        -0.000          -0.000
  -9384753.181 9  -7091687.42149  20264207.679    20264207.6514   20264214.6844
        -0.000          -0.000
  -8378009.275 9  -6515579.94947  21787828.917    21787828.5704   21787835.6354
        -0.000          -0.000
  -5940741.633 8  -4203888.69745  24410184.908    24410185.1304   24410193.0684
        -0.000          -0.000
 98  5  1 19 34  0.0000000  0  8  4  5 16  7  9 24  8 30            -0.000000025
    429065.633 9    602570.56449  20888306.269    20888306.5674   20888312.6004
        -0.000          -0.000
 -11660997.030 9  -9071142.26448  21554824.341    21554823.9964   21554830.5034
        -0.000          -0.000
  -2519434.770 9  -1956151.02245  24555156.177    24555155.9994   24555164.8594
        -0.000          -0.000
   8500797.795 9   6612823.73746  23562175.050    23562174.4064   23562182.7094
        -0.000          -0.000
   -590467.767 9   -456292.85048  21477535.238    21477535.2524   21477541.8794
        -0.000          -0.000
  -9413101.461 9  -7113776.96749  20258813.163    20258813.1264   20258820.1304
        -0.000          -0.000
  -8415035.640 9  -6544431.66447  21780783.039    21780782.6984   21780789.7854
        -0.000          -0.000
  -6039311.364 9  -4280696.20145  24391427.584    24391427.9964   24391435.6484
        -0.000          -0.000
 98  5  1 19 34 30.0000000  0  8  4  5 16  7  9 24  8 30            -0.000000032
    476502.793 9    639534.58049  20897333.232    20897333.5374   20897339.5674
        -0.000          -0.000
 -11730436.876 9  -9125251.21348  21541610.266    21541609.9544   21541616.4754
        -0.000          -0.000
  -2503024.987 8  -1943364.14645  24558278.930    24558278.5884   24558287.5474
        -0.000          -0.000
   8568787.542 9   6665802.68946  23575113.115    23575112.5394   23575120.8614
        -0.000          -0.000
   -552411.007 9   -426638.26448  21484777.330    21484777.3084   21484783.8704
        -0.000          -0.000
  -9440880.635 9  -7135423.05449  20253526.926    20253526.9054   20253533.9074
        -0.000          -0.000
  -8451457.791 9  -6572812.54847  21773852.109    21773851.7464   21773858.9224
        -0.000          -0.000
  -6137866.205 9  -4357492.09445  24372673.118    24372673.5694   24372681.3204
        -0.000          -0.000
 98  5  1 19 35  0.0000000  0  8  4  5 16  7  9 24  8 30            -0.000000040
    524458.172 9    676902.40649  20906458.847    20906459.1504   20906465.1894
        -0.000          -0.000
 -11799649.759 9  -9179183.31048  21528439.496    21528439.1914   21528445.6734
        -0.000          -0.000
  -2486094.166 9  -1930171.27945  24561500.730    24561500.4284   24561509.1764
        -0.000          -0.000
   8636790.926 9   6718792.28946  23588053.797    23588053.2014   23588061.3834
        -0.000          -0.000
   -513838.078 9   -396581.46048  21492117.540    21492117.5074   21492124.0534
        -0.000          -0.000
  -9468112.414 9  -7156642.60049  20248344.905    20248344.8734   20248351.8694
        -0.000          -0.000
  -8487243.445 9  -6600697.46747  21767042.235    21767041.9314   21767049.0764
        -0.000          -0.000
  -6236399.879 9  -4434271.49745  24353922.790    24353923.2004   24353931.0494
        -0.000          -0.000
 98  5  1 19 35 30.0000000  0  9  4  5 16  7  9 24  8 30 10         -0.000000005
    572908.556 9    714655.94449  20915678.635    20915678.9374   20915685.0184
        -0.000          -0.000
 -11868642.490 9  -9232943.86548  21515310.623    21515310.2914   21515316.7744
        -0.000          -0.000
  -2468662.802 9  -1916588.38845  24564817.683    24564817.3714   24564826.3544
        -0.000          -0.000
   8704800.731 9   6771786.89046  23600995.554    23600995.0114   23601003.2814
        -0.000          -0.000
   -474772.845 9   -366141.04048  21499551.376    21499551.3704   21499558.0034
        -0.000          -0.000
  -9494833.114 9  -7177463.90149  20243260.108    20243260.0834   20243267.0524
        -0.000          -0.000
  -8522416.846 9  -6628105.31147  21760348.913    21760348.6844   21760355.7684
        -0.000          -0.000
  -6334935.827 9  -4511052.67545  24335171.961    24335172.4514   24335180.2354
        -0.000          -0.000
  -2838015.286 8  -2002720.08745  24614530.465    24614529.8574   24614544.8954
        -0.000          -0.000
 98  5  1 19 36  0.0000000  0  9  4  5 16  7  9 24  8 30 10         -0.000000003
    621822.355 9    752770.58049  20924986.635    20924986.9434   20924993.0004
        -0.000          -0.000
 -11937434.435 9  -9286547.96548  21502219.953    21502219.6434   21502226.1614
        -0.000          -0.000
  -2450736.695 8  -1902619.98945  24568229.103    24568228.7294   24568237.7964
        -0.000          -0.000
   8772800.414 9   6824773.59946  23613935.570    23613935.0134   23613943.3454
        -0.000          -0.000
   -435244.609 9   -335339.85248  21507073.337    21507073.3234   21507079.9834
        -0.000          -0.000
  -9521062.257 9  -7197902.18149  20238268.870    20238268.8584   20238275.7334
        -0.000          -0.000
  -8557007.959 9  -6655059.42847  21753766.518    21753766.1614   21753773.2764
        -0.000          -0.000
  -6433489.931 9  -4587847.99645  24316417.840    24316418.1844   24316425.9884
        -0.000          -0.000
  -2931862.908 8  -2075847.86445  24596671.725    24596670.9984   24596685.9534
        -0.000          -0.000
 98  5  1 19 36 30.0000000  0  9  4  5 16  7  9 24  8 30 10          0.000000004
    671213.865 9    791257.47049  20934385.557    20934385.8364   20934391.9104
        -0.000          -0.000
 -12005999.675 9  -9339975.40148  21489172.439    21489172.0964   21489178.6554
        -0.000          -0.000
  -2432275.598 9  -1888234.69445  24571742.072    24571741.7484   24571750.8644
        -0.000          -0.000
   8840824.141 9   6877779.02046  23626879.980    23626879.4114   23626887.9124
        -0.000          -0.000
   -395205.508 9   -304140.58048  21514692.502    21514692.4784   21514699.1944
        -0.000          -0.000
  -9546759.381 9  -7217925.88349  20233378.889    20233378.8534   20233385.7604
        -0.000          -0.000
  -8590988.183 9  -6681537.52647  21747300.231    21747299.9174   21747307.0204
        -0.000          -0.000
  -6532018.963 9  -4664623.81045  24297668.208    24297668.6944   24297676.3484
        -0.000          -0.000
  -3025828.953 8  -2149067.89645  24578790.540    24578789.7594   24578804.5884
        -0.000          -0.000
 98  5  1 19 37  0.0000000  0  9  4  5 16  7  9 24  8 30 10          0.000000006
    721050.336 9    830091.07549  20943869.124    20943869.3914   20943875.4934
        -0.000          -0.000
 -12074342.877 9  -9393229.83048  21476167.149    21476166.7994   21476173.4144
        -0.000          -0.000
  -2413293.319 9  -1873443.28945  24575354.372    24575354.0764   24575363.0424
        -0.000          -0.000
   8908870.840 9   6930802.37846  23639828.921    23639828.3374   23639836.7744
        -0.000          -0.000
   -354653.241 9   -272541.44048  21522409.339    21522409.3564   21522416.0744
        -0.000          -0.000
  -9571935.995 9  -7237544.00749  20228587.859    20228587.8504   20228594.7604
        -0.000          -0.000
  -8624371.241 9  -6707550.30447  21740947.813    21740947.4554   21740954.3414
        -0.000          -0.000
  -6630547.271 9  -4741399.04345  24278918.821    24278919.3544   24278927.0084
        -0.000          -0.000
  -3119929.309 8  -2222392.60345  24560883.670    24560882.7854   24560897.6584
        -0.000          -0.000
 98  5  1 19 37 30.0000000  0  9  4  5 16  7  9 24  8 30 10         -0.000000007
    771311.804 9    869255.84249  20953433.542    20953433.8494   20953439.9594
        -0.000          -0.000
 -12142475.489 9  -9446320.15848  21463201.934    21463201.5854   21463208.2234
        -0.000          -0.000
  -2393802.300 9  -1858255.43445  24579063.284    24579062.9384   24579072.0084
        -0.000          -0.000
   8976937.603 9   6983841.35446  23652781.752    23652781.1504   23652789.5774
        -0.000          -0.000
   -313605.329 9   -240556.09048  21530220.520    21530220.4794   21530227.2574
        -0.000          -0.000
  -9596584.478 9  -7256750.59949  20223897.351    20223897.3474   20223904.2914
        -0.000          -0.000
  -8657189.112 9  -6733122.68047  21734702.807    21734702.4484   21734709.3344
        -0.000          -0.000
  -6729104.209 9  -4818196.57345  24260163.909    24260164.3984   24260172.1424
        -0.000          -0.000
  -3214155.865 8  -2295815.68445  24542952.610    24542951.8494   24542966.8184
        -0.000          -0.000
 98  5  1 19 38  0.0000000  0  9  4  5 16  7  9 24  8 30 10         -0.000000019
    822010.856 9    908761.59149  20963081.296    20963081.6114   20963087.7054
        -0.000          -0.000
 -12210373.675 9  -9499227.81948  21450281.295    21450280.9604   21450287.6404
        -0.000          -0.000
  -2373789.564 8  -1842661.10345  24582871.587    24582871.3224   24582880.2704
        -0.000          -0.000
   9045033.987 9   7036903.41945  23665740.113    23665739.5094   23665747.9374
        -0.000          -0.000
   -272049.044 9   -208174.59848  21538128.333    21538128.3244   21538135.1134
        -0.000          -0.000
  -9620674.864 9  -7275522.30649  20219313.084    20219313.0714   20219320.0564
        -0.000          -0.000
  -8689419.950 9  -6758237.62647  21728569.532    21728569.2144   21728576.0064
        -0.000          -0.000
  -6827662.991 9  -4894995.56545  24241408.867    24241409.1624   24241416.8484
        -0.000          -0.000
  -3308476.536 8  -2369312.06045  24525003.755    24525002.8644   24525017.8404
        -0.000          -0.000
 98  5  1 19 38 30.0000000  0  9  4  5 16  7  9 24  8 30 10         -0.000000035
    873160.659 9    948618.57449  20972814.786    20972815.1224   20972821.1994
        -0.000          -0.000
 -12278035.488 9  -9551951.28948  21437405.668    21437405.3234   21437412.0444
        -0.000          -0.000
  -2353271.121 9  -1826672.67545  24586775.886    24586775.7504   24586784.8234
        -0.000          -0.000
   9113143.718 9   7089975.87045  23678700.974    23678700.4074   23678708.8684
        -0.000          -0.000
   -229980.438 9   -175393.89448  21546133.762    21546133.7424   21546140.5584
        -0.000          -0.000
  -9644210.932 9  -7293862.07649  20214834.263    20214834.2524   20214841.2634
        -0.000          -0.000
  -8721048.001 9  -6782882.86047  21722550.930    21722550.5714   21722557.3904
        -0.000          -0.000
  -6926234.069 8  -4971804.14245  24222651.353    24222651.6184   24222659.2894
        -0.000          -0.000
  -3402875.663 8  -2442869.59145  24507039.787    24507038.9414   24507054.0704
        -0.000          -0.000
 98  5  1 19 39  0.0000000  0  9  4  5 16  7  9 24  8 30 10         -0.000000040
    924800.336 9    988857.27249  20982641.537    20982641.8394   20982647.9244
        -0.000          -0.000
 -12345430.670 9  -9604466.99948  21424580.723    21424580.3924   21424587.1324
        -0.000          -0.000
  -2332227.338 8  -1810274.91845  24590780.319    24590780.1574   24590789.2144
        -0.000          -0.000
   9181278.958 9   7143068.19745  23691666.674    23691666.2114   23691674.6224
        -0.000          -0.000
   -187406.926 9   -142219.76848  21554235.286    21554235.2834   21554242.0764
        -0.000          -0.000
  -9667181.724 9  -7311761.37849  20210463.049    20210463.0284   20210470.0434
        -0.000          -0.000
  -8752048.474 9  -6807039.07747  21716651.776    21716651.3754   21716658.2264
        -0.000          -0.000
  -7024797.965 9  -5048607.10945  24203895.235    24203895.4724   24203903.1134
        -0.000          -0.000
  -3497312.925 8  -2516456.82845  24489068.751    24489067.8714   24489083.1054
        -0.000          -0.000
 98  5  1 19 39 30.0000000  0  9  4  5 16  7  9 24  8 30 10         -0.000000055
    976920.434 9   1029470.33249  20992559.693    20992559.9934   20992566.0474
        -0.000          -0.000
 -12412578.568 9  -9656790.01548  21411802.914    21411802.5874   21411809.3314
        -0.000          -0.000
  -2310689.973 8  -1793492.54045  24594878.659    24594878.3214   24594887.5284
        -0.000          -0.000
   9249401.089 9   7196150.31745  23704629.914    23704629.4364   23704637.7864
        -0.000          -0.000
   -144381.351 9   -108693.37248  21562422.816    21562422.7854   21562429.6244
        -0.000          -0.000
  -9689622.088 9  -7329247.35249  20206192.821    20206192.7844   20206199.8154
        -0.000          -0.000
  -8782449.140 9  -6830727.92047  21710866.649    21710866.3004   21710873.1384
        -0.000          -0.000
  -7123372.309 9  -5125418.21245  24185137.117    24185137.3584   24185144.9304
        -0.000          -0.000
  -3591816.204 8  -2590095.53545  24471085.494    24471084.6404   24471099.6764
        -0.000          -0.000
 98  5  1 19 40  0.0000000  0  9  4  5 16  7  9 24  8 30 10         -0.000000072
   1029533.033 9   1070467.15449  21002571.575    21002571.8824   21002577.8964
        -0.000          -0.000
 -12479480.864 9  -9708921.65948  21399071.838    21399071.5114   21399078.2094
        -0.000          -0.000
  -2288655.948 8  -1776323.16745  24599071.461    24599071.2074   24599080.4904
        -0.000          -0.000
   9317510.531 9   7249222.53945  23717590.786    23717590.2744   23717598.6844
        -0.000          -0.000
   -100883.295 9    -74798.81648  21570700.147    21570700.1454   21570707.0494
        -0.000          -0.000
  -9711533.269 9  -7346320.98149  20202023.272    20202023.2404   20202030.2184
        -0.000          -0.000
  -8812230.103 9  -6853933.86347  21705199.601    21705199.1834   21705206.0454
        -0.000          -0.000
  -7221933.306 9  -5202218.91045  24166381.368    24166381.7424   24166389.4314
        -0.000          -0.000
  -3686374.126 8  -2663776.80845  24453091.634    24453090.7684   24453105.5384
        -0.000          -0.000
 98  5  1 19 40 30.0000000  0  9  4  5 16  7  9 24  8 30 10         -0.000000076
   1082658.273 9   1111863.43848  21012680.970    21012681.2644   21012687.3044
        -0.000          -0.000
 -12546132.339 9  -9760857.85248  21386388.504    21386388.1624   21386394.8194
        -0.000          -0.000
  -2266096.776 9  -1758744.60045  24603364.374    24603364.0664   24603373.3514
        -0.000          -0.000
   9385634.622 8   7302306.16845  23730554.425    23730553.9394   23730562.3704
        -0.000          -0.000
    -56888.277 9    -40517.01348  21579072.163    21579072.1794   21579079.0554
        -0.000          -0.000
  -9732898.589 9  -7362969.25749  20197957.589    20197957.5554   20197964.5044
        -0.000          -0.000
  -8841373.806 9  -6876643.24147  21699653.846    21699653.3934   21699660.2964
        -0.000          -0.000
  -7320465.712 9  -5278997.32545  24147631.422    24147631.5734   24147639.3414
        -0.000          -0.000
  -3780963.450 8  -2737482.57045  24435091.680    24435090.6494   24435105.5744
        -0.000          -0.000
 98  5  1 19 41  0.0000000  0  9  4  5 16  7  9 24  8 30 10         -0.000000076
   1136267.315 9   1153636.71448  21022882.444    21022882.7314   21022888.7434
        -0.000          -0.000
 -12612543.915 9  -9812607.12148  21373750.731    21373750.4314   21373757.0824
        -0.000          -0.000
  -2243023.071 8  -1740765.05845  24607755.280    24607754.8764   24607763.8784
        -0.000          -0.000
   9453778.390 8   7355405.11145  23743521.695    23743521.3024   23743529.7194
        -0.000          -0.000
    -12418.515 9     -5865.28948  21587534.558    21587534.5214   21587541.3894
        -0.000          -0.000
  -9753731.699 9  -7379202.82949  20193993.119    20193993.1094   20194000.0534
        -0.000          -0.000
  -8869904.459 9  -6898874.92247  21694224.586    21694224.2014   21694231.0954
        -0.000          -0.000
  -7418965.401 8  -5355750.26645  24128887.396    24128887.5594   24128895.4054
        -0.000          -0.000
  -3875612.880 8  -2811235.18045  24417080.434    24417079.5174   24417094.0234
        -0.000          -0.000
 98  5  1 19 41 30.0000000  0  9  4  5 16  7  9 24  8 30 10         -0.000000077
   1190327.809 9   1195761.76648  21033169.759    21033170.0694   21033176.0744
        -0.000          -0.000
 -12678743.447 9  -9864191.15148  21361153.367    21361153.0224   21361159.6574
        -0.000          -0.000
  -2219447.078 8  -1722394.13045  24612241.507    24612241.0204   24612249.9744
        -0.000          -0.000
   9521927.057 8   7408507.90745  23756489.989    23756489.5644   23756498.1194
        -0.000          -0.000
     32535.496 9     29163.77648  21596089.135    21596089.0694   21596095.9004
        -0.000          -0.000
  -9774031.021 9  -7395020.45949  20190130.325    20190130.3344   20190137.2344
        -0.000          -0.000
  -8897842.563 9  -6920644.88247  21688908.259    21688907.8524   21688914.7124
        -0.000          -0.000
  -7517441.634 8  -5432484.92645  24110147.568    24110147.9624   24110155.9304
        -0.000          -0.000
  -3970332.890 8  -2885042.77545  24399055.860    24399054.8664   24399069.1014
        -0.000          -0.000
 98  5  1 19 42  0.0000000  0  9  4  5 16  7  9 24  8 30 10         -0.000000067
   1244846.848 9   1238244.12848  21043544.396    21043544.6974   21043550.7074
        -0.000          -0.000
 -12744724.675 9  -9915605.08148  21348597.489    21348597.2044   21348603.7894
        -0.000          -0.000
  -2195346.450 8  -1703614.40145  24616827.966    24616827.4544   24616836.1984
        -0.000          -0.000
   9590093.758 8   7461624.76445  23769461.753    23769461.1654   23769469.8524
        -0.000          -0.000
     77995.890 9     64587.42748  21604739.954    21604739.9004   21604746.7554
        -0.000          -0.000
  -9793771.978 9  -7410402.99649  20186373.726    20186373.7044   20186380.6164
        -0.000          -0.000
  -8925173.457 9  -6941941.67947  21683707.268    21683706.9424   21683713.7924
        -0.000          -0.000
  -7615877.268 9  -5509187.95345  24091415.858    24091416.2894   24091424.2744
        -0.000          -0.000
  -4065102.547 8  -2958889.03845  24381021.614    24381020.7314   24381034.6564
        -0.000          -0.000
 98  5  1 19 42 30.0000000  0  9  4  5 16  7  9 24  8 30 10         -0.000000063
   1299800.582 9   1281065.20848  21054001.779    21054002.0984   21054008.0944
        -0.000          -0.000
 -12810489.704 9  -9966850.55248  21336082.810    21336082.5284   21336089.0724
        -0.000          -0.000
  -2170734.005 8  -1684435.90445  24621511.631    24621511.2624   24621520.0424
        -0.000          -0.000
   9658256.389 8   7514738.40345  23782432.680    23782432.0744   23782440.7884
        -0.000          -0.000
    123925.786 9    100376.92148  21613480.144    21613480.1094   21613486.9414
        -0.000          -0.000
  -9812973.067 9  -7425364.86449  20182719.822    20182719.8244   20182726.7814
        -0.000          -0.000
  -8951916.628 9  -6962780.52347  21678618.264    21678617.9354   21678624.7824
        -0.000          -0.000
  -7714287.626 9  -5585871.28945  24072689.086    24072689.4144   24072697.2414
        -0.000          -0.000
  -4159955.635 8  -3032800.32045  24362971.312    24362970.6274   24362984.4464
        -0.000          -0.000
 98  5  1 19 43  0.0000000  0  9  4  5 16  7  9 24  8 30 10         -0.000000063
   1355197.353 9   1324231.52248  21064543.405    21064543.7104   21064549.7004
        -0.000          -0.000
 -12876012.841 9 -10017907.52248  21323614.171    21323613.8994   21323620.3964
        -0.000          -0.000
  -2145599.942 8  -1664850.94245  24626294.433    24626294.0024   24626302.8514
        -0.000          -0.000
   9726412.532 8   7567846.99645  23795402.502    23795401.9964   23795410.4854
        -0.000          -0.000
    170324.106 9    136531.42448  21622309.533    21622309.5064   21622316.2964
        -0.000          -0.000
  -9831619.365 9  -7439894.42649  20179171.516    20179171.5004   20179178.4624
        -0.000          -0.000
  -8978048.826 9  -6983143.27647  21673645.449    21673645.1484   21673651.9774
        -0.000          -0.000
  -7812660.936 9  -5662525.74645  24053969.296    24053969.6334   24053977.2624
        -0.000          -0.000
  -4254882.536 8  -3106769.11645  24344907.192    24344906.4824   24344920.0044
        -0.000          -0.000
 98  5  1 19 43 30.0000000  0  9  4  5 16  7  9 24  8 30 10         -0.000000055
   1411066.192 9   1367765.66448  21075174.868    21075175.1804   21075181.1544
        -0.000          -0.000
 -12941269.064 9 -10068756.51548  21311196.351    21311196.0364   21311202.5714
        -0.000          -0.000
  -2119915.421 9  -1644837.04345  24631182.124    24631181.7374   24631190.4974
        -0.000          -0.000
   9794581.595 8   7620965.67045  23808374.836    23808374.2554   23808382.7414
        -0.000          -0.000
    217209.635 9    173065.56548  21631231.627    21631231.6104   21631238.3514
        -0.000          -0.000
  -9849694.159 9  -7453978.66549  20175731.946    20175731.9314   20175738.9094
        -0.000          -0.000
  -9003538.989 9  -7003005.74047  21668794.747    21668794.4464   21668801.4234
        -0.000          -0.000
  -7910990.806 9  -5739146.37345  24035257.663    24035258.1274   24035265.5304
        -0.000          -0.000
  -4349856.822 8  -3180774.85545  24326834.042    24326833.3554   24326847.0224
        -0.000          -0.000
 98  5  1 19 44  0.0000000  0  9  4  5 16  7  9 24  8 30 10         -0.000000046
   1467406.225 9   1411666.98848  21085896.041    21085896.3284   21085902.3384
        -0.000          -0.000
 -13006257.614 9 -10119396.92448  21298829.371    21298829.1174   21298835.6384
        -0.000          -0.000
  -2093688.096 8  -1624400.18445  24636173.059    24636172.7524   24636181.5344
        -0.000          -0.000
   9862764.466 8   7674095.09945  23821349.558    23821349.0924   23821357.4664
        -0.000          -0.000
    264547.749 9    209952.38048  21640239.887    21640239.8344   21640246.5314
        -0.000          -0.000
  -9867225.343 9  -7467639.30449  20172395.863    20172395.8714   20172402.8484
        -0.000          -0.000
  -9028375.447 9  -7022358.82247  21664068.559    21664068.2884   21664075.2374
        -0.000          -0.000
  -8009296.356 9  -5815748.03245  24016550.844    24016551.2974   24016558.6174
        -0.000          -0.000
  -4444888.542 8  -3254825.32945  24308749.761    24308749.0034   24308762.9514
        -0.000          -0.000
 98  5  1 19 44 30.0000000  0  8  4  5  7  9 24  8 30 10            -0.000000036
   1524198.842 9   1455920.96448  21096703.290    21096703.6164   21096709.5964
        -0.000          -0.000
 -13070979.236 9 -10169829.34448  21286513.324    21286513.0344   21286519.5514
        -0.000          -0.000
   9930958.038 8   7727232.85945  23834326.594    23834326.0194   23834334.2894
        -0.000          -0.000
    312326.870 9    247182.82948  21649331.979    21649331.9594   21649338.6374
        -0.000          -0.000
  -9884232.250 9  -7480891.41849  20169159.616    20169159.5814   20169166.5214
        -0.000          -0.000
  -9052564.274 9  -7041207.25647  21659465.606    21659465.2844   21659472.2704
        -0.000          -0.000
  -8107594.437 9  -5892343.86745  23997845.364    23997845.7674   23997852.9874
        -0.000          -0.000
  -4539979.820 8  -3328922.21145  24290654.443    24290653.5214   24290667.6044
        -0.000          -0.000
 98  5  1 19 45  0.0000000  0  8  4  5  7  9 24  8 30 10            -0.000000046
   1581441.542 9   1500525.65848  21107596.333    21107596.6254   21107602.5614
        -0.000          -0.000
 -13135425.326 9 -10220047.06448  21274249.637    21274249.3444   21274255.8474
        -0.000          -0.000
   9999175.286 9   7780389.08445  23847308.034    23847307.3934   23847315.7044
        -0.000          -0.000
    360555.015 9    284763.16648  21658509.504    21658509.4664   21658516.1244
        -0.000          -0.000
  -9900715.143 9  -7493735.21149  20166023.028    20166022.9834   20166029.9014
        -0.000          -0.000
  -9076115.411 9  -7059558.79847  21654983.883    21654983.5774   21654990.6094
        -0.000          -0.000
  -8205893.153 9  -5968940.20245  23979139.588    23979140.0574   23979147.1134
        -0.000          -0.000
  -4635119.201 8  -3403056.59245  24272549.890    24272548.9454   24272562.9504
        -0.000          -0.000
 98  5  1 19 45 30.0000000  0  8  4  5  7  9 24  8 30 10            -0.000000039
   1639157.471 9   1545499.09748  21118579.322    21118579.6424   21118585.5524
        -0.000          -0.000
 -13199566.268 9 -10270027.00848  21262044.002    21262043.7434   21262050.2124
        -0.000          -0.000
  10067452.116 8   7833591.69845  23860300.659    23860300.1284   23860308.4944
        -0.000          -0.000
    409269.976 9    322722.84148  21667779.692    21667779.7184   21667786.3834
        -0.000          -0.000
  -9916654.282 9  -7506155.30449  20162989.906    20162989.8824   20162996.7324
        -0.000          -0.000
  -9099010.590 9  -7077399.19647  21650627.161    21650626.8234   21650633.8564
        -0.000          -0.000
  -8304159.928 9  -6045511.63045  23960439.988    23960440.3924   23960447.4494
        -0.000          -0.000
  -4730277.163 8  -3477205.45345  24254441.626    24254440.8414   24254454.7784
        -0.000          -0.000
 98  5  1 19 46  0.0000000  0  8  4  5  7  9 24  8 30 10            -0.000000028
   1697296.877 9   1590802.52348  21129642.835    21129643.1924   21129649.1364
        -0.000          -0.000
 -13263429.997 9 -10319790.93448  21249891.160    21249890.9174   21249897.3084
        -0.000          -0.000
  10135754.822 8   7886814.49745  23873298.287    23873297.8304   23873306.1504
        -0.000          -0.000
    458442.412 9    361038.99548  21677136.924    21677136.9304   21677143.5964
        -0.000          -0.000
  -9932070.917 9  -7518168.24249  20160056.253    20160056.2134   20160063.0404
        -0.000          -0.000
  -9121288.952 9  -7094758.96247  21646387.739    21646387.3584   21646394.4164
        -0.000          -0.000
  -8402406.836 9  -6122067.58145  23941744.049    23941744.5554   23941751.5804
        -0.000          -0.000
  -4825475.400 8  -3551385.67445  24236325.978    24236325.1014   24236339.0294
        -0.000          -0.000
 98  5  1 19 46 30.0000000  0  8  4  5  7  9 24  8 30 10            -0.000000023
   1755839.995 9   1636420.52348  21140783.306    21140783.6104   21140789.5704
        -0.000          -0.000
 -13327028.022 9 -10369347.82548  21237788.933    21237788.6254   21237794.9864
        -0.000          -0.000
  10204073.914 9   7940050.11045  23886299.046    23886298.4904   23886306.7934
        -0.000          -0.000
    508078.872 9    399716.71148  21686582.380    21686582.4114   21686589.1794
        -0.000          -0.000
  -9946972.093 9  -7529779.52949  20157220.627    20157220.5874   20157227.4314
        -0.000          -0.000
  -9142987.064 9  -7111666.58747  21642258.639    21642258.3564   21642265.4244
        -0.000          -0.000
  -8500642.031 9  -6198614.41245  23923050.635    23923051.1064   23923058.0364
        -0.000          -0.000
  -4920724.053 8  -3625605.21345  24218200.731    24218199.8604   24218213.6704
        -0.000          -0.000
 98  5  1 19 47  0.0000000  0  8  4  5  7  9 24  8 30 10            -0.000000030
   1814788.540 9   1682354.44248  21152000.880    21152001.1644   21152007.1074
        -0.000          -0.000
 -13390379.586 9 -10418712.66648  21225733.519    21225733.2404   21225739.5924
        -0.000          -0.000
  10272397.845 9   7993289.46345  23899300.720    23899300.2484   23899308.6624
        -0.000          -0.000
    558167.252 9    438746.58048  21696113.878    21696113.9234   21696120.7124
        -0.000          -0.000
  -9961373.284 9  -7541001.21649  20154480.141    20154480.1044   20154486.9544
        -0.000          -0.000
  -9164113.210 9  -7128128.51847  21638238.453    21638238.1894   21638245.2504
        -0.000          -0.000
  -8598869.874 9  -6275155.49246  23904358.470    23904358.8274   23904365.8904
        -0.000          -0.000
  -5016033.747 8  -3699872.29345  24200063.596    24200062.7064   24200076.5774
        -0.000          -0.000
 98  5  1 19 47 30.0000000  0  8  4  5  7  9 24  8 30 10            -0.000000026
   1874170.113 9   1728625.78748  21163300.808    21163301.1114   21163307.0034
        -0.000          -0.000
 -13453475.705 9 -10467878.45148  21213726.724    21213726.4334   21213732.7824
        -0.000          -0.000
  10340736.961 9   8046540.63045  23912305.343    23912304.8864   23912313.2034
        -0.000          -0.000
    608721.725 9    478139.64248  21705734.084    21705734.1234   21705740.9104
        -0.000          -0.000
  -9975254.007 9  -7551817.34149  20151838.664    20151838.6524   20151845.5154
        -0.000          -0.000
  -9184624.293 9  -7144111.17947  21634335.329    21634335.0424   21634342.1464
        -0.000          -0.000
  -8697046.467 9  -6351656.65946  23885676.042    23885676.3614   23885683.4204
        -0.000          -0.000
  -5111364.749 8  -3774155.96245  24181922.595    24181921.7544   24181935.4794
        -0.000          -0.000
 98  5  1 19 48  0.0000000  0  8  4  5  7  9 24  8 30 10            -0.000000027
   1933968.714 9   1775222.08548  21174680.166    21174680.4444   21174686.3504
        -0.000          -0.000
 -13516346.463 9 -10516868.64448  21201762.809    21201762.4954   21201768.8124
        -0.000          -0.000
  10409058.616 9   8099778.20045  23925306.542    23925306.0954   23925314.5104
        -0.000          -0.000
    659711.135 9    517871.60648  21715436.997    21715437.0664   21715443.9124
        -0.000          -0.000
  -9988630.296 9  -7562240.40449  20149293.261    20149293.2254   20149300.0884
        -0.000          -0.000
  -9204546.071 9  -7159634.65647  21630544.344    21630544.0464   21630551.1484
        -0.000          -0.000
  -8795195.576 9  -6428136.40646  23866998.723    23866999.1014   23867006.1684
        -0.000          -0.000
  -5206729.135 8  -3848465.64945  24163775.260    24163774.4874   24163787.9594
        -0.000          -0.000
 98  5  1 19 48 30.0000000  0  8  4  5  7  9 24  8 30 10            -0.000000040
   1994200.126 9   1822155.64048  21186141.761    21186142.0394   21186148.0064
        -0.000          -0.000
 -13578981.841 9 -10565675.41548  21189843.668    21189843.3774   21189849.6224
        -0.000          -0.000
  10477359.024 9   8152999.20645  23938303.898    23938303.3774   23938311.6754
        -0.000          -0.000
    711136.106 9    557942.98448  21725222.947    21725222.9814   21725229.8584
        -0.000          -0.000
 -10001504.178 9  -7572271.97649  20146843.469    20146843.4314   20146850.2664
        -0.000          -0.000
  -9223870.375 9  -7174692.54547  21626867.029    21626866.7524   21626873.8194
        -0.000          -0.000
  -8893324.136 9  -6504600.14946  23848325.367    23848325.9184   23848332.8064
        -0.000          -0.000
  -5302126.667 8  -3922801.12945  24145621.504    24145620.8154   24145634.1894
        -0.000          -0.000
 98  5  1 19 49  0.0000000  0  8  4  5  7  9 24  8 30 10            -0.000000054
   2054863.324 9   1869425.65348  21197685.524    21197685.8474   21197691.8554
        -0.000          -0.000
 -13641360.352 9 -10614282.03848  21177973.420    21177973.0944   21177979.3574
        -0.000          -0.000
  10545640.161 8   8206205.20245  23951297.290    23951296.7834   23951305.3814
        -0.000          -0.000
    762991.371 9    598349.65248  21735090.766    21735090.7704   21735097.6724
        -0.000          -0.000
 -10013858.717 9  -7581898.87349  20144492.423    20144492.3884   20144499.2224
        -0.000          -0.000
  -9242569.061 9  -7189262.95747  21623308.902    21623308.5854   21623315.5874
        -0.000          -0.000
  -8991408.471 9  -6581029.42546  23829660.435    23829660.9704   23829667.9044
        -0.000          -0.000
  -5397538.936 8  -3997148.08945  24127464.804    24127464.1244   24127477.5294
        -0.000          -0.000
 98  5  1 19 49 30.0000000  0  8  4  5  7  9 24  8 30 10            -0.000000077
   2115919.379 9   1917001.78648  21209304.102    21209304.4244   21209310.4794
        -0.000          -0.000
 -13703480.482 9 -10662687.31848  21166152.359    21166152.0184   21166158.3164
        -0.000          -0.000
  10613902.647 8   8259396.67345  23964287.172    23964286.7904   23964295.3654
        -0.000          -0.000
    815266.252 9    639083.29948  21745038.449    21745038.4234   21745045.3044
        -0.000          -0.000
 -10025679.335 9  -7591109.72049  20142243.047    20142243.0254   20142249.8554
        -0.000          -0.000
  -9260664.205 9  -7203363.06547  21619865.563    21619865.1794   21619872.1824
        -0.000          -0.000
  -9089466.362 9  -6657438.09046  23811000.689    23811001.1674   23811008.1194
        -0.000          -0.000
  -5492964.400 8  -4071505.30545  24109305.665    24109305.0364   24109318.5024
        -0.000          -0.000
 98  5  1 19 50  0.0000000  0  8  4  5  7  9 24  8 30 10            -0.000000091
   2177375.669 9   1964889.78648  21220998.778    21220999.1184   21221005.2224
        -0.000          -0.000
 -13765296.623 9 -10710855.72948  21154389.095    21154388.7914   21154395.1234
        -0.000          -0.000
  10682207.248 8   8312620.94445  23977285.208    23977284.7524   23977293.3244
        -0.000          -0.000
    868000.584 9    680174.94848  21755073.463    21755073.4464   21755080.3504
        -0.000          -0.000
 -10036934.217 9  -7599879.74049  20140101.314    20140101.2984   20140108.0974
        -0.000          -0.000
  -9278135.610 9  -7216977.15147  21616540.827    21616540.5004   21616547.4664
        -0.000          -0.000
  -9187478.335 9  -6733810.98846  23792349.679    23792350.0194   23792357.0024
        -0.000          -0.000
  -5588385.011 9  -4145858.72045  24091147.604    24091146.9064   24091160.4514
        -0.000          -0.000
 98  5  1 19 50 30.0000000  0  8  4  5  7  9 24  8 30 10            -0.000000088
   2239208.532 9   2013071.22148  21232765.175    21232765.5324   21232771.5904
        -0.000          -0.000
 -13826808.510 9 -10758787.05548  21142683.790    21142683.4854   21142689.8104
        -0.000          -0.000
  10750566.288 8   8365887.65645  23990293.610    23990293.0354   23990301.5954
        -0.000          -0.000
    921184.287 9    721616.76448  21765194.042    21765194.0194   21765200.9164
        -0.000          -0.000
 -10047646.409 9  -7608226.88449  20138062.812    20138062.8294   20138069.6164
        -0.000          -0.000
  -9294978.550 9  -7230101.52147  21613335.779    21613335.4394   21613342.3644
        -0.000          -0.000
  -9285444.816 9  -6810148.43046  23773707.330    23773707.5454   23773714.4484
        -0.000          -0.000
  -5683805.411 8  -4220211.99045  24072989.505    24072988.7874   24073002.2894
        -0.000          -0.000
 98  5  1 19 51  0.0000000  0  8  4  5  7  9 24  8 30 10            -0.000000073
   2301400.523 9   2061532.50248  21244600.010    21244600.3394   21244606.3524
        -0.000          -0.000
 -13888038.240 9 -10806498.51948  21131032.157    21131031.8214   21131038.2074
        -0.000          -0.000
  10818977.495 8   8419194.96445  24003311.863    24003311.3234   24003319.9854
        -0.000          -0.000
    974797.654 9    763393.37448  21775396.385    21775396.3474   21775403.2164
        -0.000          -0.000
 -10057821.567 9  -7616155.56049  20136126.595    20136126.6004   20136133.3364
        -0.000          -0.000
  -9311205.997 9  -7242746.29647  21610247.746    21610247.4574   21610254.3514
        -0.000          -0.000
  -9383368.531 9  -6886452.56246  23755072.986    23755073.2654   23755080.1254
        -0.000          -0.000
  -5779234.736 8  -4294572.21045  24054829.697    24054829.0984   24054842.2664
        -0.000          -0.000
 98  5  1 19 51 30.0000000  0  8  4  5  7  9 24  8 30 10            -0.000000045
   2363976.118 9   2110292.69548  21256507.764    21256508.1064   21256514.0904
        -0.000          -0.000
 -13948983.047 9 -10853987.96348  21119434.711    21119434.4204   21119440.7994
        -0.000          -0.000
  10887447.069 8   8472547.78045  24016341.108    24016340.6144   24016349.3164
        -0.000          -0.000
   1028856.951 9    805517.46448  21785683.521    21785683.4754   21785690.4234
        -0.000          -0.000
 -10067455.366 9  -7623662.39749  20134293.340    20134293.3194   20134300.0474
        -0.000          -0.000
  -9326815.451 9  -7254909.50747  21607277.443    21607277.0744   21607283.9744
        -0.000          -0.000
  -9481237.975 9  -6962714.39946  23736448.987    23736449.3584   23736456.1364
        -0.000          -0.000
  -5874674.810 9  -4368940.82545  24036667.863    24036667.2824   24036680.1544
        -0.000          -0.000
 98  5  1 19 52  0.0000000  0  8  4  5  7  9 24  8 30 10            -0.000000018
   2426951.414 9   2159364.33648  21268491.641    21268491.9494   21268497.9264
        -0.000          -0.000
 -14009657.478 9 -10901266.72748  21107888.796    21107888.4734   21107894.8424
        -0.000          -0.000
  10955931.958 8   8525912.53745  24029373.553    24029372.8714   24029381.5874
        -0.000          -0.000
   1083347.201 9    847977.36548  21796052.626    21796052.6174   21796059.5704
        -0.000          -0.000
 -10076579.302 9  -7630771.94449  20132557.084    20132557.0814   20132563.8284
        -0.000          -0.000
  -9341808.234 9  -7266592.20647  21604424.451    21604424.0684   21604430.9554
        -0.000          -0.000
  -9579057.612 9  -7038937.41146  23717834.359    23717834.7954   23717841.6994
        -0.000          -0.000
  -5970143.795 9  -4443331.93545  24018500.481    24018499.9094   24018512.5614
        -0.000          -0.000
 98  5  1 19 52 30.0000000  0  8  4  5  7  9 24  8 30 10            -0.000000016
   2490332.362 9   2208752.07648  21280552.646    21280552.9304   21280558.9694
        -0.000          -0.000
 -14070074.977 9 -10948345.28548  21096391.658    21096391.3724   21096397.7354
        -0.000          -0.000
  11024377.857 8   8579246.93045  24042398.364    24042397.7454   24042406.4924
        -0.000          -0.000
   1138244.958 9    890754.80848  21806499.305    21806499.3154   21806506.2484
        -0.000          -0.000
 -10085196.212 9  -7637486.40049  20130917.300    20130917.2764   20130924.0344
        -0.000          -0.000
  -9356198.451 9  -7277805.36147  21601686.027    21601685.6944   21601692.6524
        -0.000          -0.000
  -9676843.435 9  -7115134.08646  23699226.173    23699226.6374   23699233.6734
        -0.000          -0.000
  -6065645.033 8  -4517748.18545  24000327.020    24000326.5204   24000338.9804
        -0.000          -0.000
 98  5  1 19 53  0.0000000  0  8  4  5  7  9 24  8 30 10            -0.000000016
   2554171.921 9   2258497.17348  21292700.820    21292701.1204   21292707.1864
        -0.000          -0.000
 -14130176.919 9 -10995177.95448  21084954.634    21084954.3604   21084960.6824
        -0.000          -0.000
  11092822.450 8   8632580.30545  24055422.876    24055422.2774   24055431.0744
        -0.000          -0.000
   1193603.072 9    933890.97048  21817033.661    21817033.6324   21817040.5404
        -0.000          -0.000
 -10093238.419 9  -7643753.04149  20129386.868    20129386.8754   20129393.6314
        -0.000          -0.000
  -9369942.966 9  -7288515.37847  21599070.502    21599070.1454   21599077.1464
        -0.000          -0.000
  -9774549.632 9  -7191268.71746  23680633.261    23680633.7194   23680640.7384
        -0.000          -0.000
  -6161125.869 9  -4592148.53045  23982157.314    23982156.7694   23982169.2614
        -0.000          -0.000
 98  5  1 19 53 30.0000000  0  8  4  5  7  9 24  8 30 10            -0.000000027
   2618451.186 9   2308584.89748  21304932.810    21304933.1124   21304939.1094
        -0.000          -0.000
 -14189970.114 9 -11041770.03848  21073576.358    21073576.1074   21073582.4264
        -0.000          -0.000
  11161238.387 9   8685891.34145  24068442.013    24068441.5544   24068450.2674
        -0.000          -0.000
   1249410.066 9    977376.91348  21827653.427    21827653.3704   21827660.2924
        -0.000          -0.000
 -10100734.839 9  -7649594.38949  20127960.404    20127960.3634   20127967.1124
        -0.000          -0.000
  -9383052.527 9  -7298730.62747  21596575.882    21596575.4824   21596582.4824
        -0.000          -0.000
  -9872192.204 9  -7267353.75746  23662052.476    23662052.8314   23662059.8374
        -0.000          -0.000
  -6256592.147 9  -4666537.55545  23963990.605    23963990.0064   23964002.3794
        -0.000          -0.000
 98  5  1 19 54  0.0000000  0  8  4  5  7  9 24  8 30 10            -0.000000034
   2683179.403 9   2359022.45148  21317250.190    21317250.4944   21317256.4514
        -0.000          -0.000
 -14249425.405 9 -11088098.82948  21062262.453    21062262.1594   21062268.4424
        -0.000          -0.000
  11229662.068 9   8739208.43445  24081462.861    24081462.3614   24081470.6464
        -0.000          -0.000
   1305679.599 9   1021223.27348  21838361.189    21838361.1374   21838368.0694
        -0.000          -0.000
 -10107666.421 9  -7654995.60749  20126641.323    20126641.2964   20126648.0644
        -0.000          -0.000
  -9395497.158 9  -7308427.75547  21594207.684    21594207.3714   21594214.3084
        -0.000          -0.000
  -9969754.400 9  -7343376.18846  23643486.820    23643487.1954   23643494.2354
        -0.000          -0.000
  -6352017.846 8  -4740894.96445  23945831.434    23945830.8964   23945843.2104
        -0.000          -0.000
 98  5  1 19 54 30.0000000  0  8  4  5  7  9 24  8 30 10            -0.000000043
   2748314.670 9   2409777.18948  21329645.078    21329645.3544   21329651.2954
        -0.000          -0.000
 -14308567.426 9 -11134183.50748  21051008.120    21051007.8304   21051014.0504
        -0.000          -0.000
  11298098.595 8   8792535.50345  24094485.980    24094485.4154   24094493.9794
        -0.000          -0.000
   1362374.194 9   1065400.85248  21849149.905    21849149.8184   21849156.7814
        -0.000          -0.000
 -10114060.242 9  -7659977.78749  20125424.553    20125424.5294   20125431.3104
        -0.000          -0.000
  -9407307.296 9  -7317630.47148  21591960.277    21591959.9674   21591966.9594
        -0.000          -0.000
 -10067256.035 9  -7419351.43246  23624932.758    23624933.1804   23624940.2214
        -0.000          -0.000
  -6447433.658 9  -4815244.67545  23927674.201    23927673.6174   23927685.9354
        -0.000          -0.000
 98  5  1 19 55  0.0000000  0  8  4  5  7  9 24  8 30 10            -0.000000043
   2813860.493 9   2460851.84048  21342118.128    21342118.3994   21342124.2624
        -0.000          -0.000
 -14367401.680 9 -11180028.36848  21039812.370    21039812.0714   21039818.2604
        -0.000          -0.000
  11366577.659 9   8845895.70245  24107517.300    24107516.7534   24107525.3104
        -0.000          -0.000
   1419498.951 9   1109913.61648  21860020.388    21860020.3324   21860027.2914
        -0.000          -0.000
 -10119920.849 9  -7664544.47449  20124309.273    20124309.2714   20124316.0954
        -0.000          -0.000
  -9418486.025 9  -7326341.16648  21589833.039    21589832.7304   21589839.7314
        -0.000          -0.000
 -10164684.423 9  -7495269.58946  23606392.744    23606393.1254   23606400.1614
        -0.000          -0.000
  -6542832.191 8  -4889580.90145  23909520.301    23909519.5554   23909531.9194
        -0.000          -0.000
 98  5  1 19 55 30.0000000  0  8  4  5  7  9 24  8 30 10            -0.000000044
   2879806.550 9   2512238.36248  21354667.309    21354667.5814   21354673.3724
        -0.000          -0.000
 -14425954.141 9 -11225653.65448  21028670.166    21028669.8554   21028676.0724
        -0.000          -0.000
  11435078.192 9   8899272.62045  24120552.614    24120552.1394   24120560.6444
        -0.000          -0.000
   1477036.173 9   1154747.79248  21870969.465    21870969.3834   21870976.3044
        -0.000          -0.000
 -10125268.113 9  -7668711.16149  20123291.729    20123291.7254   20123298.5454
        -0.000          -0.000
  -9429043.900 9  -7334568.10047  21587823.961    21587823.6014   21587830.6364
        -0.000          -0.000
 -10262056.181 9  -7571143.62146  23587863.462    23587863.8324   23587870.8644
        -0.000          -0.000
  -6638231.112 9  -4963917.46545  23891366.298    23891365.5424   23891377.9164
        -0.000          -0.000
 98  5  1 19 56  0.0000000  0  8  4  5  7  9 24  8 30 10            -0.000000053
   2946145.096 9   2563930.71748  21367291.164    21367291.4424   21367297.2434
        -0.000          -0.000
 -14484225.475 9 -11271059.86848  21017581.486    21017581.1714   21017587.4354
        -0.000          -0.000
  11503603.466 8   8952668.86745  24133592.638    24133592.1724   24133600.6194
        -0.000          -0.000
   1534975.917 9   1199895.61648  21881995.019    21881994.9804   21882001.8674
        -0.000          -0.000
 -10130099.738 9  -7672476.04349  20122372.307    20122372.2924   20122379.1114
        -0.000          -0.000
  -9438994.786 9  -7342322.04147  21585930.393    21585930.0324   21585937.0224
        -0.000          -0.000
 -10359381.320 9  -7646981.34546  23569343.025    23569343.3934   23569350.3944
        -0.000          -0.000
  -6733629.433 9  -5038253.56245  23873212.446    23873211.7404   23873223.9764
        -0.000          -0.000
 98  5  1 19 56 30.0000000  0  8  4  5  7  9 24  8 30 10            -0.000000062
   3012887.566 9   2615937.82248  21379991.831    21379992.1294   21379997.9764
        -0.000          -0.000
 -14542197.496 9 -11316232.86148  21006549.766    21006549.4684   21006555.7694
        -0.000          -0.000
  11572155.147 8   9006085.65945  24146637.707    24146637.3014   24146645.5414
        -0.000          -0.000
   1593331.985 9   1245367.84448  21893099.818    21893099.8224   21893106.6764
        -0.000          -0.000
 -10134398.239 9  -7675825.50949  20121554.307    20121554.2984   20121561.1594
        -0.000          -0.000
  -9448333.330 9  -7349598.83847  21584153.279    21584152.9424   21584159.9534
        -0.000          -0.000
 -10456649.133 9  -7722774.38746  23550833.692    23550833.9974   23550840.8624
        -0.000          -0.000
  -6828995.442 9  -5112564.48746  23855064.813    23855064.0934   23855076.2294
        -0.000          -0.000
 98  5  1 19 57  0.0000000  0  8  4  5  7  9 24  8 30 10            -0.000000068
   3080029.893 9   2668256.50148  21392768.604    21392768.9144   21392774.8034
        -0.000          -0.000
 -14599861.573 9 -11361165.89848  20995576.612    20995576.3254   20995582.6494
        -0.000          -0.000
  11640712.889 8   9059507.16945  24159683.776    24159683.3504   24159691.8294
        -0.000          -0.000
   1652117.127 9   1291174.43448  21904286.305    21904286.2384   21904293.1294
        -0.000          -0.000
 -10138160.940 9  -7678757.46249  20120838.330    20120838.3044   20120845.1424
        -0.000          -0.000
  -9457035.682 9  -7356379.90747  21582497.311    21582496.9384   21582503.9364
        -0.000          -0.000
 -10553849.700 9  -7798515.02246  23532336.960    23532337.1824   23532344.0564
        -0.000          -0.000
  -6924306.442 8  -5186832.57145  23836927.461    23836926.7394   23836938.7644
        -0.000          -0.000
 98  5  1 19 57 30.0000000  0  8  4  5  7  9 24  8 30 10            -0.000000089
   3147527.268 9   2720851.83948  21405612.946    21405613.2624   21405619.1714
        -0.000          -0.000
 -14657223.955 9 -11405863.84748  20984660.925    20984660.6224   20984666.9674
        -0.000          -0.000
  11709242.014 8   9112906.36745  24172724.622    24172724.1314   24172732.6914
        -0.000          -0.000
   1711296.955 9   1337288.55548  21915547.841    21915547.8124   21915554.7034
        -0.000          -0.000
 -10141419.302 9  -7681296.42949  20120218.252    20120218.2534   20120225.0574
        -0.000          -0.000
  -9465116.612 9  -7362676.74547  21580959.578    21580959.2134   21580966.1524
        -0.000          -0.000
 -10651006.579 9  -7874221.63446  23513848.529    23513848.8314   23513855.5844
        -0.000          -0.000
  -7019593.378 9  -5261081.89445  23818794.699    23818794.1024   23818806.1224
        -0.000          -0.000
 98  5  1 19 58  0.0000000  0  8  4  5  7  9 24  8 30 10            -0.000000102
   3215390.396 9   2773732.18648  21418526.898    21418527.2124   21418533.1384
        -0.000          -0.000
 -14714248.830 9 -11450298.80448  20973809.452    20973809.1344   20973815.4954
        -0.000          -0.000
  11777784.918 8   9166316.31945  24185767.944    24185767.2234   24185776.3434
        -0.000          -0.000
   1770879.613 9   1383716.56148  21926886.061    21926886.0634   21926892.9504
        -0.000          -0.000
 -10144161.297 9  -7683433.03649  20119696.522    20119696.5044   20119703.2604
        -0.000          -0.000
  -9472561.500 9  -7368477.96447  21579542.865    21579542.4844   21579549.4194
        -0.000          -0.000
 -10748081.697 9  -7949864.52646  23495375.740    23495376.0794   23495382.7174
        -0.000          -0.000
  -7114833.866 9  -5335295.05646  23800670.911    23800670.3394   23800682.1674
        -0.000          -0.000
 98  5  1 19 58 30.0000000  0  8  4  5  7  9 24  8 30 10            -0.000000102
   3283618.556 9   2826896.96548  21431510.289    21431510.6144   21431516.5534
        -0.000          -0.000
 -14770941.836 9 -11494475.16648  20963021.131    20963020.8034   20963027.1694
        -0.000          -0.000
  11846337.927 8   9219734.16245  24198813.274    24198812.4704   24198821.9294
        -0.000          -0.000
   1830862.080 9   1430456.10648  21938300.451    21938300.4204   21938307.2694
        -0.000          -0.000
 -10146384.602 9  -7685165.46749  20119273.478    20119273.4674   20119280.1354
        -0.000          -0.000
  -9479360.062 9  -7373775.56447  21578249.091    21578248.7594   21578255.7104
        -0.000          -0.000
 -10845054.567 9  -8025427.74746  23476922.263    23476922.6554   23476929.3654
        -0.000          -0.000
  -7210033.245 9  -5409476.17045  23782554.985    23782554.2414   23782566.1684
        -0.000          -0.000
 98  5  1 19 59  0.0000000  0  8  4  5  7  9 24  8 30 10            -0.000000097
   3352203.589 9   2880339.83148  21444561.581    21444561.8894   21444567.8404
        -0.000          -0.000
 -14827308.995 9 -11538397.61948  20952294.794    20952294.4884   20952300.8444
        -0.000          -0.000
  11914892.191 8   9273152.96745  24211858.708    24211858.0394   24211867.5264
        -0.000          -0.000
   1891229.416 9   1477495.54848  21949788.064    21949788.0084   21949794.8104
        -0.000          -0.000
 -10148099.269 9  -7686501.55349  20118947.257    20118947.2034   20118953.8284
        -0.000          -0.000
  -9485522.127 9  -7378577.18647  21577076.564    21577076.2014   21577083.1894
        -0.000          -0.000
 -10941927.273 9  -8100912.92546  23458487.978    23458488.2574   23458495.0704
        -0.000          -0.000
  -7305207.589 9  -5483637.78346  23764443.646    23764442.9694   23764454.9414
        -0.000          -0.000
 98  5  1 19 59 30.0000000  0  8  4  5  7  9 24  8 30 10            -0.000000107
   3421123.306 9   2934043.49048  21457676.547    21457676.8404   21457682.8814
        -0.000          -0.000
 -14883371.387 9 -11582082.58448  20941626.439    20941626.1344   20941632.5084
        -0.000          -0.000
  11983440.559 8   9326567.18345  24224903.111    24224902.4494   24224911.9194
        -0.000          -0.000
   1951954.757 9   1524813.96748  21961343.683    21961343.6684   21961350.4734
        -0.000          -0.000
 -10149323.877 9  -7687455.77849  20118714.207    20118714.1344   20118720.7554
        -0.000          -0.000
  -9491095.761 9  -7382920.28248  21576015.998    21576015.6054   21576022.5624
        -0.000          -0.000
 -11038724.220 9  -8176339.06446  23440068.258    23440068.3994   23440075.2234
        -0.000          -0.000
  -7400392.526 9  -5557807.62646  23746330.345    23746329.6584   23746341.5594
        -0.000          -0.000
 98  5  1 20  0  0.0000000  0  8  4  5  7  9 24  8 30 10            -0.000000106
   3490429.954 9   2988048.64948  21470865.165    21470865.4694   21470871.5324
        -0.000          -0.000
 -14939095.213 9 -11625503.73948  20931022.530    20931022.2254   20931028.5754
        -0.000          -0.000
  12052026.485 8   9380010.64445  24237954.635    24237954.0444   24237963.2434
        -0.000          -0.000
   2013086.705 9   1572449.22048  21972976.785    21972976.7354   21972983.5354
        -0.000          -0.000
 -10150004.281 9  -7687985.95749  20118584.703    20118584.6544   20118591.2424
        -0.000          -0.000
  -9496034.994 9  -7386769.05248  21575076.142    21575075.7864   21575082.7224
        -0.000          -0.000
 -11135400.831 9  -8251671.43146  23421671.126    23421671.4054   23421678.2484
        -0.000          -0.000
  -7495536.502 9  -5631945.56546  23728224.970    23728224.2434   23728235.9304
        -0.000          -0.000
 98  5  1 20  0 30.0000000  0  8  4  5  7  9 24  8 30 10            -0.000000120
   3560091.111 9   3042330.04948  21484121.221    21484121.5324   21484127.5994
        -0.000          -0.000
 -14994512.986 9 -11668686.40748  20920476.835    20920476.5554   20920482.8604
        -0.000          -0.000
  12120604.002 8   9433447.56245  24251004.681    24251004.0294   24251013.1314
        -0.000          -0.000
   2074611.515 9   1620390.60048  21984684.543    21984684.5004   21984691.4054
        -0.000          -0.000
 -10150159.713 9  -7688107.06049  20118555.174    20118555.1044   20118561.7064
        -0.000          -0.000
  -9500367.480 9  -7390145.02948  21574251.783    21574251.3864   21574258.3364
        -0.000          -0.000
 -11231999.576 9  -8326943.13446  23403288.934    23403289.2304   23403296.1704
        -0.000          -0.000
  -7590662.166 9  -5706069.24546  23710122.897    23710122.2044   23710133.9204
        -0.000          -0.000
 98  5  1 20  1  0.0000000  0  8  4  5  7  9 24  8 30 10            -0.000000131
   3630139.103 9   3096912.88548  21497450.916    21497451.2344   21497457.2894
        -0.000          -0.000
 -15049594.477 9 -11711607.03548  20909995.180    20909994.8924   20910001.1584
        -0.000          -0.000
  12189220.474 8   9486914.83545  24264061.820    24264061.2004   24264070.4344
        -0.000          -0.000
   2136561.853 9   1668663.55848  21996473.234    21996473.1984   21996480.1444
        -0.000          -0.000
 -10149765.568 9  -7687799.92049  20118630.127    20118630.0724   20118636.7284
        -0.000          -0.000
  -9504070.513 9  -7393030.52648  21573547.037    21573546.6954   21573553.6554
        -0.000          -0.000
 -11328506.136 9  -8402142.98946  23384924.275    23384924.6334   23384931.5944
        -0.000          -0.000
  -7685725.120 9  -5780144.05046  23692032.869    23692032.2284   23692043.8614
        -0.000          -0.000
 98  5  1 20  1 30.0000000  0  8  4  5  7  9 24  8 30 10            -0.000000134
   3700559.013 9   3151785.52548  21510851.402    21510851.6974   21510857.8144
        -0.000          -0.000
 -15104350.590 9 -11754274.12048  20899575.404    20899575.1254   20899581.4384
        -0.000          -0.000
  12257881.782 8   9540417.05445  24277127.759    24277127.1054   24277136.1914
        -0.000          -0.000
   2198936.020 9   1717266.76848  22008342.670    22008342.6314   22008349.5224
        -0.000          -0.000
 -10148824.875 9  -7687066.90249  20118809.100    20118809.0584   20118815.7294
        -0.000          -0.000
  -9507150.596 9  -7395430.60847  21572960.920    21572960.5704   21572967.5344
        -0.000          -0.000
 -11424926.793 9  -8477275.92046  23366576.060    23366576.3964   23366583.2794
        -0.000          -0.000
  -7780721.617 9  -5854167.08746  23673955.581    23673954.8724   23673966.5174
        -0.000          -0.000
 98  5  1 20  2  0.0000000  0  8  4  5  7  9 24  8 30 10            -0.000000128
   3771351.829 9   3206948.73148  21524322.824    21524323.1214   21524329.2744
        -0.000          -0.000
 -15158774.297 9 -11796682.19648  20889218.912    20889218.6554   20889224.9854
        -0.000          -0.000
  12326587.530 8   9593953.90045  24290202.071    24290201.5334   24290210.6204
        -0.000          -0.000
   2261730.188 9   1766197.24448  22020292.115    22020292.0294   22020298.9224
        -0.000          -0.000
 -10147344.151 9  -7685913.08949  20119090.859    20119090.8234   20119097.4764
        -0.000          -0.000
  -9509598.345 9  -7397337.96447  21572495.055    21572494.7834   21572501.7734
        -0.000          -0.000
 -11521273.766 9  -8552351.44346  23348242.076    23348242.2984   23348249.0264
        -0.000          -0.000
  -7875626.037 9  -5928118.37346  23655895.769    23655895.1154   23655906.5734
        -0.000          -0.000
 98  5  1 20  2 30.0000000  0  8  4  5  7  9 24  8 30 10            -0.000000120
   3842483.180 9   3262375.74248  21537858.692    21537859.0104   21537865.1324
        -0.000          -0.000
 -15212884.294 9 -11838845.81148  20878922.146    20878921.8434   20878928.1564
        -0.000          -0.000
  12395316.874 8   9647509.10245  24303280.942    24303280.3594   24303289.4614
        -0.000          -0.000
   2324908.574 9   1815427.11948  22032314.531    22032314.4864   22032321.4254
        -0.000          -0.000
 -10145363.021 9  -7684369.33649  20119467.898    20119467.8324   20119474.4954
        -0.000          -0.000
  -9511437.983 9  -7398771.46248  21572145.080    21572144.7354   21572151.7574
        -0.000          -0.000
 -11617560.410 9  -8627379.93146  23329919.426    23329919.5834   23329926.2884
        -0.000          -0.000
  -7970452.218 9  -6002008.67746  23637850.820    23637850.1184   23637861.6004
        -0.000          -0.000
 98  5  1 20  3  0.0000000  0  8  4  5  7  9 24  8 30 10            -0.000000108
   3913935.736 9   3318053.03948  21551455.691    21551455.9974   21551462.1324
        -0.000          -0.000
 -15266683.394 9 -11880767.17948  20868684.526    20868684.2314   20868690.5254
        -0.000          -0.000
  12464067.770 8   9701081.08345  24316363.752    24316363.2834   24316372.5224
        -0.000          -0.000
   2388450.549 9   1864940.30848  22044406.154    22044406.1254   22044413.0814
        -0.000          -0.000
 -10142894.011 9  -7682445.42449  20119937.631    20119937.5774   20119944.2654
        -0.000          -0.000
  -9512674.354 9  -7399734.88848  21571909.818    21571909.4884   21571916.5024
        -0.000          -0.000
 -11713778.125 9  -8702354.72046  23311609.749    23311609.9494   23311616.6284
        -0.000          -0.000
  -8065208.296 9  -6075844.37246  23619819.114    23619818.3814   23619829.9974
        -0.000          -0.000
 98  5  1 20  3 30.0000000  0  8  4  5  7  9 24  8 30 10            -0.000000102
   3985697.669 9   3373971.41748  21565111.515    21565111.8434   21565117.9584
        -0.000          -0.000
 -15320167.383 9 -11922443.00348  20858506.892    20858506.5664   20858512.8544
        -0.000          -0.000
  12532814.505 8   9754649.88545  24329446.133    24329445.5054   24329454.6864
        -0.000          -0.000
   2452345.330 9   1914728.40648  22056564.917    22056564.8884   22056571.9604
        -0.000          -0.000
 -10139937.942 9  -7680141.98749  20120500.179    20120500.1384   20120506.8044
        -0.000          -0.000
  -9513308.483 9  -7400229.03248  21571789.185    21571788.8514   21571795.8844
        -0.000          -0.000
 -11809916.806 9  -8777267.91546  23293315.051    23293315.2734   23293322.0504
        -0.000          -0.000
  -8159911.742 9  -6149639.06646  23601797.360    23601796.6464   23601808.3214
        -0.000          -0.000
 98  5  1 20  4  0.0000000  0  8  4  5  7  9 24  8 30 10            -0.000000083
   4057809.831 9   3430162.69548  21578834.104    21578834.4044   21578840.4864
        -0.000          -0.000
 -15373302.566 9 -11963847.03248  20848395.560    20848395.2364   20848401.5094
        -0.000          -0.000
  12601579.562 8   9808232.92545  24342531.526    24342531.0974   24342540.4134
        -0.000          -0.000
   2516617.952 9   1964810.93348  22068795.613    22068795.5514   22068802.6644
        -0.000          -0.000
 -10136470.333 9  -7677439.94549  20121159.998    20121159.9414   20121166.6624
        -0.000          -0.000
  -9513306.250 9  -7400227.30648  21571789.615    21571789.2814   21571796.3114
        -0.000          -0.000
 -11905931.635 9  -8852084.61246  23275043.962    23275044.2524   23275051.0384
        -0.000          -0.000
  -8254531.730 9  -6223368.69046  23583791.476    23583790.8124   23583802.5854
        -0.000          -0.000
 98  5  1 20  4 30.0000000  0  8  4  5  7  9 24  8 30 10            -0.000000064
   4130254.021 9   3486612.69448  21592619.828    21592620.0704   21592626.1414
        -0.000          -0.000
 -15426108.980 9 -12004994.87748  20838346.823    20838346.5234   20838352.8064
        -0.000          -0.000
  12670345.799 8   9861816.87645  24355617.293    24355616.7574   24355626.3844
        -0.000          -0.000
   2581252.399 9   2015175.39948  22081095.148    22081095.1164   22081102.2464
        -0.000          -0.000
 -10132496.002 9  -7674343.05149  20121916.234    20121916.2174   20121922.9464
        -0.000          -0.000
  -9512696.178 9  -7399751.94548  21571905.601    21571905.3014   21571912.3654
        -0.000          -0.000
 -12001822.793 9  -8926804.92046  23256796.263    23256796.6854   23256803.5074
        -0.000          -0.000
  -8349106.283 9  -6297062.92546  23565794.438    23565793.8604   23565805.5024
        -0.000          -0.000
 98  5  1 20  5  0.0000000  0  8  4  5  7  9 24  8 30 10            -0.000000065
   4203037.116 9   3543326.77548  21606469.943    21606470.2524   21606476.3154
        -0.000          -0.000
 -15478587.130 9 -12045886.93648  20828360.584    20828360.2664   20828366.5494
        -0.000          -0.000
  12739106.050 8   9915396.19845  24368701.914    24368701.6384   24368711.0054
        -0.000          -0.000
   2646243.868 9   2065818.06348  22093462.592    22093462.6044   22093469.7414
        -0.000          -0.000
 -10128002.325 9  -7670841.47749  20122771.372    20122771.3254   20122778.0334
        -0.000          -0.000
  -9511503.866 9  -7398822.89848  21572132.454    21572132.1544   21572139.2864
        -0.000          -0.000
 -12097610.408 9  -9001444.56946  23238568.330    23238568.9044   23238575.7434
        -0.000          -0.000
  -8443633.586 9  -6370720.33346  23547806.435    23547805.8544   23547817.4214
        -0.000          -0.000
 98  5  1 20  5 30.0000000  0  8  4  5  7  9 24  8 30 10            -0.000000063
   4276212.037 9   3600346.18048  21620394.769    21620395.0224   21620401.0654
        -0.000          -0.000
 -15530684.650 9 -12086482.39948  20818446.788    20818446.4694   20818452.7514
        -0.000          -0.000
  12807896.771 8   9968999.22045  24381792.641    24381792.4164   24381801.7374
        -0.000          -0.000
   2711626.093 9   2116765.21548  22105904.543    22105904.5114   22105911.6214
        -0.000          -0.000
 -10122954.070 9  -7666907.76549  20123731.988    20123731.9704   20123738.6334
        -0.000          -0.000
  -9509689.831 9  -7397409.38448  21572477.733    21572477.3844   21572484.5124
        -0.000          -0.000
 -12193268.915 9  -9075983.61146  23220365.014    23220365.6954   23220372.4734
        -0.000          -0.000
  -8538056.639 9  -6444296.50946  23529837.973    23529837.4234   23529849.0844
        -0.000          -0.000
 98  5  1 20  6  0.0000000  0  8  4  5  7  9 24  8 30 10            -0.000000069
   4349759.954 9   3657656.22448  21634390.508    21634390.7534   21634396.7814
        -0.000          -0.000
 -15582396.604 9 -12126777.41948  20808606.288    20808605.9524   20808612.2564
        -0.000          -0.000
  12876708.143 8  10022618.32845  24394887.145    24394886.7414   24394896.3984
        -0.000          -0.000
   2777386.507 9   2168007.04448  22118418.461    22118418.3974   22118425.4424
        -0.000          -0.000
 -10117365.280 9  -7662552.85049  20124795.553    20124795.4844   20124802.1264
        -0.000          -0.000
  -9507270.735 9  -7395524.39148  21572938.114    21572937.7764   21572944.8954
        -0.000          -0.000
 -12288815.709 9  -9150435.60246  23202183.175    23202183.6724   23202190.4844
        -0.000          -0.000
  -8632373.115 9  -6517789.65246  23511889.945    23511889.4584   23511900.9574
        -0.000          -0.000
 98  5  1 20  6 30.0000000  0  8  4  5  7  9 24  8 30 10            -0.000000075
   4423684.863 9   3715260.03448  21648457.888    21648458.1644   21648464.2154
        -0.000          -0.000
 -15633706.429 9 -12166759.08648  20798842.319    20798842.0114   20798848.3184
        -0.000          -0.000
  12945558.213 8  10076267.63645  24407988.898    24407988.4214   24407997.8604
        -0.000          -0.000
   2843532.916 9   2219549.67148  22131005.697    22131005.6344   22131012.7304
        -0.000          -0.000
 -10111218.085 9  -7657762.81349  20125965.299    20125965.2544   20125971.9294
        -0.000          -0.000
  -9504228.720 9  -7393154.01048  21573517.039    21573516.6754   21573523.7774
        -0.000          -0.000
 -12384239.303 9  -9224791.58046  23184024.765    23184025.1734   23184031.9384
        -0.000          -0.000
  -8726572.813 9  -6591191.78546  23493964.312    23493963.7174   23493975.0754
        -0.000          -0.000
 98  5  1 20  7  0.0000000  0  8  4  5  7  9 24  8 30 10            -0.000000084
   4497960.936 9   3773137.48448  21662592.078    21662592.4294   21662598.4434
        -0.000          -0.000
 -15684634.151 9 -12206443.01448  20789151.076    20789150.7604   20789157.1124
        -0.000          -0.000
  13014428.394 8  10129932.62745  24421094.521    24421094.0994   24421103.7154
        -0.000          -0.000
   2910035.365 9   2271369.71748  22143660.593    22143660.5634   22143667.7754
        -0.000          -0.000
 -10104554.452 9  -7652570.36149  20127233.336    20127233.2964   20127239.9424
        -0.000          -0.000
  -9500567.073 9  -7390300.79848  21574213.941    21574213.5534   21574220.6074
        -0.000          -0.000
 -12479554.228 9  -9299062.89346  23165886.946    23165887.2404   23165894.0754
        -0.000          -0.000
  -8820660.399 9  -6664506.57346  23476059.951    23476059.2534   23476070.4674
        -0.000          -0.000
 98  5  1 20  7 30.0000000  0  7  4  5  9 24  8 30 10               -0.000000090
   4572548.604 9   3831257.72648  21676785.676    21676786.0234   21676792.0294
        -0.000          -0.000
 -15735199.004 9 -12245844.19348  20779528.891    20779528.5724   20779534.9284
        -0.000          -0.000
   2976879.967 9   2323456.37648  22156380.786    22156380.7574   22156388.0054
        -0.000          -0.000
 -10097416.384 9  -7647008.22049  20128591.657    20128591.6264   20128598.2664
        -0.000          -0.000
  -9496285.715 9  -7386964.70048  21575028.745    21575028.3394   21575035.3964
        -0.000          -0.000
 -12574758.684 9  -9373248.14846  23147770.037    23147770.3924   23147777.2284
        -0.000          -0.000
  -8914672.180 9  -6737762.27146  23458169.965    23458169.2084   23458180.3734
        -0.000          -0.000
 98  5  1 20  8  0.0000000  0  7  4  5  9 24  8 30 10               -0.000000059
   4647460.563 9   3889630.66648  21691040.946    21691041.2754   21691047.3024
        -0.000          -0.000
 -15785398.198 9 -12284960.44448  20769976.269    20769975.9854   20769982.3644
        -0.000          -0.000
   3044094.073 9   2375830.95648  22169171.277    22169171.2024   22169178.4994
        -0.000          -0.000
 -10089790.620 9  -7641066.05049  20130042.763    20130042.7314   20130049.3664
        -0.000          -0.000
  -9491364.044 9  -7383129.64948  21575965.308    21575964.9104   21575971.9904
        -0.000          -0.000
 -12669810.826 9  -9447314.70246  23129682.129    23129682.5644   23129689.2924
        -0.000          -0.000
  -9008601.871 9  -6810954.02446  23440295.582    23440294.8624   23440305.8814
        -0.000          -0.000
 98  5  1 20  8 30.0000000  0  7  4  5  9 24  8 30 10               -0.000000007
   4722686.798 9   3948248.49248  21705356.015    21705356.3454   21705362.3954
        -0.000          -0.000
 -15835268.038 9 -12323820.05048  20760486.344    20760486.0644   20760492.4274
        -0.000          -0.000
   3111663.589 9   2428482.48648  22182029.286    22182029.2514   22182036.4674
        -0.000          -0.000
 -10081697.416 9  -7634759.64749  20131582.919    20131582.8454   20131589.4224
        -0.000          -0.000
  -9485801.991 9  -7378795.60448  21577023.783    21577023.3774   21577030.3984
        -0.000          -0.000
 -12764723.515 9  -9521272.58746  23111620.923    23111621.1884   23111627.9394
        -0.000          -0.000
  -9102451.922 9  -6884083.73046  23422436.456    23422435.7354   23422446.5594
        -0.000          -0.000
 98  5  1 20  9  0.0000000  0  7  4  5  9 24  8 30 10                0.000000034
   4798173.714 9   4007069.44848  21719720.626    21719720.9904   21719727.0684
        -0.000          -0.000
 -15884847.009 9 -12362453.00948  20751051.801    20751051.5064   20751057.8674
        -0.000          -0.000
   3179547.110 9   2481378.68948  22194947.153    22194947.1184   22194954.3074
        -0.000          -0.000
 -10073193.115 9  -7628132.90949  20133201.194    20133201.1354   20133207.7074
        -0.000          -0.000
  -9479652.729 9  -7374003.99548  21578193.884    21578193.5084   21578200.5494
        -0.000          -0.000
 -12859556.686 9  -9595168.51846  23093574.827    23093574.9514   23093581.7324
        -0.000          -0.000
  -9196256.570 9  -6957178.06146  23404585.792    23404585.1534   23404595.9344
        -0.000          -0.000
 98  5  1 20  9 30.0000000  0  7  4  5  9 24  8 30 10                0.000000056
   4873934.609 9   4066103.88848  21734137.454    21734137.8394   21734143.9324
        -0.000          -0.000
 -15934118.452 9 -12400846.33448  20741675.765    20741675.4774   20741681.8374
        -0.000          -0.000
   3247767.102 9   2534537.07147  22207928.990    22207928.9614   22207936.1464
        -0.000          -0.000
 -10064250.314 9  -7621164.48449  20134902.938    20134902.8974   20134909.4744
        -0.000          -0.000
  -9472907.933 9  -7368748.33248  21579477.326    21579477.0094   21579484.0734
        -0.000          -0.000
 -12954312.695 9  -9669004.32346  23075543.419    23075543.4844   23075550.1774
        -0.000          -0.000
  -9290001.699 9  -7030226.00646  23386746.522    23386745.8934   23386756.5474
        -0.000          -0.000
 98  5  1 20 10  0.0000000  0  7  4  5  9 24  8 30 10                0.000000047
   4949952.503 9   4125338.59148  21748603.208    21748603.5654   21748609.6664
        -0.000          -0.000
 -15983108.868 9 -12439020.67348  20732353.202    20732352.9114   20732359.2554
        -0.000          -0.000
   3316285.353 9   2587927.87147  22220967.536    22220967.5344   22220974.7644
        -0.000          -0.000
 -10054879.744 9  -7613862.73149  20136686.136    20136686.0824   20136692.6374
        -0.000          -0.000
  -9465591.745 9  -7363047.42848  21580869.614    21580869.2654   21580876.2994
        -0.000          -0.000
 -13049023.542 9  -9742804.93546  23057520.398    23057520.5714   23057527.2154
        -0.000          -0.000
  -9383689.384 9  -7103229.19146  23368918.207    23368917.6554   23368928.1904
        -0.000          -0.000
 98  5  1 20 10 30.0000000  0  8  6  4  5  9 24  8 30 10            -0.000000106
  -3446864.647 8  -2523400.62245  24874837.120    24874837.1584   24874846.4844
        -0.000          -0.000
   5026268.390 9   4184805.49348  21763125.678    21763126.0314   21763132.1684
        -0.000          -0.000
 -16031755.192 9 -12476926.89348  20723096.107    20723095.8294   20723102.1074
        -0.000          -0.000
   3385136.802 9   2641578.29747  22234069.524    22234069.5244   22234076.8174
        -0.000          -0.000
 -10045016.197 9  -7606176.84549  20138563.106    20138563.0634   20138569.6004
        -0.000          -0.000
  -9457654.866 9  -7356862.87348  21582379.996    21582379.6494   21582386.6434
        -0.000          -0.000
 -13143641.123 9  -9816532.87946  23039515.133    23039515.4264   23039522.0254
        -0.000          -0.000
  -9477259.859 9  -7176141.05046  23351112.224    23351111.6324   23351122.0894
        -0.000          -0.000
 98  5  1 20 11  0.0000000  0  8  6  4  5  9 24  8 30 10            -0.000000128
  -3516856.394 8  -2577939.55545  24861518.036    24861518.0204   24861527.3394
        -0.000          -0.000
   5102925.526 9   4244538.30648  21777713.150    21777713.4534   21777719.5284
        -0.000          -0.000
 -16079995.465 9 -12514516.70348  20713916.355    20713916.0344   20713922.2844
        -0.000          -0.000
   3454357.154 9   2695516.18647  22247241.711    22247241.7354   22247249.0704
        -0.000          -0.000
 -10034606.673 9  -7598065.52149  20140543.965    20140543.9224   20140550.4654
        -0.000          -0.000
  -9449069.364 9  -7350172.90148  21584013.794    21584013.4884   21584020.3974
        -0.000          -0.000
 -13238114.564 9  -9890148.49346  23021537.383    23021537.6714   23021544.2724
        -0.000          -0.000
  -9570677.401 9  -7248933.75446  23333335.371    23333334.7794   23333345.0574
        -0.000          -0.000
 98  5  1 20 11 30.0000000  0  8  6  4  5  9 24  8 30 10            -0.000000151
  -3586792.746 8  -2632435.26045  24848209.361    24848209.5034   24848218.7264
        -0.000          -0.000
   5179885.084 9   4304506.77148  21792358.124    21792358.4344   21792364.5074
        -0.000          -0.000
 -16127867.776 9 -12551819.79548  20704806.534    20704806.2314   20704812.4554
        -0.000          -0.000
   3523900.436 9   2749705.70347  22260475.479    22260475.4534   22260482.7604
        -0.000          -0.000
 -10023682.528 9  -7589553.19049  20142622.763    20142622.7124   20142629.2494
        -0.000          -0.000
  -9439878.364 9  -7343011.10548  21585762.883    21585762.5774   21585769.4244
        -0.000          -0.000
 -13332468.384 9  -9963670.90246  23003582.449    23003582.7214   23003589.2884
        -0.000          -0.000
  -9663983.630 9  -7321639.71446  23315579.650    23315579.0814   23315589.3284
        -0.000          -0.000
 98  5  1 20 12  0.0000000  0  8  6  4  5  9 24  8 30 10            -0.000000176
  -3656682.672 8  -2686894.80745  24834909.502    24834909.7504   24834918.9994
        -0.000          -0.000
   5257142.422 9   4364707.26648  21807059.762    21807060.0664   21807066.1424
        -0.000          -0.000
 -16175368.933 9 -12588833.67848  20695767.383    20695767.0794   20695773.2954
        -0.000          -0.000
   3593755.862 9   2804138.44747  22273768.605    22273768.6114   22273775.8804
        -0.000          -0.000
 -10012240.193 9  -7580637.08349  20144800.140    20144800.0954   20144806.6444
        -0.000          -0.000
  -9430090.206 9  -7335383.99948  21587625.593    21587625.2484   21587632.1514
        -0.000          -0.000
 -13426692.563 9 -10037092.29846  22985652.080    22985652.3744   22985658.9424
        -0.000          -0.000
  -9757176.117 9  -7394257.06546  23297845.600    23297844.9684   23297855.1914
        -0.000          -0.000
 98  5  1 20 12 30.0000000  0  8  6  4  5  9 24  8 30 10            -0.000000202
  -3726533.019 8  -2741323.53545  24821617.485    24821617.6924   24821626.8114
        -0.000          -0.000
   5334721.633 9   4425158.57648  21821822.646    21821822.8964   21821828.9554
        -0.000          -0.000
 -16222468.182 9 -12625534.38448  20686804.758    20686804.4134   20686810.6344
        -0.000          -0.000
   3663951.298 9   2858836.13547  22287126.468    22287126.4834   22287133.6944
        -0.000          -0.000
 -10000258.429 9  -7571300.64349  20147080.199    20147080.1674   20147086.7384
        -0.000          -0.000
  -9419701.079 9  -7327288.60448  21589602.548    21589602.2694   21589609.2154
        -0.000          -0.000
 -13520779.851 9 -10110407.00846  22967747.802    22967748.1094   22967754.7514
        -0.000          -0.000
  -9850232.661 9  -7466768.47546  23280137.452    23280136.7184   23280146.8904
        -0.000          -0.000
 98  5  1 20 13  0.0000000  0  8  6  4  5  9 24  8 30 10            -0.000000220
  -3796336.099 8  -2795715.35145  24808334.105    24808334.2184   24808343.6894
        -0.000          -0.000
   5412659.129 9   4485889.07148  21836653.655    21836653.9394   21836659.9544
        -0.000          -0.000
 -16269138.996 9 -12661901.24048  20677923.554    20677923.2124   20677929.4954
        -0.000          -0.000
   3734531.578 9   2913833.70947  22300557.514    22300557.5254   22300564.7334
        -0.000          -0.000
  -9987717.328 9  -7561528.35049  20149466.706    20149466.6544   20149473.2074
        -0.000          -0.000
  -9408683.796 9  -7318703.74248  21591699.138    21591698.8584   21591705.7814
        -0.000          -0.000
 -13614715.021 9 -10183603.19046  22949872.414    22949872.8044   22949879.4834
        -0.000          -0.000
  -9943120.218 9  -7539148.21446  23262461.321    23262460.5254   23262470.7734
        -0.000          -0.000
 98  5  1 20 13 30.0000000  0  8  6  4  5  9 24  8 30 10            -0.000000209
  -3866064.149 8  -2850048.75645  24795064.982    24795065.1454   24795074.8454
        -0.000          -0.000
   5490967.157 9   4546908.29448  21851555.221    21851555.4634   21851561.4994
        -0.000          -0.000
 -16315365.049 9 -12697921.53449  20669126.985    20669126.6714   20669132.9504
        -0.000          -0.000
   3805527.266 9   2969154.97847  22314067.539    22314067.5724   22314074.7654
        -0.000          -0.000
  -9974603.634 9  -7551309.88049  20151962.103    20151962.0974   20151968.6874
        -0.000          -0.000
  -9397003.404 9  -7309602.16748  21593921.805    21593921.5294   21593928.5204
        -0.000          -0.000
 -13708465.781 9 -10256655.68046  22932032.305    22932032.6054   22932039.2914
        -0.000          -0.000
 -10035808.546 9  -7611372.70846  23244822.897    23244822.2954   23244832.5444
        -0.000          -0.000
 98  5  1 20 14  0.0000000  0  8  6  4  5  9 24  8 30 10            -0.000000168
  -3935716.072 8  -2904322.85545  24781810.741    24781810.7094   24781820.4504
        -0.000          -0.000
   5569635.255 9   4608208.08348  21866525.258    21866525.5194   21866531.5644
        -0.000          -0.000
 -16361152.372 9 -12733599.96249  20660413.969    20660413.6334   20660419.9134
        -0.000          -0.000
   3876920.021 9   3024785.64247  22327653.241    22327653.2474   22327660.4374
        -0.000          -0.000
  -9960926.112 9  -7540652.06949  20154564.904    20154564.8654   20154571.4714
        -0.000          -0.000
  -9384649.001 9  -7299975.39248  21596272.857    21596272.5224   21596279.5554
        -0.000          -0.000
 -13802022.476 9 -10329556.94646  22914228.929    22914229.2004   22914236.0024
        -0.000          -0.000
 -10128297.669 9  -7683441.99146  23227222.691    23227222.1094   23227232.3744
        -0.000          -0.000
 98  5  1 20 14 30.0000000  0  8  6  4  5  9 24  8 30 10            -0.000000163
  -4005387.142 8  -2958611.88345  24768552.718    24768552.5694   24768562.3164
        -0.000          -0.000
   5648545.292 9   4669696.38948  21881541.370    21881541.6644   21881547.6674
        -0.000          -0.000
 -16406598.634 9 -12769012.63349  20651765.829    20651765.4904   20651771.7674
        -0.000          -0.000
   3948605.135 9   3080644.10547  22341294.555    22341294.5434   22341301.7404
        -0.000          -0.000
  -9946796.151 9  -7529641.71149  20157253.754    20157253.7144   20157260.3114
        -0.000          -0.000
  -9371715.126 9  -7289897.08348  21598734.085    21598733.7284   21598740.8164
        -0.000          -0.000
 -13895473.248 9 -10402375.68246  22896445.543    22896445.9214   22896452.7784
        -0.000          -0.000
 -10220692.834 9  -7755438.05946  23209640.440    23209639.8114   23209650.0274
        -0.000          -0.000
 98  5  1 20 15  0.0000000  0  8  6  4  5  9 24  8 30 10            -0.000000155
  -4075010.933 8  -3012864.04845  24755303.408    24755303.3414   24755313.3004
        -0.000          -0.000
   5727723.752 9   4731393.86348  21896608.551    21896608.8334   21896614.8294
        -0.000          -0.000
 -16451670.443 9 -12804133.51549  20643188.932    20643188.6384   20643194.8734
        -0.000          -0.000
   4020618.769 9   3136758.57047  22354998.364    22354998.3364   22355005.5144
        -0.000          -0.000
  -9932181.275 9  -7518253.49449  20160034.840    20160034.8384   20160041.4294
        -0.000          -0.000
  -9358158.186 9  -7279333.26548  21601313.892    21601313.5424   21601320.6194
        -0.000          -0.000
 -13988752.094 9 -10475060.46546  22878695.100    22878695.5584   22878702.4064
        -0.000          -0.000
 -10312955.649 9  -7827330.99646  23192083.204    23192082.6254   23192092.7764
        -0.000          -0.000
 98  5  1 20 15 30.0000000  0  8  6  4  5  9 24  8 30 10            -0.000000138
  -4144584.351 8  -3067077.00345  24742063.678    24742063.7964   24742073.7784
        -0.000          -0.000
   5807153.710 9   4793287.32048  21911723.598    21911723.9094   21911729.9054
        -0.000          -0.000
 -16496368.612 9 -12838963.25049  20634683.201    20634682.8864   20634689.0654
        -0.000          -0.000
   4092935.866 9   3193109.49047  22368759.808    22368759.8204   22368767.0374
        -0.000          -0.000
  -9917098.914 9  -7506500.99949  20162904.942    20162904.9014   20162911.4574
        -0.000          -0.000
  -9343982.994 9  -7268287.67948  21604011.329    21604010.9354   21604018.0004
        -0.000          -0.000
 -14081840.066 9 -10547596.50746  22860981.023    22860981.5124   22860988.2794
        -0.000          -0.000
 -10405082.505 9  -7899118.01346  23174551.989    23174551.4424   23174561.3834
        -0.000          -0.000
 98  5  1 20 16  0.0000000  0  8  6  4  5  9 24  8 30 10            -0.000000114
  -4214121.139 8  -3121261.40945  24728831.245    24728831.2374   24728841.2294
        -0.000          -0.000
   5886839.486 9   4855380.10648  21926887.336    21926887.6414   21926893.6734
        -0.000          -0.000
 -16540687.729 9 -12873497.62549  20626249.573    20626249.2554   20626255.3844
        -0.000          -0.000
   4165540.984 9   3249684.84347  22382576.199    22382576.2154   22382583.4584
        -0.000          -0.000
  -9901557.123 9  -7494390.50949  20165862.441    20165862.4244   20165868.9824
        -0.000          -0.000
  -9329208.909 9  -7256775.43848  21606822.743    21606822.4184   21606829.4744
        -0.000          -0.000
 -14174753.300 9 -10619996.38247  22843300.219    22843300.6324   22843307.4504
        -0.000          -0.000
 -10497073.147 9  -7970798.86446  23157046.760    23157046.1014   23157056.0484
        -0.000          -0.000
 98  5  1 20 16 30.0000000  0  8  6  4  5  9 24  8 30 10            -0.000000087
  -4283645.199 8  -3175435.91345  24715601.194    24715601.0054   24715611.1454
        -0.000          -0.000
   5966789.329 9   4917678.65248  21942101.323    21942101.6494   21942107.7134
        -0.000          -0.000
 -16584644.507 9 -12907749.65849  20617884.874    20617884.5754   20617890.7244
        -0.000          -0.000
   4238433.581 9   3306484.19547  22396447.277    22396447.2924   22396454.5414
        -0.000          -0.000
  -9885574.373 9  -7481936.42449  20168903.837    20168903.7894   20168910.3414
        -0.000          -0.000
  -9313872.901 9  -7244825.33348  21609741.137    21609740.7584   21609747.7474
        -0.000          -0.000
 -14267518.982 9 -10692281.30047  22825647.412    22825647.8834   22825654.6674
        -0.000          -0.000
 -10588926.375 9  -8042372.65946  23139567.648    23139566.9114   23139576.8384
        -0.000          -0.000
 98  5  1 20 17  0.0000000  0  8  6  4  5  9 24  8 30 10            -0.000000061
  -4353182.970 8  -3229621.10345  24702368.537    24702368.4964   24702378.5774
        -0.000          -0.000
   6046993.245 9   4980175.19148  21957363.698    21957363.9934   21957370.0824
        -0.000          -0.000
 -16628267.519 9 -12941741.60649  20609583.702    20609583.3924   20609589.5274
        -0.000          -0.000
   4311580.415 9   3363481.66447  22410366.737    22410366.7464   22410374.0374
        -0.000          -0.000
  -9869187.095 9  -7469167.10549  20172022.166    20172022.1304   20172028.7284
        -0.000          -0.000
  -9298001.492 9  -7232458.02347  21612761.317    21612760.9974   21612767.9364
        -0.000          -0.000
 -14360177.280 9 -10764482.51847  22808015.069    22808015.5994   22808022.3424
        -0.000          -0.000
 -10680652.505 9  -8113847.41246  23122112.622    23122111.9054   23122121.7744
        -0.000          -0.000
 98  5  1 20 17 30.0000000  0  8  6  4  5  9 24  8 30 10            -0.000000044
  -4422731.155 9  -3283814.39945  24689133.818    24689134.0584   24689143.7024
        -0.000          -0.000
   6127466.189 9   5042881.34548  21972677.240    21972677.5024   21972683.6114
        -0.000          -0.000
 -16671525.010 9 -12975448.74349  20601352.121    20601351.8014   20601357.9224
        -0.000          -0.000
   4384986.452 9   3420681.10847  22424335.524    22424335.5154   22424342.8084
        -0.000          -0.000
  -9852377.628 9  -7456068.82249  20175220.901    20175220.8754   20175227.4674
        -0.000          -0.000
  -9281577.703 9  -7219660.29547  21615886.657    21615886.3344   21615893.3164
        -0.000          -0.000
 -14452728.862 9 -10836600.60447  22790403.034    22790403.5124   22790410.3074
        -0.000          -0.000
 -10772243.959 9  -8185217.23146  23104683.194    23104682.4914   23104692.4054
        -0.000          -0.000
 98  5  1 20 18  0.0000000  0  8  6  4  5  9 24  8 30 10            -0.000000045
  -4492292.047 8  -3338017.58745  24675896.848    24675897.0524   24675906.5504
        -0.000          -0.000
   6208208.940 9   5105797.75448  21988041.987    21988042.2954   21988048.4894
        -0.000          -0.000
 -16714420.475 9 -13008873.77049  20593189.373    20593189.0324   20593195.1394
        -0.000          -0.000
   4458654.758 9   3478084.92447  22438354.200    22438354.2104   22438361.5244
        -0.000          -0.000
  -9835128.719 9  -7442628.11149  20178503.297    20178503.2334   20178509.8444
        -0.000          -0.000
  -9264614.664 9  -7206442.36747  21619114.663    21619114.3194   21619121.3274
        -0.000          -0.000
 -14545190.580 9 -10908648.65347  22772808.195    22772808.6724   22772815.3924
        -0.000          -0.000
 -10863707.817 9  -8256487.62146  23087278.102    23087277.3914   23087287.1994
        -0.000          -0.000
 98  5  1 20 18 30.0000000  0  8  6  4  5  9 24  8 30 10            -0.000000054
  -4561841.400 8  -3392211.80845  24662661.941    24662662.1144   24662671.6214
        -0.000          -0.000
   6289230.366 9   5168931.30448  22003459.839    22003460.1714   22003466.3224
        -0.000          -0.000
 -16756925.113 9 -13041994.26849  20585100.922    20585100.6114   20585106.7164
        -0.000          -0.000
   4532618.185 9   3535718.69347  22452429.079    22452429.1064   22452436.3404
        -0.000          -0.000
  -9817409.016 9  -7428820.54949  20181875.191    20181875.1594   20181881.7754
        -0.000          -0.000
  -9247072.185 9  -7192772.92747  21622452.817    21622452.4884   21622459.5314
        -0.000          -0.000
 -14637529.793 9 -10980601.23747  22755236.686    22755237.0774   22755243.7964
        -0.000          -0.000
 -10955015.978 9  -8327636.69646  23069902.580    23069901.8994   23069911.6554
        -0.000          -0.000
 98  5  1 20 19  0.0000000  0  8  6  4  5  9 24  8 30 10            -0.000000066
  -4631334.862 9  -3446362.45645  24649437.709    24649437.8894   24649447.1924
        -0.000          -0.000
   6370550.304 9   5232297.46148  22018934.497    22018934.8294   22018940.9724
        -0.000          -0.000
 -16798975.109 9 -13074760.50049  20577099.060    20577098.7414   20577104.8524
        -0.000          -0.000
   4606921.543 9   3593617.34847  22466568.594    22466568.6084   22466575.8204
        -0.000          -0.000
  -9799163.445 9  -7414603.22949  20185347.261    20185347.2054   20185353.8024
        -0.000          -0.000
  -9228880.939 9  -7178597.94847  21625914.548    21625914.2614   21625921.2254
        -0.000          -0.000
 -14729687.615 9 -11052412.49947  22737699.614    22737700.0084   22737706.6944
        -0.000          -0.000
 -11046137.424 9  -8398640.27346  23052562.629    23052561.9144   23052571.6474
        -0.000          -0.000
 98  5  1 20 19 30.0000000  0  8  6  4  5  9 24  8 30 10            -0.000000102
  -4700802.772 8  -3500493.18645  24636218.374    24636218.6314   24636227.9264
        -0.000          -0.000
   6452128.368 9   5295864.75748  22034458.278    22034458.6124   22034464.7984
        -0.000          -0.000
 -16840601.492 9 -13107196.64449  20569177.787    20569177.4954   20569183.6114
        -0.000          -0.000
   4681533.253 9   3651756.28047  22480766.770    22480766.7494   22480773.9814
        -0.000          -0.000
  -9780419.002 9  -7399997.16349  20188914.176    20188914.1364   20188920.7244
        -0.000          -0.000
  -9210078.836 9  -7163946.99847  21629492.559    21629492.2244   21629499.2164
        -0.000          -0.000
 -14821670.822 9 -11124087.68247  22720195.779    22720196.1664   22720202.8014
        -0.000          -0.000
 -11137112.623 9  -8469529.88946  23035250.441    23035249.7394   23035259.4824
        -0.000          -0.000
 98  5  1 20 20  0.0000000  0  8  6  4  5  9 24  8 30 10            -0.000000137
  -4770216.987 9  -3554582.05845  24623009.212    24623009.5254   24623018.6024
        -0.000          -0.000
   6533980.003 9   5359645.22148  22050034.198    22050034.4994   22050040.7184
        -0.000          -0.000
 -16881797.538 9 -13139297.45949  20561338.460    20561338.1524   20561344.2654
        -0.000          -0.000
   4756473.043 9   3710150.85747  22495027.397    22495027.3674   22495034.5514
        -0.000          -0.000
  -9761159.713 9  -7384989.92749  20192579.104    20192579.0484   20192585.6634
        -0.000          -0.000
  -9190638.378 9  -7148798.62148  21633191.963    21633191.6234   21633198.6934
        -0.000          -0.000
 -14913453.319 9 -11195606.47147  22702730.136    22702730.4874   22702737.1124
        -0.000          -0.000
 -11227904.850 9  -8540276.95146  23017973.166    23017972.4394   23017982.1914
        -0.000          -0.000
 98  5  1 20 20 30.0000000  0  8  6  4  5  9 24  8 30 10            -0.000000162
  -4839572.849 9  -3608625.46945  24609811.430    24609811.6424   24609820.2784
        -0.000          -0.000
   6616116.022 9   5423647.27648  22065664.269    22065664.5384   22065670.7104
        -0.000          -0.000
 -16922552.277 9 -13171054.40349  20553583.056    20553582.7614   20553588.9204
        -0.000          -0.000
   4831733.607 9   3768795.38347  22509349.093    22509349.0424   22509356.1984
        -0.000          -0.000
  -9741387.561 9  -7369583.05949  20196341.600    20196341.5644   20196348.1794
        -0.000          -0.000
  -9170544.281 9  -7133140.91348  21637015.809    21637015.4664   21637022.4884
        -0.000          -0.000
 -15005017.979 9 -11266955.53947  22685306.032    22685306.3594   22685312.8114
        -0.000          -0.000
 -11318499.561 9  -8610870.11346  23000733.434    23000732.8044   23000742.4974
        -0.000          -0.000
 98  5  1 20 21  0.0000000  0  8  6  4  5  9 24  8 30 10            -0.000000180
  -4908881.864 9  -3662632.40045  24596622.525    24596622.4834   24596631.3154
        -0.000          -0.000
   6698510.850 9   5487851.00548  22081343.554    22081343.8344   22081349.9814
        -0.000          -0.000
 -16962898.896 9 -13202493.33249  20545905.376    20545905.0664   20545911.2564
        -0.000          -0.000
   4907259.367 9   3827646.55847  22523721.202    22523721.1924   22523728.3794
        -0.000          -0.000
  -9721143.911 9  -7353808.79149  20200193.857    20200193.8274   20200200.4154
        -0.000          -0.000
  -9149842.266 9  -7117009.50347  21640955.289    21640954.9194   21640961.9914
        -0.000          -0.000
 -15096386.237 9 -11338151.55247  22667919.294    22667919.5754   22667925.9804
        -0.000          -0.000
 -11408926.014 9  -8681332.16746  22983525.788    22983525.2074   22983534.8404
        -0.000          -0.000
 98  5  1 20 21 30.0000000  0  8  6  4  5  9 24  8 30 10            -0.000000191
  -4978147.984 9  -3716605.88745  24583441.367    24583441.4984   24583450.2184
        -0.000          -0.000
   6781143.709 9   5552240.21148  22097068.145    22097068.3884   22097074.5114
        -0.000          -0.000
 -17002859.402 9 -13233631.38949  20538301.132    20538300.8004   20538306.9634
        -0.000          -0.000
   4983016.400 9   3886677.94547  22538137.260    22538137.2824   22538144.4714
        -0.000          -0.000
  -9700451.375 9  -7337684.73849  20204131.505    20204131.4614   20204138.0144
        -0.000          -0.000
  -9128579.516 9  -7100441.16647  21645001.439    21645001.1274   21645008.1984
        -0.000          -0.000
 -15187589.632 9 -11409219.10347  22650563.763    22650564.0714   22650570.4694
        -0.000          -0.000
 -11499184.832 9  -8751663.58446  22966349.988    22966349.3784   22966359.0994
        -0.000          -0.000
 98  5  1 20 22  0.0000000  0  8  6  4  5  9 24  8 30 10            -0.000000200
  -5047388.411 9  -3770559.37845  24570265.347    24570265.3794   24570273.8424
        -0.000          -0.000
   6864015.442 9   5616815.54948  22112838.108    22112838.3814   22112844.4954
        -0.000          -0.000
 -17042434.974 9 -13264469.49749  20530770.122    20530769.8144   20530775.9454
        -0.000          -0.000
   5059004.194 9   3945889.14647  22552597.329    22552597.3124   22552604.5474
        -0.000          -0.000
  -9679310.430 9  -7321211.28049  20208154.503    20208154.4764   20208161.0374
        -0.000          -0.000
  -9106758.116 9  -7083437.50847  21649154.046    21649153.6534   21649160.7644
        -0.000          -0.000
 -15278642.433 9 -11480169.30147  22633236.995    22633237.3364   22633243.7274
        -0.000          -0.000
 -11589264.545 9  -8821855.44446  22949208.307    22949207.6454   22949217.3534
        -0.000          -0.000
 98  5  1 20 22 30.0000000  0  8  6  4  5  9 24  8 30 10            -0.000000194
  -5116591.291 9  -3824483.59045  24557096.586    24557096.4774   24557105.1744
        -0.000          -0.000
   6947148.094 9   5681594.20248  22128657.727    22128658.0794   22128664.2224
        -0.000          -0.000
 -17081601.117 9 -13294988.56549  20523317.060    20523316.7434   20523322.8984
        -0.000          -0.000
   5135239.503 9   4005293.21347  22567104.449    22567104.4194   22567111.7694
        -0.000          -0.000
  -9657711.538 9  -7304380.97449  20212264.644    20212264.6304   20212271.1794
        -0.000          -0.000
  -9084372.614 9  -7065994.28747  21653413.686    21653413.3844   21653420.5144
        -0.000          -0.000
 -15369512.369 9 -11550977.01447  22615945.053    22615945.3464   22615951.6924
        -0.000          -0.000
 -11679153.489 9  -8891898.65546  22932102.856    22932102.1464   22932111.8724
        -0.000          -0.000
 98  5  1 20 23  0.0000000  0  8  6  4  5  9 24  8 30 10            -0.000000140
  -5185685.485 9  -3878323.14445  24543948.101    24543948.0794   24543956.9234
        -0.000          -0.000
   7030584.315 9   5746609.40548  22144535.115    22144535.4674   22144541.6234
        -0.000          -0.000
 -17120287.827 9 -13325134.04749  20515955.185    20515954.8904   20515961.0754
        -0.000          -0.000
   5211811.388 9   4064959.56247  22581675.554    22581675.5724   22581682.9304
        -0.000          -0.000
  -9635592.889 9  -7287145.66249  20216473.709    20216473.6774   20216480.2354
        -0.000          -0.000
  -9061354.217 9  -7048057.90347  21657793.956    21657793.6814   21657800.7774
        -0.000          -0.000
 -15460126.558 9 -11621585.42747  22598701.689    22598702.0544   22598708.3734
        -0.000          -0.000
 -11768784.594 9  -8961740.94846  22915046.482    22915045.8244   22915055.5274
        -0.000          -0.000
 98  5  1 20 23 30.0000000  0  8  6  4  5  9 24  8 30 10            -0.000000120
  -5254814.037 8  -3932189.45245  24530793.169    24530793.1354   24530801.9044
        -0.000          -0.000
   7114211.832 9   5811773.66848  22160448.979    22160449.2904   22160455.4544
        -0.000          -0.000
 -17158620.826 9 -13355003.91349  20508660.671    20508660.4004   20508666.5534
        -0.000          -0.000
   5288626.166 9   4124815.16747  22596292.878    22596292.8924   22596300.3594
        -0.000          -0.000
  -9613061.950 9  -7269589.08849  20220761.183    20220761.1684   20220767.7384
        -0.000          -0.000
  -9037817.322 9  -7029717.50147  21662272.924    21662272.6004   21662279.7804
        -0.000          -0.000
 -15550608.670 9 -11692090.94547  22581483.428    22581483.8044   22581490.1184
        -0.000          -0.000
 -11858270.787 9  -9031470.33046  22898017.794    22898017.1134   22898026.7974
        -0.000          -0.000
 98  5  1 20 24  0.0000000  0  8  6  4  5  9 24  8 30 10            -0.000000039
  -5323835.180 8  -3985972.07245  24517658.862    24517658.8284   24517667.5764
        -0.000          -0.000
   7198181.211 9   5877204.31648  22176427.884    22176428.1684   22176434.3304
        -0.000          -0.000
 -17196451.060 9 -13384482.00849  20501461.864    20501461.5644   20501467.6814
        -0.000          -0.000
   5365836.931 9   4184979.33147  22610985.624    22610985.6414   22610993.1104
        -0.000          -0.000
  -9589975.980 9  -7251600.01949  20225154.317    20225154.2974   20225160.8684
        -0.000          -0.000
  -9013595.400 9  -7010843.30647  21666882.256    21666881.9504   21666889.0524
        -0.000          -0.000
 -15640796.858 9 -11762367.42347  22564321.193    22564321.5354   22564327.7614
        -0.000          -0.000
 -11947462.640 9  -9100970.36246  22881045.105    22881044.4334   22881054.0704
        -0.000          -0.000
 98  5  1 20 24 30.0000000  0  8  6  4  5  9 24  8 30 10            -0.000000034
  -5392938.932 8  -4039819.02945  24504508.689    24504508.6324   24504517.5534
        -0.000          -0.000
   7282264.083 9   5942723.41447  22192428.423    22192428.6514   22192434.7514
        -0.000          -0.000
 -17233973.921 9 -13413720.59249  20494321.516    20494321.2274   20494327.3244
        -0.000          -0.000
   5443227.237 9   4245283.40647  22625712.586    22625712.6054   22625720.0544
        -0.000          -0.000
  -9566545.766 9  -7233342.70849  20229612.913    20229612.9104   20229619.5104
        -0.000          -0.000
  -8988904.649 9  -6991603.78947  21671580.732    21671580.4474   21671587.4914
        -0.000          -0.000
 -15730907.111 9 -11832583.16147  22547173.718    22547174.1764   22547180.3444
        -0.000          -0.000
 -12036567.262 9  -9170402.40646  22864089.013    22864088.3124   22864097.9044
        -0.000          -0.000
 98  5  1 20 25  0.0000000  0  8  6  4  5  9 24  8 30 10            -0.000000022
  -5461995.947 8  -4093629.59345  24491367.560    24491367.3794   24491376.5004
        -0.000          -0.000
   7366591.806 9   6008433.29347  22208475.425    22208475.7024   22208481.7544
        -0.000          -0.000
 -17271049.815 9 -13442610.89449  20487266.228    20487265.9414   20487272.0364
        -0.000          -0.000
   5520927.943 9   4305829.34547  22640498.552    22640498.5494   22640506.0924
        -0.000          -0.000
  -9542628.402 9  -7214705.80149  20234164.269    20234164.2694   20234170.8784
        -0.000          -0.000
  -8963608.589 9  -6971892.60547  21676394.444    21676394.2044   21676401.2024
        -0.000          -0.000
 -15820811.178 9 -11902638.25547  22530065.549    22530066.0504   22530072.1254
        -0.000          -0.000
 -12125435.922 9  -9239650.59746  22847177.612    22847177.0094   22847186.5114
        -0.000          -0.000
 98  5  1 20 25 30.0000000  0  8  6  4  5  9 24  8 30 10            -0.000000007
  -5531014.678 9  -4147410.30545  24478233.688    24478233.4924   24478242.6364
        -0.000          -0.000
   7451170.370 9   6074338.62847  22224570.184    22224570.4704   22224576.5374
        -0.000          -0.000
 -17307683.648 9 -13471156.74149  20480295.107    20480294.8074   20480300.8934
        -0.000          -0.000
   5598898.654 9   4366585.67047  22655335.848    22655335.9074   22655343.5194
        -0.000          -0.000
  -9518229.974 9  -7195694.04349  20238807.151    20238807.1554   20238813.7344
        -0.000          -0.000
  -8937735.855 9  -6951732.07647  21681317.928    21681317.6664   21681324.7384
        -0.000          -0.000
 -15910530.079 9 -11972549.05647  22512992.792    22512993.1494   22512999.2214
        -0.000          -0.000
 -12214077.191 9  -9308721.58346  22830309.710    22830309.0564   22830318.5054
        -0.000          -0.000
 98  5  1 20 26  0.0000000  0  8  6  4  5  9 24  8 30 10             0.000000012
  -5599979.497 8  -4201149.04045  24465109.899    24465109.9674   24465118.8734
        -0.000          -0.000
   7535992.521 9   6140433.77647  22240711.278    22240711.5564   22240717.6594
        -0.000          -0.000
 -17343854.685 9 -13499341.96349  20473411.969    20473411.6624   20473417.7904
        -0.000          -0.000
   5677128.016 9   4427543.54847  22670222.410    22670222.4714   22670230.1714
        -0.000          -0.000
  -9493352.849 9  -7176309.27249  20243541.148    20243541.1184   20243547.7254
        -0.000          -0.000
  -8911285.232 9  -6931121.23947  21686351.360    21686351.1414   21686358.1684
        -0.000          -0.000
 -16000055.433 9 -12042309.04347  22495956.648    22495957.0234   22495963.1044
        -0.000          -0.000
 -12302489.011 9  -9377613.78047  22813485.534    22813484.7544   22813494.1434
        -0.000          -0.000
 98  5  1 20 26 30.0000000  0  8  6  4  5  9 24  8 30 10             0.000000014
  -5668928.519 9  -4254875.46945  24451989.188    24451989.4104   24451998.2674
        -0.000          -0.000
   7621034.578 9   6206700.28347  22256894.214    22256894.5134   22256900.6244
        -0.000          -0.000
 -17379591.210 9 -13527188.60149  20466611.478    20466611.2004   20466617.3204
        -0.000          -0.000
   5755590.306 9   4488682.92447  22685153.437    22685153.4554   22685161.1634
        -0.000          -0.000
  -9468025.906 9  -7156573.99749  20248360.694    20248360.6824   20248367.2884
        -0.000          -0.000
  -8884288.444 9  -6910084.80347  21691488.753    21691488.4654   21691495.4834
        -0.000          -0.000
 -16089410.132 9 -12111936.05247  22478953.063    22478953.3754   22478959.4694
        -0.000          -0.000
 -12390703.361 9  -9446352.13247  22796698.847    22796698.0854   22796707.3134
        -0.000          -0.000
 98  5  1 20 27  0.0000000  0  8  6  4  5  9 24  8 30 10             0.000000025
  -5737846.339 9  -4308577.56245  24438874.532    24438874.6794   24438883.6124
        -0.000          -0.000
   7706345.622 9   6273176.39147  22273128.429    22273128.6744   22273134.8164
        -0.000          -0.000
 -17414878.054 9 -13554684.84849  20459896.669    20459896.3684   20459902.4924
        -0.000          -0.000
   5834314.223 9   4550026.16347  22700134.226    22700134.2444   22700141.9284
        -0.000          -0.000
  -9442214.960 9  -7136461.58149  20253272.382    20253272.3514   20253279.0124
        -0.000          -0.000
  -8856708.032 9  -6888593.61647  21696737.247    21696736.9414   21696743.9754
        -0.000          -0.000
 -16178551.680 9 -12181396.97947  22461989.914    22461990.2084   22461996.4394
        -0.000          -0.000
 -12478684.740 9  -9514908.92047  22779956.368    22779955.6754   22779964.9394
        -0.000          -0.000
 98  5  1 20 27 30.0000000  0  8  6  4  5  9 24  8 30 10             0.000000026
  -5806756.564 9  -4362273.77145  24425761.264    24425761.4274   24425770.3934
        -0.000          -0.000
   7791883.786 9   6339829.47347  22289405.675    22289405.9664   22289412.1874
        -0.000          -0.000
 -17449751.150 9 -13581858.68849  20453260.521    20453260.2134   20453266.3824
        -0.000          -0.000
   5913271.053 9   4611550.90147  22715159.250    22715159.2924   22715167.0424
        -0.000          -0.000
  -9415965.760 9  -7116007.66049  20258267.406    20258267.3834   20258274.0514
        -0.000          -0.000
  -8828583.760 9  -6866678.63147  21702089.178    21702088.8574   21702095.8954
        -0.000          -0.000
 -16267514.763 9 -12250718.83447  22445060.660    22445061.0474   22445067.3534
        -0.000          -0.000
 -12566472.436 9  -9583314.79347  22763250.773    22763250.0804   22763259.2914
        -0.000          -0.000
 98  5  1 20 28  0.0000000  0  8  6  4  5  9 24  8 30 10             0.000000030
  -5875648.819 9  -4415955.96045  24412651.500    24412651.6334   24412660.6484
        -0.000          -0.000
   7877657.764 9   6406666.30947  22305727.887    22305728.1964   22305734.4584
        -0.000          -0.000
 -17484198.876 9 -13608701.06849  20446705.359    20446705.0514   20446711.2264
        -0.000          -0.000
   5992489.178 9   4673279.25147  22730233.995    22730234.1064   22730241.8284
        -0.000          -0.000
  -9389273.663 9  -7095208.62449  20263346.783    20263346.7674   20263353.4254
        -0.000          -0.000
  -8799880.797 9  -6844312.71747  21707550.998    21707550.7554   21707557.9024
        -0.000          -0.000
 -16356269.231 9 -12319878.13047  22428171.200    22428171.5604   22428177.9314
        -0.000          -0.000
 -12654042.043 9  -9651550.74147  22746586.638    22746586.0264   22746595.0814
        -0.000          -0.000
 98  5  1 20 28 30.0000000  0  8  6  4  5  9 24  8 30 10             0.000000094
  -5944446.971 9  -4469564.84445  24399559.660    24399559.8374   24399568.6484
        -0.000          -0.000
   7963732.863 9   6473737.76947  22322107.545    22322107.8364   22322114.0494
        -0.000          -0.000
 -17518160.200 9 -13635164.44649  20440242.762    20440242.4354   20440248.5954
        -0.000          -0.000
   6072035.293 9   4735263.16347  22745371.233    22745371.3174   22745379.0414
        -0.000          -0.000
  -9362077.092 9  -7074016.49849  20268522.080    20268522.0844   20268528.7504
        -0.000          -0.000
  -8770527.270 9  -6821439.89447  21713136.957    21713136.6984   21713143.7834
        -0.000          -0.000
 -16444729.759 9 -12388808.38947  22411337.710    22411338.0634   22411344.4734
        -0.000          -0.000
 -12741315.718 9  -9719556.08047  22729978.995    22729978.3034   22729987.2664
        -0.000          -0.000
 98  5  1 20 29  0.0000000  0  8  6  4  5  9 24  8 30 10             0.000000084
  -6013346.315 9  -4523252.57745  24386448.478    24386448.6834   24386457.5144
        -0.000          -0.000
   8049887.552 9   6540871.25947  22338502.302    22338502.5664   22338508.7654
        -0.000          -0.000
 -17551833.725 9 -13661403.55449  20433834.881    20433834.5714   20433840.7214
        -0.000          -0.000
   6151694.657 9   4797335.32147  22760529.927    22760530.0334   22760537.6784
        -0.000          -0.000
  -9334592.863 9  -7052600.21549  20273752.190    20273752.1534   20273758.8224
        -0.000          -0.000
  -8740737.658 9  -6798227.24347  21718805.803    21718805.4944   21718812.5974
        -0.000          -0.000
 -16533094.275 9 -12457663.82647  22394522.369    22394522.8554   22394529.3154
        -0.000          -0.000
 -12828503.566 9  -9787494.54647  22713387.650    22713386.9404   22713395.8594
        -0.000          -0.000
 98  5  1 20 29 30.0000000  0  8  6  4  5  9 24  8 30 10             0.000000058
  -6082235.793 9  -4576932.60545  24373339.024    24373339.2494   24373348.0664
        -0.000          -0.000
   8136208.282 9   6608134.13747  22354928.681    22354928.8954   22354935.0454
        -0.000          -0.000
 -17585099.091 9 -13687324.62249  20427504.660    20427504.3334   20427510.5274
        -0.000          -0.000
   6231551.938 9   4859561.70747  22775726.396    22775726.4634   22775734.0514
        -0.000          -0.000
  -9306735.065 9  -7030892.84449  20279053.322    20279053.2944   20279059.9764
        -0.000          -0.000
  -8710416.440 9  -6774600.35847  21724575.771    21724575.4694   21724582.5914
        -0.000          -0.000
 -16621252.666 9 -12526358.64447  22377746.455    22377746.8584   22377753.3074
        -0.000          -0.000
 -12915514.988 9  -9855295.53447  22696829.802    22696829.1224   22696838.0364
        -0.000          -0.000
 98  5  1 20 30  0.0000000  0  8  6  4  5  9 24  8 30 10             0.000000099
  -6150991.311 9  -4630508.26945  24360255.344    24360255.4664   24360264.1894
        -0.000          -0.000
   8222832.944 9   6675633.83147  22371412.740    22371412.9934   22371419.2174
        -0.000          -0.000
 -17617816.456 9 -13712818.68049  20421278.723    20421278.4234   20421284.6394
        -0.000          -0.000
   6311727.596 9   4922036.17347  22790983.342    22790983.4404   22790991.0244
        -0.000          -0.000
  -9278355.927 9  -7008779.23649  20284453.634    20284453.6454   20284460.3324
        -0.000          -0.000
  -8679415.336 9  -6750443.69647  21730475.190    21730474.8254   21730481.9504
        -0.000          -0.000
 -16709050.080 9 -12594772.19047  22361039.225    22361039.6444   22361046.0724
        -0.000          -0.000
 -13002203.211 9  -9922844.69047  22680333.632    22680332.9134   22680341.7034
        -0.000          -0.000
 98  5  1 20 30 30.0000000  0  8  6  4  5  9 24  8 30 10             0.000000074
  -6219810.776 8  -4684133.76545  24347159.415    24347159.5134   24347168.1854
        -0.000          -0.000
   8309558.954 9   6743212.50347  22387916.070    22387916.3984   22387922.6974
        -0.000          -0.000
 -17650169.277 9 -13738028.67449  20415122.184    20415121.9054   20415128.0964
        -0.000          -0.000
   6392017.130 9   4984599.37747  22806262.098    22806262.1434   22806269.6824
        -0.000          -0.000
  -9249647.365 9  -6986408.92949  20289916.736    20289916.7034   20289923.3944
        -0.000          -0.000
  -8647938.577 9  -6725916.39447  21736465.057    21736464.6694   21736471.8194
        -0.000          -0.000
 -16796685.489 9 -12663059.48547  22344362.813    22344363.1994   22344369.6424
        -0.000          -0.000
 -13088757.433 9  -9990289.42747  22663862.844    22663862.1454   22663870.9364
        -0.000          -0.000
 98  5  1 20 31  0.0000000  0  8  6  4  5  9 24  8 30 10             0.000000034
  -6288606.444 9  -4737740.72245  24334067.940    24334067.9964   24334076.7114
        -0.000          -0.000
   8396469.392 9   6810934.88647  22404454.522    22404454.8894   22404461.2724
        -0.000          -0.000
 -17682071.517 9 -13762887.56049  20409051.400    20409051.1084   20409057.3364
        -0.000          -0.000
   6472492.770 9   5047307.60147  22821576.322    22821576.2224   22821583.6944
        -0.000          -0.000
  -9220528.188 9  -6963718.66149  20295457.966    20295457.9274   20295464.6254
        -0.000          -0.000
  -8615901.894 9  -6700952.78247  21742561.379    21742561.0584   21742568.1974
        -0.000          -0.000
 -16884095.328 9 -12731171.01447  22327729.267    22327729.6744   22327736.0854
        -0.000          -0.000
 -13175091.044 9 -10057562.25147  22647434.070    22647433.3394   22647442.2114
        -0.000          -0.000
 98  5  1 20 31 30.0000000  0  8  6  4  5  9 24  8 30 10            -0.000000029
  -6357402.210 9  -4791347.75345  24320976.455    24320976.4884   24320985.2084
        -0.000          -0.000
   8483548.391 9   6878788.60747  22421025.079    22421025.4974   22421031.9164
        -0.000          -0.000
 -17713547.608 9 -13787414.38849  20403061.646    20403061.3854   20403067.6374
        -0.000          -0.000
   6553137.086 9   5110147.25747  22836922.485    22836922.3984   22836929.9354
        -0.000          -0.000
  -9191007.625 9  -6940715.62849  20301075.528    20301075.5084   20301082.1424
        -0.000          -0.000
  -8583322.450 9  -6675566.23847  21748761.095    21748760.7574   21748767.8664
        -0.000          -0.000
 -16971319.784 9 -12799138.09947  22311131.018    22311131.3754   22311137.7254
        -0.000          -0.000
 -13261202.053 9 -10124661.62547  22631047.539    22631046.8834   22631055.7394
        -0.000          -0.000
 98  5  1 20 32  0.0000000  0  8  6  4  5  9 24  8 30 10            -0.000000087
  -6426161.002 9  -4844925.97345  24307892.010    24307892.0974   24307900.6074
        -0.000          -0.000
   8570834.360 9   6946803.60947  22437635.128    22437635.4984   22437641.9204
        -0.000          -0.000
 -17744571.263 9 -13811588.66849  20397158.142    20397157.8214   20397164.0454
        -0.000          -0.000
   6634012.957 9   5173167.35747  22852312.681    22852312.6134   22852320.1944
        -0.000          -0.000
  -9161037.522 9  -6917362.30649  20306778.690    20306778.6504   20306785.2764
        -0.000          -0.000
  -8550164.361 9  -6649728.80347  21755070.864    21755070.5084   21755077.6514
        -0.000          -0.000
 -17058336.376 9 -12866943.20847  22294572.440    22294572.7484   22294578.9604
        -0.000          -0.000
 -13347031.569 9 -10191541.66947  22614714.624    22614713.9594   22614722.7374
        -0.000          -0.000
 98  5  1 20 32 30.0000000  0  8  6  4  5  9 24  8 30 10            -0.000000098
  -6494827.582 9  -4898432.34446  24294825.196    24294825.3134   24294833.5924
        -0.000          -0.000
   8658376.473 9   7015018.20147  22454293.923    22454294.2354   22454300.6204
        -0.000          -0.000
 -17775101.062 9 -13835378.12149  20391348.519    20391348.1934   20391354.4384
        -0.000          -0.000
   6715175.180 9   5236410.55947  22867757.341    22867757.3014   22867765.0044
        -0.000          -0.000
  -9130590.936 9  -6893637.69749  20312572.465    20312572.4394   20312579.0484
        -0.000          -0.000
  -8516396.996 9  -6623416.60747  21761496.600    21761496.2594   21761503.4424
        -0.000          -0.000
 -17145124.501 9 -12934570.29147  22278057.192    22278057.5514   22278063.6874
        -0.000          -0.000
 -13432533.074 9 -10258166.11647  22598444.174    22598443.4944   22598452.1944
        -0.000          -0.000
 98  5  1 20 33  0.0000000  0  8  6  4  5  9 24  8 30 10            -0.000000071
  -6563427.101 9  -4951886.43946  24281771.138    24281771.2504   24281779.5214
        -0.000          -0.000
   8746168.894 9   7083427.83947  22471000.260    22471000.6404   22471006.9974
        -0.000          -0.000
 -17805167.173 9 -13858806.25749  20385627.101    20385626.7844   20385633.0424
        -0.000          -0.000
   6796613.896 9   5299869.23747  22883254.655    22883254.6324   22883262.3734
        -0.000          -0.000
  -9099676.909 9  -6869548.84549  20318455.263    20318455.2164   20318461.8054
        -0.000          -0.000
  -8482049.189 9  -6596652.11647  21768032.828    21768032.4454   21768039.6394
        -0.000          -0.000
 -17231699.479 9 -13002031.29147  22261582.606    22261582.9174   22261588.9244
        -0.000          -0.000
 -13517730.873 9 -10324553.90447  22582231.504    22582230.8074   22582239.5284
        -0.000          -0.000
 98  5  1 20 33 30.0000000  0  8  6  4  5  9 24  8 30 10            -0.000000060
  -6632055.671 9  -5005363.17946  24268711.399    24268711.5514   24268720.0474
        -0.000          -0.000
   8834141.096 9   7151977.57047  22487740.962    22487741.2804   22487747.5954
        -0.000          -0.000
 -17834835.222 9 -13881924.21949  20379981.488    20379981.1634   20379987.3954
        -0.000          -0.000
   6878266.159 9   5363494.29047  22898792.601    22898792.5964   22898800.3664
        -0.000          -0.000
  -9068357.190 9  -6845143.87849  20324415.158    20324415.1204   20324421.7324
        -0.000          -0.000
  -8447211.402 9  -6569505.82847  21774662.185    21774661.8654   21774668.9964
        -0.000          -0.000
 -17318119.758 9 -13069371.73747  22245137.359    22245137.6224   22245143.6704
        -0.000          -0.000
 -13602698.162 9 -10390762.09247  22566062.606    22566061.9714   22566070.7974
        -0.000          -0.000
 98  5  1 20 34  0.0000000  0  8  6  4  5  9 24  8 30 10            -0.000000027
  -6700653.860 9  -5058816.23446  24255657.542    24255657.7084   24255666.1304
        -0.000          -0.000
   8922356.304 9   7220716.64447  22504527.788    22504528.0894   22504534.4144
        -0.000          -0.000
 -17864036.046 9 -13904678.11149  20374424.790    20374424.4394   20374430.6854
        -0.000          -0.000
   6960190.983 9   5427331.73147  22914382.417    22914382.4434   22914390.1754
        -0.000          -0.000
  -9036564.912 9  -6820370.68349  20330464.993    20330464.9524   20330471.5854
        -0.000          -0.000
  -8411823.438 9  -6541930.82847  21781396.314    21781395.9834   21781403.1434
        -0.000          -0.000
 -17404295.433 9 -13136521.59347  22228738.592    22228738.9044   22228744.9654
        -0.000          -0.000
 -13687375.061 9 -10456743.99347  22549949.038    22549948.4164   22549957.2354
        -0.000          -0.000
 98  5  1 20 34 30.0000000  0  8  6  4  5  9 24  8 30 10            -0.000000022
  -6769301.590 9  -5112307.90146  24242594.356    24242594.4324   24242602.9404
        -0.000          -0.000
   9010743.500 9   7289589.74947  22521347.353    22521347.6564   22521353.9714
        -0.000          -0.000
 -17892826.099 9 -13927111.91649  20368946.235    20368945.8724   20368952.1364
        -0.000          -0.000
   7042296.458 9   5491309.94947  22930006.604    22930006.5964   22930014.3794
        -0.000          -0.000
  -9004376.394 9  -6795288.72449  20336590.278    20336590.2514   20336596.8754
        -0.000          -0.000
  -8375960.135 9  -6513985.43447  21788220.845    21788220.4994   21788227.7434
        -0.000          -0.000
 -17490268.959 9 -13203513.92347  22212378.388    22212378.7104   22212384.6764
        -0.000          -0.000
 -13771838.664 9 -10522559.68347  22533876.097    22533875.4434   22533884.2514
        -0.000          -0.000
 98  5  1 20 35  0.0000000  0  8  6  4  5  9 24  8 30 10            -0.000000050
  -6837987.228 9  -5165829.10046  24229523.728    24229523.8304   24229532.4884
        -0.000          -0.000
   9099294.956 9   7358590.83347  22538198.193    22538198.4904   22538204.8104
        -0.000          -0.000
 -17921189.378 9 -13949213.17449  20363548.813    20363548.4994   20363554.7574
        -0.000          -0.000
   7124575.694 9   5555423.55647  22945663.731    22945663.8084   22945671.6524
        -0.000          -0.000
  -8971768.694 9  -6769880.13049  20342795.346    20342795.3164   20342801.9654
        -0.000          -0.000
  -8339616.269 9  -6485665.57747  21795136.980    21795136.6504   21795143.7864
        -0.000          -0.000
 -17576005.262 9 -13270321.40247  22196063.223    22196063.5954   22196069.5504
        -0.000          -0.000
 -13856078.760 9 -10588201.20747  22517845.624    22517844.9604   22517853.7544
        -0.000          -0.000
 98  5  1 20 35 30.0000000  0  8  6  4  5  9 24  8 30 10            -0.000000034
  -6906572.785 8  -5219272.29446  24216472.217    24216472.2454   24216481.0804
        -0.000          -0.000
   9188116.060 9   7427802.04147  22555100.342    22555100.6384   22555106.9414
        -0.000          -0.000
 -17948992.567 9 -13970877.99549  20358258.040    20358257.7314   20358263.9674
        -0.000          -0.000
   7207129.474 9   5619751.10047  22961373.250    22961373.3024   22961381.1644
        -0.000          -0.000
  -8938634.153 9  -6744061.01449  20349100.631    20349100.6014   20349107.2874
        -0.000          -0.000
  -8302663.917 9  -6456871.57147  21802168.911    21802168.5434   21802175.6644
        -0.000          -0.000
 -17661380.867 9 -13336847.82347  22179816.822    22179817.1524   22179823.0644
        -0.000          -0.000
 -13939963.125 9 -10653565.55447  22501882.939    22501882.3114   22501890.9714
        -0.000          -0.000
 98  5  1 20 36  0.0000000  0  8  6  4  5  9 24  8 30 10            -0.000000021
  -6975122.134 9  -5272687.27246  24203427.670    24203427.6364   24203436.6204
        -0.000          -0.000
   9277123.124 9   7497158.15647  22572037.906    22572038.2134   22572044.5074
        -0.000          -0.000
 -17976307.872 9 -13992162.64649  20353060.171    20353059.8404   20353066.0434
        -0.000          -0.000
   7289863.690 9   5684219.24247  22977116.992    22977117.0534   22977125.0274
        -0.000          -0.000
  -8905064.686 9  -6717902.99349  20355488.675    20355488.6494   20355495.3394
        -0.000          -0.000
  -8265159.713 9  -6427647.54647  21809305.670    21809305.3424   21809312.4904
        -0.000          -0.000
 -17746472.435 9 -13403152.91747  22163624.377    22163624.7324   22163630.6464
        -0.000          -0.000
 -14023563.918 9 -10718708.90847  22485974.131    22485973.4654   22485982.0844
        -0.000          -0.000
 98  5  1 20 36 30.0000000  0  8  6  4  5  9 24  8 30 10            -0.000000055
  -7043703.356 9  -5326127.10046  24190377.142    24190377.0204   24190385.9904
        -0.000          -0.000
   9366231.894 9   7566593.50147  22588994.745    22588995.0544   22589001.4094
        -0.000          -0.000
 -18003219.183 9 -14013132.50549  20347939.142    20347938.7954   20347944.9524
        -0.000          -0.000
   7372693.884 9   5748762.15647  22992879.182    22992879.2304   22992887.1404
        -0.000          -0.000
  -8871149.615 9  -6691475.67649  20361942.489    20361942.4814   20361949.1604
        -0.000          -0.000
  -8227176.550 9  -6398050.31847  21816533.807    21816533.4384   21816540.5174
        -0.000          -0.000
 -17831370.396 9 -13469307.15447  22147468.735    22147469.0774   22147475.0704
        -0.000          -0.000
 -14106956.888 9 -10783690.35247  22470104.897    22470104.2414   22470112.7544
        -0.000          -0.000
 98  5  1 20 37  0.0000000  0  8  6  4  5  9 24  8 30 10            -0.000000079
  -7112205.417 9  -5379505.24846  24177341.657    24177341.6254   24177350.2784
        -0.000          -0.000
   9455531.576 9   7636177.62847  22605987.856    22605988.2204   22605994.6194
        -0.000          -0.000
 -18029623.095 9 -14033706.98649  20342914.608    20342914.2644   20342920.4374
        -0.000          -0.000
   7455714.196 9   5813453.22647  23008677.719    23008677.6544   23008685.4184
        -0.000          -0.000
  -8836789.390 9  -6664701.48649  20368481.022    20368481.0244   20368487.6974
        -0.000          -0.000
  -8188610.419 9  -6367998.83147  21823872.789    21823872.3784   21823879.4184
        -0.000          -0.000
 -17915984.720 9 -13535240.36547  22131367.048    22131367.4334   22131373.4954
        -0.000          -0.000
 -14190045.275 9 -10848434.45347  22454293.541    22454292.9174   22454301.3574
        -0.000          -0.000
 98  5  1 20 37 30.0000000  0  8  6  4  5  9 24  8 30 10            -0.000000090
  -7180632.609 9  -5432825.06746  24164320.309    24164320.2004   24164328.9404
        -0.000          -0.000
   9545036.255 9   7705921.49547  22623020.134    22623020.4594   22623026.8494
        -0.000          -0.000
 -18055506.767 9 -14053876.07949  20337989.139    20337988.8134   20337994.9534
        -0.000          -0.000
   7538937.942 9   5878302.81447  23024514.788    23024514.7304   23024522.3804
        -0.000          -0.000
  -8801988.023 9  -6637583.54349  20375103.604    20375103.5794   20375110.2304
        -0.000          -0.000
  -8149445.674 9  -6337480.88347  21831325.529    21831325.1984   21831332.2654
        -0.000          -0.000
 -18000313.219 9 -13600950.85747  22115319.808    22115320.1734   22115326.2434
        -0.000          -0.000
 -14272824.357 9 -10912937.52447  22438541.102    22438540.4424   22438548.9064
        -0.000          -0.000
 98  5  1 20 38  0.0000000  0  8  6  4  5  9 24  8 30 10             0.000000002
  -7248855.758 9  -5485985.89046  24151337.873    24151337.7274   24151346.4124
        -0.000          -0.000
   9634870.755 9   7775922.36247  22640115.160    22640115.4744   22640121.9054
        -0.000          -0.000
 -18080749.056 9 -14073545.39049  20333185.724    20333185.3994   20333191.5254
        -0.000          -0.000
   7622512.061 9   5943425.42247  23040418.527    23040418.4204   23040426.0634
        -0.000          -0.000
  -8766607.620 9  -6610014.40149  20381836.258    20381836.2484   20381842.8964
        -0.000          -0.000
  -8109557.009 9  -6306398.85547  21838916.088    21838915.7244   21838922.8394
        -0.000          -0.000
 -18084206.052 9 -13666321.86547  22099355.495    22099355.8654   22099361.9204
        -0.000          -0.000
 -14355152.879 9 -10977089.52647  22422874.428    22422873.7684   22422882.2464
        -0.000          -0.000
 98  5  1 20 38 30.0000000  0  8  6  4  5  9 24  8 30 10             0.000000053
  -7317106.111 9  -5539167.89445  24138350.292    24138350.0284   24138358.7094
        -0.000          -0.000
   9724798.520 9   7845995.89947  22657227.916    22657228.2074   22657234.6194
        -0.000          -0.000
 -18105599.474 9 -14092909.35549  20328456.850    20328456.5234   20328462.6434
        -0.000          -0.000
   7706208.146 9   6008643.06447  23056345.404    23056345.3644   23056352.9774
        -0.000          -0.000
  -8730874.030 9  -6582170.05749  20388636.118    20388636.1114   20388642.7664
        -0.000          -0.000
  -8069202.561 9  -6274953.87347  21846595.338    21846594.9374   21846602.1014
        -0.000          -0.000
 -18167893.801 9 -13731533.08047  22083430.199    22083430.5794   22083436.6384
        -0.000          -0.000
 -14437264.199 9 -11041072.28247  22407249.053    22407248.4654   22407256.9534
        -0.000          -0.000
 98  5  1 20 39  0.0000000  0  8  6  4  5  9 24  8 30 10             0.000000065
  -7385380.230 9  -5592368.43345  24125357.923    24125357.8124   24125366.4374
        -0.000          -0.000
   9814829.233 9   7916149.64547  22674360.219    22674360.5074   22674366.9804
        -0.000          -0.000
 -18130047.688 9 -14111959.91449  20323804.461    20323804.1534   20323810.2924
        -0.000          -0.000
   7790038.288 9   6073965.16947  23072297.662    23072297.7114   23072305.4144
        -0.000          -0.000
  -8694771.440 9  -6554038.18049  20395506.198    20395506.2154   20395512.8604
        -0.000          -0.000
  -8028383.212 9  -6243146.63147  21854362.935    21854362.6304   21854369.8024
        -0.000          -0.000
 -18251359.172 9 -13796571.01047  22067547.124    22067547.5954   22067553.7494
        -0.000          -0.000
 -14519156.264 9 -11104884.18147  22391665.462    22391664.8234   22391673.3494
        -0.000          -0.000
 98  5  1 20 39 30.0000000  0  8  6  4  5  9 24  8 30 10             0.000000044
  -7453696.426 9  -5645601.76646  24112357.584    24112357.5224   24112366.2314
        -0.000          -0.000
   9904963.192 9   7986383.85647  22691512.110    22691512.4234   22691518.9424
        -0.000          -0.000
 -18154116.665 9 -14130714.95849  20319224.293    20319223.9744   20319230.1184
        -0.000          -0.000
   7874004.012 9   6139392.92147  23088275.908    23088275.8994   23088283.6664
        -0.000          -0.000
  -8658308.294 9  -6525625.34049  20402444.996    20402444.9614   20402451.5294
        -0.000          -0.000
  -7987113.906 9  -6210988.76947  21862216.283    21862215.9134   21862223.1704
        -0.000          -0.000
 -18334609.894 9 -13861441.67847  22051705.115    22051705.5124   22051711.7194
        -0.000          -0.000
 -14600822.938 9 -11168520.44547  22376124.761    22376124.1724   22376132.6154
        -0.000          -0.000
 98  5  1 20 40  0.0000000  0  8  6  4  5  9 24  8 30 10            -0.000000015
  -7522066.907 9  -5698877.39946  24099346.959    24099346.9694   24099355.6824
        -0.000          -0.000
   9995178.231 9   8056681.23647  22708679.551    22708679.8084   22708686.3904
        -0.000          -0.000
 -18177820.733 9 -14149185.66949  20314713.595    20314713.2664   20314719.3864
        -0.000          -0.000
   7958088.634 9   6204913.31147  23104276.809    23104276.7424   23104284.4114
        -0.000          -0.000
  -8621504.745 9  -6496947.26549  20409448.523    20409448.5034   20409455.0554
        -0.000          -0.000
  -7945409.097 9  -6178491.56247  21870152.446    21870152.0394   21870159.4284
        -0.000          -0.000
 -18417662.040 9 -13926157.60947  22035900.915    22035901.2034   22035907.4784
        -0.000          -0.000
 -14682269.132 9 -11231984.91847  22360626.066    22360625.4224   22360633.7654
        -0.000          -0.000
 98  5  1 20 40 30.0000000  0  8  6  4  5  9 24  8 30 10            -0.000000062
  -7590398.327 8  -5752122.58646  24086343.972    24086343.9814   24086352.4164
        -0.000          -0.000
  10085581.489 9   8127125.29147  22725882.667    22725882.9594   22725889.5684
        -0.000          -0.000
 -18201035.150 9 -14167274.82349  20310296.047    20310295.7054   20310301.8474
        -0.000          -0.000
   8042389.330 9   6270602.08447  23120318.793    23120318.7274   23120326.3744
        -0.000          -0.000
  -8584268.866 9  -6467932.30449  20416534.309    20416534.2774   20416540.8134
        -0.000          -0.000
  -7903157.401 9  -6145568.20547  21878192.632    21878192.2624   21878199.7054
        -0.000          -0.000
 -18500429.079 9 -13990651.38847  22020150.806    22020151.1574   22020157.4014
        -0.000          -0.000
 -14763408.214 9 -11295210.06447  22345185.728    22345185.0704   22345193.4304
        -0.000          -0.000
 98  5  1 20 41  0.0000000  0  8  6  4  5  9 24  8 30 10            -0.000000100
  -7658695.640 8  -5805341.19045  24073347.416    24073347.3684   24073355.6944
        -0.000          -0.000
  10176169.216 9   8197713.07447  22743120.964    22743121.2454   22743127.8724
        -0.000          -0.000
 -18223725.847 9 -14184955.88649  20305978.103    20305977.7944   20305983.9404
        -0.000          -0.000
   8126912.487 9   6336464.19847  23136403.170    23136403.0624   23136410.7004
        -0.000          -0.000
  -8546614.510 9  -6438591.25949  20423699.703    20423699.6674   20423706.2184
        -0.000          -0.000
  -7860348.200 9  -6112210.43447  21886339.077    21886338.6934   21886346.0644
        -0.000          -0.000
 -18582905.492 9 -14054918.70147  22004456.056    22004456.4324   22004462.6314
        -0.000          -0.000
 -14844218.951 9 -11358179.37047  22329807.824    22329807.1774   22329815.6054
        -0.000          -0.000
 98  5  1 20 41 30.0000000  0  8  6  4  5  9 24  8 30 10            -0.000000090
  -7726897.980 8  -5858485.79845  24060368.713    24060368.7344   24060377.1204
        -0.000          -0.000
  10266992.670 9   8268484.55247  22760404.190    22760404.4304   22760410.9394
        -0.000          -0.000
 -18245823.604 9 -14202174.92449  20301773.076    20301772.7654   20301778.8884
        -0.000          -0.000
   8211702.105 9   6402533.91747  23152538.151    23152538.0314   23152545.7654
        -0.000          -0.000
  -8508510.030 9  -6408899.46449  20430950.731    20430950.6974   20430957.2644
        -0.000          -0.000
  -7816935.719 9  -6078382.57347  21894600.297    21894599.8444   21894607.2174
        -0.000          -0.000
 -18665038.747 9 -14118918.61947  21988826.586    21988826.9324   21988833.1744
        -0.000          -0.000
 -14924624.124 9 -11420832.64447  22314507.126    22314506.4494   22314514.9814
        -0.000          -0.000
 98  5  1 20 42  0.0000000  0  8  6  4  5  9 24  8 30 10            -0.000000072
  -7795058.702 8  -5911597.97445  24047397.933    24047397.9934   24047406.5014
        -0.000          -0.000
  10357982.027 9   8339385.29747  22777718.986    22777719.1934   22777725.6074
        -0.000          -0.000
 -18267384.829 9 -14218975.88549  20297670.127    20297669.8264   20297675.9234
        -0.000          -0.000
   8296678.100 9   6468748.88747  23168708.460    23168708.4074   23168716.2754
        -0.000          -0.000
  -8470030.241 9  -6378915.22049  20438273.197    20438273.1384   20438279.7474
        -0.000          -0.000
  -7772990.150 9  -6044139.32147  21902962.819    21902962.4344   21902969.8804
        -0.000          -0.000
 -18746888.176 9 -14182697.37448  21973251.098    21973251.5344   21973257.7654
        -0.000          -0.000
 -15004687.375 9 -11483219.49447  22299271.441    22299270.7964   22299279.3594
        -0.000          -0.000
 98  5  1 20 42 30.0000000  0  8  6  4  5  9 24  8 30 10            -0.000000066
  -7863217.787 9  -5964708.86845  24034427.574    24034427.5624   24034436.1584
        -0.000          -0.000
  10449102.230 9   8410388.00647  22795058.655    22795058.8694   22795065.2324
        -0.000          -0.000
 -18288455.891 9 -14235394.89349  20293660.427    20293660.1024   20293666.2594
        -0.000          -0.000
   8381785.438 9   6535066.19747  23184903.961    23184903.8454   23184911.6914
        -0.000          -0.000
  -8431212.588 9  -6348667.70549  20445659.947    20445659.8944   20445666.5304
        -0.000          -0.000
  -7728572.781 9  -6009528.42547  21911415.198    21911414.8134   21911422.2544
        -0.000          -0.000
 -18828489.411 9 -14246282.72748  21957722.965    21957723.3644   21957729.5654
        -0.000          -0.000
 -15084442.245 9 -11545366.04347  22284094.428    22284093.8234   22284102.3834
        -0.000          -0.000
 98  5  1 20 43  0.0000000  0  8  6  4  5  9 24  8 30 10            -0.000000076
  -7931399.804 8  -6017837.63745  24021452.924    24021453.0144   24021461.4814
        -0.000          -0.000
  10540331.863 9   8481475.98047  22812419.148    22812419.3714   22812425.7064
        -0.000          -0.000
 -18309086.183 9 -14251470.45549  20289734.604    20289734.2794   20289740.4514
        -0.000          -0.000
   8466978.693 9   6601450.45547  23201115.801    23201115.6624   23201123.5224
        -0.000          -0.000
  -8392091.796 9  -6318183.98549  20453104.351    20453104.3404   20453110.9654
        -0.000          -0.000
  -7683727.445 9  -5974584.06647  21919949.060    21919948.6754   21919956.0594
        -0.000          -0.000
 -18909861.424 9 -14309689.48248  21942238.404    21942238.7944   21942245.0104
        -0.000          -0.000
 -15163904.052 9 -11607284.23847  22268973.336    22268972.7314   22268981.2234
        -0.000          -0.000
 98  5  1 20 43 30.0000000  0  8  6  4  5  9 24  8 30 10            -0.000000086
  -7999589.345 9  -6070972.29445  24008476.748    24008476.8874   24008485.1644
        -0.000          -0.000
  10631696.340 9   8552669.03347  22829805.260    22829805.4744   22829811.8324
        -0.000          -0.000
 -18329289.848 9 -14267213.58049  20285890.009    20285889.6614   20285895.7844
        -0.000          -0.000
   8552249.852 9   6667895.39947  23217342.312    23217342.2184   23217350.1774
        -0.000          -0.000
  -8352648.410 9  -6287448.88549  20460610.212    20460610.1844   20460616.7604
        -0.000          -0.000
  -7638437.202 9  -5939293.01447  21928567.492    21928567.1394   21928574.5534
        -0.000          -0.000
 -18990989.232 9 -14372905.94348  21926800.259    21926800.7024   21926806.8954
        -0.000          -0.000
 -15243072.614 9 -11668973.94247  22253908.045    22253907.4504   22253915.8594
        -0.000          -0.000
 98  5  1 20 44  0.0000000  0  8  6  4  5  9 24  8 30 10            -0.000000072
  -8067743.179 9  -6124079.10746  23995507.647    23995507.6764   23995515.9184
        -0.000          -0.000
  10723236.462 9   8623998.95747  22847224.678    22847224.9654   22847231.3944
        -0.000          -0.000
 -18349025.076 9 -14282591.68349  20282134.532    20282134.1514   20282140.3034
        -0.000          -0.000
   8637655.432 9   6734445.10547  23233594.602    23233594.4974   23233602.4194
        -0.000          -0.000
  -8312811.664 9  -6256407.27449  20468190.917    20468190.8764   20468197.4504
        -0.000          -0.000
  -7592640.854 9  -5903607.58847  21937282.206    21937281.9354   21937289.3174
        -0.000          -0.000
 -19071816.820 9 -14435888.46648  21911419.361    21911419.7304   21911425.8404
        -0.000          -0.000
 -15321902.302 9 -11730399.58347  22238907.262    22238906.5954   22238914.9654
        -0.000          -0.000
 98  5  1 20 44 30.0000000  0  8  6  4  5  9 24  8 30 10            -0.000000056
  -8135888.362 9  -6177179.18646  23982540.227    23982540.1024   23982548.4084
        -0.000          -0.000
  10814918.524 9   8695439.47647  22864671.198    22864671.4974   22864677.9214
        -0.000          -0.000
 -18368306.147 9 -14297615.90249  20278465.447    20278465.1014   20278471.2424
        -0.000          -0.000
   8723183.797 9   6801090.47647  23249870.230    23249870.1404   23249878.0254
        -0.000          -0.000
  -8272599.139 9  -6225072.85349  20475843.067    20475843.0394   20475849.6464
        -0.000          -0.000
  -7546353.444 9  -5867539.52047  21946090.514    21946090.1984   21946097.6114
        -0.000          -0.000
 -19152369.025 9 -14498656.39048  21896090.810    21896091.0624   21896097.2124
        -0.000          -0.000
 -15400412.420 9 -11791576.20947  22223967.150    22223966.5084   22223974.8994
        -0.000          -0.000
 98  5  1 20 45  0.0000000  0  8  6  4  5  9 24  8 30 10            -0.000000042
  -8204019.037 9  -6230267.93946  23969575.271    23969575.2894   23969583.4714
        -0.000          -0.000
  10906733.091 9   8766983.25447  22882143.008    22882143.3024   22882149.7574
        -0.000          -0.000
 -18387132.025 9 -14312285.42049  20274883.003    20274882.6614   20274888.7854
        -0.000          -0.000
   8808842.173 9   6867837.16446  23266170.508    23266170.4854   23266178.3324
        -0.000          -0.000
  -8232008.623 9  -6193443.88949  20483567.169    20483567.1424   20483573.7834
        -0.000          -0.000
  -7499568.915 9  -5831084.09947  21954993.328    21954993.0354   21955000.5074
        -0.000          -0.000
 -19232642.693 9 -14561207.27948  21880815.118    21880815.4374   21880821.6224
        -0.000          -0.000
 -15478616.680 9 -11852514.51347  22209085.306    22209084.7114   22209092.9774
        -0.000          -0.000
 98  5  1 20 45 30.0000000  0  8  6  4  5  9 24  8 30 10            -0.000000058
  -8272152.710 9  -6283359.03546  23956609.624    23956609.8644   23956618.0894
        -0.000          -0.000
  10998636.333 9   8838596.11447  22899631.585    22899631.8744   22899638.3954
        -0.000          -0.000
 -18405513.809 9 -14326608.89349  20271385.124    20271384.7524   20271390.8654
        -0.000          -0.000
   8894617.897 9   6934675.28047  23282493.261    23282493.2254   23282501.0254
        -0.000          -0.000
  -8191045.117 9  -6161524.28849  20491362.321    20491362.3054   20491368.9404
        -0.000          -0.000
  -7452306.367 9  -5794256.19447  21963987.050    21963986.7784   21963994.2904
        -0.000          -0.000
 -19312665.130 9 -14623562.41348  21865587.306    21865587.6594   21865593.8274
        -0.000          -0.000
 -15556533.082 9 -11913228.51647  22194258.347    22194257.6554   22194265.8834
        -0.000          -0.000
 98  5  1 20 46  0.0000000  0  8  6  4  5  9 24  8 30 10            -0.000000087
  -8340256.965 9  -6336427.21146  23943649.939    23943650.0764   23943658.1944
        -0.000          -0.000
  11090641.977 9   8910288.77347  22917139.789    22917140.0744   22917146.5444
        -0.000          -0.000
 -18423409.784 9 -14340553.81149  20267979.581    20267979.2304   20267985.3544
        -0.000          -0.000
   8980551.997 9   7001636.81346  23298846.191    23298846.0744   23298853.9014
        -0.000          -0.000
  -8149686.452 9  -6129296.76349  20499232.593    20499232.5974   20499239.2424
        -0.000          -0.000
  -7404547.140 9  -5757041.26047  21973075.376    21973075.0774   21973082.6234
        -0.000          -0.000
 -19392411.326 9 -14685702.28748  21850412.085    21850412.4644   21850418.6454
        -0.000          -0.000
 -15634129.519 9 -11973693.20447  22179492.208    22179491.5084   22179499.6704
        -0.000          -0.000
 98  5  1 20 46 30.0000000  0  8  6  4  5  9 24  8 30 10            -0.000000093
  -8408287.636 9  -6389438.06046  23930704.140    23930704.2384   23930712.3214
        -0.000          -0.000
  11182816.266 9   8982112.84647  22934680.059    22934680.3414   22934686.7444
        -0.000          -0.000
 -18440763.527 9 -14354076.20749  20264677.200    20264676.8864   20264682.9984
        -0.000          -0.000
   9066680.485 9   7068749.82146  23315235.965    23315235.8794   23315243.5714
        -0.000          -0.000
  -8107897.580 9  -6096734.01249  20507184.725    20507184.7224   20507191.3974
        -0.000          -0.000
  -7356249.772 9  -5719406.99347  21982266.115    21982265.7844   21982273.3254
        -0.000          -0.000
 -19471831.010 9 -14747587.72648  21835299.050    21835299.4074   21835305.5544
        -0.000          -0.000
 -15711353.966 9 -12033868.02147  22164796.752    22164796.1414   22164804.2794
        -0.000          -0.000
 98  5  1 20 47  0.0000000  0  8  6  4  5  9 24  8 30 10            -0.000000099
  -8476294.026 9  -6442429.99046  23917762.961    23917762.9984   23917771.0884
        -0.000          -0.000
  11275126.932 9   9054043.18647  22952246.274    22952246.5014   22952252.9874
        -0.000          -0.000
 -18457619.425 9 -14367210.67949  20261469.685    20261469.3274   20261475.4274
        -0.000          -0.000
   9152949.948 9   7135972.66746  23331652.623    23331652.4934   23331660.1134
        -0.000          -0.000
  -8065722.709 9  -6063870.48849  20515210.397    20515210.4154   20515217.0514
        -0.000          -0.000
  -7307467.941 9  -5681395.22647  21991548.963    21991548.6774   21991556.2494
        -0.000          -0.000
 -19550963.988 9 -14809249.76848  21820240.470    21820240.8624   21820246.9314
        -0.000          -0.000
 -15788239.146 9 -12093778.48047  22150165.974    22150165.3604   22150173.4594
        -0.000          -0.000
 98  5  1 20 47 30.0000000  0  8  6  4  5  9 24  8 30 10            -0.000000111
  -8544293.512 9  -6495416.54146  23904822.870    23904822.9964   23904831.0894
        -0.000          -0.000
  11367574.529 9   9126080.22747  22969838.469    22969838.7024   22969845.2354
        -0.000          -0.000
 -18473955.350 9 -14379939.97249  20258361.003    20258360.6794   20258366.7904
        -0.000          -0.000
   9239352.483 9   7203299.20346  23348094.586    23348094.4014   23348102.0734
        -0.000          -0.000
  -8023175.665 9  -6030716.95249  20523306.826    20523306.8004   20523313.4644
        -0.000          -0.000
  -7258196.730 9  -5643002.12847  22000925.103    22000924.7474   22000932.2824
        -0.000          -0.000
 -19629805.084 9 -14870684.36148  21805237.461    21805237.8484   21805243.8554
        -0.000          -0.000
 -15864757.968 9 -12153403.46247  22135604.829    22135604.2304   22135612.3704
        -0.000          -0.000
 98  5  1 20 48  0.0000000  0  8  6  4  5  9 24  8 30 10            -0.000000128
  -8612308.424 9  -6548415.12046  23891880.081    23891880.1754   23891888.3034
        -0.000          -0.000
  11460168.209 9   9198231.09147  22987458.345    22987458.6544   22987465.2854
        -0.000          -0.000
 -18489776.247 9 -14392267.95049  20255350.364    20255350.0634   20255356.2144
        -0.000          -0.000
   9325869.849 9   7270715.22046  23364558.318    23364558.1834   23364565.8784
        -0.000          -0.000
  -7980278.957 9  -5997290.95849  20531469.793    20531469.7694   20531476.4594
        -0.000          -0.000
  -7208453.939 9  -5604241.55947  22010390.893    22010390.5744   22010398.0894
        -0.000          -0.000
 -19708347.285 9 -14931886.06548  21790291.347    21790291.7354   21790297.6434
        -0.000          -0.000
 -15940920.840 9 -12212751.07647  22121111.434    22121110.8644   22121118.9684
        -0.000          -0.000
 98  5  1 20 48 30.0000000  0  8  6  4  5  9 24  8 30 10            -0.000000113
  -8680273.541 9  -6601374.89246  23878946.529    23878946.7594   23878954.8874
        -0.000          -0.000
  11552969.771 9   9270543.95047  23005117.892    23005118.3074   23005124.9304
        -0.000          -0.000
 -18505018.628 9 -14404145.12849  20252449.837    20252449.5214   20252455.6664
        -0.000          -0.000
   9412562.883 9   7338268.13046  23381055.661    23381055.4824   23381063.0574
        -0.000          -0.000
  -7936953.003 9  -5963530.48249  20539714.448    20539714.4124   20539721.0924
        -0.000          -0.000
  -7158177.154 9  -5565064.90047  22019958.292    22019957.9704   22019965.4364
        -0.000          -0.000
 -19786512.296 9 -14992793.83648  21775417.034    21775417.4024   21775423.3294
        -0.000          -0.000
 -16016655.373 9 -12271764.93347  22106699.592    22106698.9814   22106707.1114
        -0.000          -0.000
 98  5  1 20 49  0.0000000  0  8  6  4  5  9 24  8 30 10            -0.000000117
  -8748253.925 9  -6654346.57146  23866010.231    23866010.4654   23866018.6234
        -0.000          -0.000
  11645875.567 9   9342938.04147  23022797.462    23022797.7694   23022804.4184
        -0.000          -0.000
 -18519773.056 9 -14415642.08749  20249642.165    20249641.8754   20249648.0324
        -0.000          -0.000
   9499353.334 9   7405896.91846  23397571.393    23397571.1794   23397578.9024
        -0.000          -0.000
  -7893277.202 9  -5929497.40649  20548025.671    20548025.6584   20548032.3424
        -0.000          -0.000
  -7107447.643 9  -5525535.45647  22029611.866    22029611.5774   22029618.9734
        -0.000          -0.000
 -19864379.488 9 -15053469.54348  21760599.389    21760599.7204   21760605.6854
        -0.000          -0.000
 -16092050.655 9 -12330514.44247  22092352.253    22092351.6534   22092359.8014
        -0.000          -0.000
 98  5  1 20 49 30.0000000  0  8  6  4  5  9 24  8 30 10            -0.000000117
  -8816198.893 9  -6707290.64046  23853080.744    23853080.9264   23853089.1244
        -0.000          -0.000
  11738913.649 9   9415435.19447  23040502.073    23040502.3624   23040509.0524
        -0.000          -0.000
 -18534006.902 9 -14426733.39849  20246933.621    20246933.2904   20246939.4314
        -0.000          -0.000
   9586282.527 9   7473633.83546  23414113.450    23414113.2964   23414121.1474
        -0.000          -0.000
  -7849216.527 9  -5895164.42349  20556410.197    20556410.1734   20556416.8574
        -0.000          -0.000
  -7056230.752 9  -5485626.24847  22039358.252    22039357.9004   22039365.3054
        -0.000          -0.000
 -19941908.348 9 -15113881.63048  21745846.081    21745846.4944   21745852.3904
        -0.000          -0.000
 -16167081.739 9 -12388980.15847  22078074.278    22078073.6784   22078081.8404
        -0.000          -0.000
 98  5  1 20 50  0.0000000  0  8  6  4  5  9 24  8 30 10            -0.000000113
  -8884102.951 9  -6760202.82346  23840159.055    23840159.1724   23840167.2814
        -0.000          -0.000
  11832053.135 9   9488011.37347  23058226.038    23058226.3024   23058233.0164
        -0.000          -0.000
 -18547767.198 9 -14437455.70949  20244315.124    20244314.7934   20244320.9374
        -0.000          -0.000
   9673338.554 9   7541469.59446  23430679.647    23430679.5784   23430687.5044
        -0.000          -0.000
  -7804776.834 9  -5860536.10049  20564866.744    20564866.7194   20564873.4924
        -0.000          -0.000
  -7004552.843 9  -5445357.79547  22049192.188    22049191.8824   22049199.3344
        -0.000          -0.000
 -20019113.264 9 -15174041.28748  21731154.528    21731154.8954   21731160.7414
        -0.000          -0.000
 -16241778.487 9 -12447185.35747  22063859.906    22063859.2884   22063867.4254
        -0.000          -0.000
 98  5  1 20 50 30.0000000  0  8  6  4  5  9 24  8 30 10            -0.000000120
  -8951978.114 9  -6813092.49846  23827242.849    23827242.9134   23827251.0694
        -0.000          -0.000
  11925247.605 9   9560630.37847  23075960.371    23075960.6454   23075967.3944
        -0.000          -0.000
 -18561084.590 9 -14447832.89349  20241780.920    20241780.6074   20241786.7104
        -0.000          -0.000
   9760498.578 9   7609386.37746  23447265.730    23447265.5764   23447273.7104
        -0.000          -0.000
  -7759987.292 9  -5825635.16849  20573389.937    20573389.9184   20573396.7044
        -0.000          -0.000
  -6952430.947 9  -5404743.38047  22059110.818    22059110.4064   22059117.8514
        -0.000          -0.000
 -20096028.051 9 -15233974.85448  21716518.144    21716518.4574   21716524.2844
        -0.000          -0.000
 -16316158.070 9 -12505143.40547  22049705.808    22049705.2274   22049713.4204
        -0.000          -0.000
 98  5  1 20 51  0.0000000  0  8  6  4  5  9 24  8 30 10            -0.000000056
  -9019702.523 9  -6865864.69746  23814355.412    23814355.4354   23814363.4444
        -0.000          -0.000
  12018632.655 9   9633397.90347  23093730.997    23093731.2724   23093738.0244
        -0.000          -0.000
 -18573826.601 9 -14457761.74249  20239356.201    20239355.8954   20239361.9944
        -0.000          -0.000
   9847875.940 9   7677472.49846  23463893.141    23463892.9954   23463901.2824
        -0.000          -0.000
  -7714738.206 9  -5790376.15649  20582000.619    20582000.5874   20582007.3774
        -0.000          -0.000
  -6899749.660 9  -5363693.08847  22069135.698    22069135.3654   22069142.7834
        -0.000          -0.000
 -20172535.389 9 -15293590.94748  21701959.210    21701959.5864   21701965.3984
        -0.000          -0.000
 -16390092.021 9 -12562754.22547  22035636.694    22035636.0964   22035644.2334
        -0.000          -0.000
 98  5  1 20 51 30.0000000  0  8  6  4  5  9 24  8 30 10            -0.000000050
  -9087485.212 9  -6918682.30246  23801456.858    23801456.8844   23801464.7574
        -0.000          -0.000
  12112021.247 9   9706168.20047  23111502.285    23111502.5894   23111509.3034
        -0.000          -0.000
 -18586166.676 9 -14467377.38749  20237008.019    20237007.6914   20237013.7574
        -0.000          -0.000
   9935270.691 9   7745572.17846  23480523.840    23480523.6614   23480532.1294
        -0.000          -0.000
  -7669222.547 9  -5754909.41749  20590662.007    20590661.9514   20590668.6804
        -0.000          -0.000
  -6846709.498 9  -5322363.14547  22079228.897    22079228.5584   22079236.0374
        -0.000          -0.000
 -20248817.299 9 -15353031.37448  21687443.137    21687443.5754   21687449.4354
        -0.000          -0.000
 -16463755.182 9 -12620154.02647  22021619.069    22021618.4314   22021626.4804
        -0.000          -0.000
 98  5  1 20 52  0.0000000  0  8  6  4  5  9 24  8 30 10            -0.000000000
  -9155180.196 9  -6971431.57346  23788574.927    23788574.9424   23788582.8654
        -0.000          -0.000
  12205575.024 9   9779067.20747  23129305.085    23129305.3264   23129312.0024
        -0.000          -0.000
 -18597941.668 9 -14476552.71149  20234767.317    20234766.9924   20234773.0274
        -0.000          -0.000
  10022837.938 9   7813806.26746  23497187.642    23497187.4364   23497195.8534
        -0.000          -0.000
  -7623289.325 9  -5719117.30449  20599402.871    20599402.7704   20599409.4164
        -0.000          -0.000
  -6793144.592 9  -5280624.30847  22089422.038    22089421.6224   22089429.1764
        -0.000          -0.000
 -20324714.582 9 -15412172.08948  21673000.334    21673000.7544   21673006.6854
        -0.000          -0.000
 -16536973.815 9 -12677207.45447  22007685.969    22007685.3274   22007693.3224
        -0.000          -0.000
 98  5  1 20 52 30.0000000  0  8  6  4  5  9 24  8 30 10             0.000000020
  -9222909.430 9  -7024207.54546  23775686.406    23775686.4754   23775694.3774
        -0.000          -0.000
  12299193.595 9   9852016.68547  23147120.167    23147120.3724   23147127.1004
        -0.000          -0.000
 -18609245.886 9 -14485361.20349  20232616.145    20232615.8514   20232621.9204
        -0.000          -0.000
  10110455.398 9   7882079.47346  23513860.869    23513860.6034   23513869.0654
        -0.000          -0.000
  -7577065.856 9  -5683099.03149  20608198.931    20608198.8314   20608205.4384
        -0.000          -0.000
  -6739175.499 9  -5238570.53047  22099691.995    22099691.6524   22099699.2614
        -0.000          -0.000
 -20400351.279 9 -15471109.75348  21658607.095    21658607.5384   21658613.5224
        -0.000          -0.000
 -16609854.754 9 -12733997.73547  21993817.050    21993816.4984   21993824.4514
        -0.000          -0.000
 98  5  1 20 53  0.0000000  0  8  6  4  5  9 24  8 30 10             0.000000041
  -9290624.718 9  -7076972.63046  23762800.556    23762800.5964   23762808.6234
        -0.000          -0.000
  12392936.890 9   9925063.35446  23164958.932    23164959.1624   23164965.8944
        -0.000          -0.000
 -18620008.703 9 -14493747.82149  20230568.120    20230567.7994   20230573.8544
        -0.000          -0.000
  10198178.466 9   7950434.98646  23530553.864    23530553.8464   23530562.3694
        -0.000          -0.000
  -7530497.518 9  -5646812.02849  20617060.580    20617060.5064   20617067.1494
        -0.000          -0.000
  -6684753.204 9  -5196163.59447  22110048.285    22110047.8734   22110055.5674
        -0.000          -0.000
 -20475657.108 9 -15529789.60148  21644276.855    21644277.2994   21644283.3424
        -0.000          -0.000
 -16682342.325 9 -12790481.50047  21980023.163    21980022.5474   21980030.4894
        -0.000          -0.000
 98  5  1 20 53 30.0000000  0  8  6  4  5  9 24  8 30 10             0.000000013
  -9358406.929 9  -7129789.87946  23749901.916    23749901.9254   23749909.9984
        -0.000          -0.000
  12486716.064 9   9998138.00146  23182804.558    23182804.7684   23182811.4874
        -0.000          -0.000
 -18630312.290 9 -14501776.59649  20228607.404    20228607.0574   20228613.1014
        -0.000          -0.000
  10285933.902 9   8018815.70946  23547253.327    23547253.3364   23547261.8084
        -0.000          -0.000
  -7483670.105 9  -5610323.14549  20625971.569    20625971.4974   20625978.1694
        -0.000          -0.000
  -6629937.810 9  -5153450.34247  22120479.390    22120478.9714   22120486.6804
        -0.000          -0.000
 -20550689.076 9 -15588256.04248  21629998.740    21629999.1534   21630005.2364
        -0.000          -0.000
 -16754515.478 9 -12846720.25047  21966289.042    21966288.4254   21966296.3964
        -0.000          -0.000
 98  5  1 20 54  0.0000000  0  8  6  4  5  9 24  8 30 10            -0.000000002
  -9426162.296 9  -7182586.19246  23737008.298    23737008.4124   23737016.5954
        -0.000          -0.000
  12580615.786 9  10071306.56246  23200673.185    23200673.3684   23200680.1024
        -0.000          -0.000
 -18640085.023 9 -14509391.71749  20226747.709    20226747.3944   20226753.4354
        -0.000          -0.000
  10373806.568 9   8087287.78646  23563974.926    23563975.0494   23563983.5534
        -0.000          -0.000
  -7436504.643 9  -5573570.85149  20634946.849    20634946.7844   20634953.4694
        -0.000          -0.000
  -6574641.728 9  -5110362.53247  22131001.937    22131001.5164   22131009.2404
        -0.000          -0.000
 -20625358.581 9 -15646440.05448  21615789.527    21615789.9604   21615796.1064
        -0.000          -0.000
 -16826304.903 9 -12902660.00747  21952627.885    21952627.2534   21952635.2564
        -0.000          -0.000
 98  5  1 20 54 30.0000000  0  8  6  4  5  9 24  8 30 10            -0.000000002
  -9493864.893 9  -7235341.40346  23724124.762    23724125.0504   23724133.1584
        -0.000          -0.000
  12674647.175 9  10144577.72846  23218566.812    23218566.9814   23218573.7554
        -0.000          -0.000
 -18649306.547 9 -14516577.33149  20224992.917    20224992.6094   20224998.6484
        -0.000          -0.000
  10461791.132 9   8155847.03546  23580717.982    23580718.0384   23580726.6154
        -0.000          -0.000
  -7388979.254 9  -5536538.08949  20643990.650    20643990.5734   20643997.2414
        -0.000          -0.000
  -6518857.928 9  -5066894.68547  22141617.357    22141616.9474   22141624.5634
        -0.000          -0.000
 -20699633.212 9 -15704316.37348  21601655.555    21601656.0054   21601662.1004
        -0.000          -0.000
 -16897696.304 9 -12958289.60547  21939042.383    21939041.7684   21939049.8024
        -0.000          -0.000
 98  5  1 20 55  0.0000000  0  8  6  4  5  9 24  8 30 10            -0.000000003
  -9561536.683 9  -7288072.59646  23711247.150    23711247.4854   23711255.5234
        -0.000          -0.000
  12768787.281 9  10217933.60046  23236481.076    23236481.2694   23236488.1424
        -0.000          -0.000
 -18657992.254 9 -14523345.42349  20223340.093    20223339.7734   20223345.8234
        -0.000          -0.000
  10549864.362 9   8224475.39146  23597477.837    23597477.9264   23597486.4154
        -0.000          -0.000
  -7341104.644 9  -5499233.21149  20653100.864    20653100.7864   20653107.4704
        -0.000          -0.000
  -6462604.901 9  -5023061.19047  22152322.056    22152321.5974   22152329.2044
        -0.000          -0.000
 -20773510.720 9 -15761883.24048  21587597.269    21587597.6374   21587603.6694
        -0.000          -0.000
 -16968700.968 9 -13013617.85547  21925530.603    21925530.0024   21925537.9714
        -0.000          -0.000
 98  5  1 20 55 30.0000000  0  8  6  4  5  9 24  8 30 10             0.000000035
  -9629121.184 9  -7340735.78546  23698386.273    23698386.4594   23698394.5104
        -0.000          -0.000
  12863085.678 9  10291412.80646  23254425.584    23254425.7274   23254432.6484
        -0.000          -0.000
 -18666106.514 9 -14529668.23749  20221796.031    20221795.7124   20221801.7584
        -0.000          -0.000
  10638073.151 9   8293209.37046  23614263.598    23614263.6154   23614272.1204
        -0.000          -0.000
  -7292828.826 9  -5461615.70449  20662287.429    20662287.3664   20662294.0914
        -0.000          -0.000
  -6405843.806 9  -4978831.80247  22163123.251    22163122.8594   22163130.5414
        -0.000          -0.000
 -20846943.480 9 -15819103.55448  21573623.487    21573623.8514   21573629.8854
        -0.000          -0.000
 -17039262.277 9 -13068600.63847  21912103.201    21912102.5874   21912110.5724
        -0.000          -0.000
 98  5  1 20 56  0.0000000  0  8  6  4  5  9 24  8 30 10             0.000000020
  -9696760.908 9  -7393442.00446  23685514.825    23685514.9694   23685522.9844
        -0.000          -0.000
  12957391.475 9  10364897.80246  23272371.373    23272371.5924   23272378.5224
        -0.000          -0.000
 -18673804.781 9 -14535666.89149  20220331.103    20220330.7764   20220336.8434
        -0.000          -0.000
  10726261.214 9   8361927.18946  23631045.287    23631045.3184   23631053.8714
        -0.000          -0.000
  -7244292.085 9  -5423794.87849  20671523.619    20671523.5824   20671530.3314
        -0.000          -0.000
  -6348741.864 9  -4934336.83647  22173989.488    22173989.0574   22173996.6924
        -0.000          -0.000
 -20920100.707 9 -15876109.16748  21559702.097    21559702.4884   21559708.5254
        -0.000          -0.000
 -17109510.380 9 -13123339.34947  21898735.286    21898734.7014   21898742.7604
        -0.000          -0.000
 98  5  1 20 56 30.0000000  0  8  6  4  5  9 24  8 30 10            -0.000000004
  -9764387.680 9  -7446138.11946  23672645.806    23672645.8984   23672653.9174
        -0.000          -0.000
  13051765.153 9  10438435.68846  23290330.180    23290330.3304   23290337.2824
        -0.000          -0.000
 -18681013.823 9 -14541284.33849  20218959.288    20218958.9564   20218965.0124
        -0.000          -0.000
  10814499.927 9   8430684.49146  23647836.687    23647836.7234   23647845.3314
        -0.000          -0.000
  -7195427.089 9  -5385718.27049  20680822.359    20680822.3054   20680829.0374
        -0.000          -0.000
  -6291236.870 9  -4889527.80547  22184932.359    22184931.9614   22184939.5554
        -0.000          -0.000
 -20992924.467 9 -15932854.93248  21545844.215    21545844.5624   21545850.6194
        -0.000          -0.000
 -17179354.705 9 -13177763.45747  21885444.303    21885443.7024   21885451.7394
        -0.000          -0.000
 98  5  1 20 57  0.0000000  0  8  6  4  5  9 24  8 30 10            -0.000000005
  -9831969.088 9  -7498798.88746  23659785.476    23659785.6714   23659793.6554
        -0.000          -0.000
  13146249.902 9  10512060.11446  23308310.070    23308310.2134   23308317.2854
        -0.000          -0.000
 -18687688.929 9 -14546485.72649  20217689.073    20217688.7254   20217694.7854
        -0.000          -0.000
  10902851.214 9   8499529.49946  23664649.500    23664649.5734   23664658.1824
        -0.000          -0.000
  -7146196.425 9  -5347356.72049  20690190.651    20690190.5994   20690197.3174
        -0.000          -0.000
  -6233284.075 9  -4844369.83247  22195960.482    22195960.0674   22195967.6774
        -0.000          -0.000
 -21065377.836 9 -15989312.08148  21532056.722    21532057.1274   21532063.1554
        -0.000          -0.000
 -17248754.778 9 -13231841.37347  21872237.971    21872237.3354   21872245.2774
        -0.000          -0.000
 98  5  1 20 57 30.0000000  0  8  6  4  5  9 24  8 30 10             0.000000024
  -9899503.481 9  -7551423.02446  23646934.039    23646934.2084   23646942.3364
        -0.000          -0.000
  13240851.025 9  10585775.23846  23326312.110    23326312.2304   23326319.3504
        -0.000          -0.000
 -18693834.139 9 -14551274.20949  20216519.665    20216519.3054   20216525.3944
        -0.000          -0.000
  10991317.653 9   8568464.22546  23681484.295    23681484.2604   23681492.9434
        -0.000          -0.000
  -7096603.057 9  -5308712.54949  20699627.985    20699627.9164   20699634.6234
        -0.000          -0.000
  -6174877.280 9  -4798858.09347  22207074.855    22207074.5224   22207082.1534
        -0.000          -0.000
 -21137464.528 9 -16045483.50248  21518339.058    21518339.4634   21518345.5144
        -0.000          -0.000
 -17317709.008 9 -13285571.87448  21859116.401    21859115.7894   21859123.6724
        -0.000          -0.000
 98  5  1 20 58  0.0000000  0  8  6  4  5  9 24  8 30 10             0.000000066
  -9967013.585 9  -7604028.25346  23634087.385    23634087.4624   23634095.5644
        -0.000          -0.000
  13335552.250 9  10659568.35246  23344333.094    23344333.3444   23344340.5304
        -0.000          -0.000
 -18699456.826 9 -14555655.53349  20215449.713    20215449.3664   20215455.4734
        -0.000          -0.000
  11079874.129 9   8637469.11346  23698336.226    23698336.0534   23698344.8454
        -0.000          -0.000
  -7046671.839 9  -5269805.12149  20709129.597    20709129.5284   20709136.2274
        -0.000          -0.000
  -6116027.159 9  -4753000.91147  22218273.740    22218273.4104   22218281.0164
        -0.000          -0.000
 -21209198.483 9 -16101380.07848  21504688.553    21504688.9444   21504694.9294
        -0.000          -0.000
 -17386247.622 9 -13338978.53348  21846073.969    21846073.3484   21846081.1364
        -0.000          -0.000
 98  5  1 20 58 30.0000000  0  8  6  4  5  9 24  8 30 10             0.000000078
 -10034558.290 9  -7656660.43946  23621234.100    23621234.0104   23621242.1814
        -0.000          -0.000
  13430295.839 9  10733394.47346  23362362.235    23362362.4534   23362369.5684
        -0.000          -0.000
 -18704594.619 9 -14559659.02049  20214472.007    20214471.6924   20214477.7624
        -0.000          -0.000
  11168461.399 9   8706498.00546  23715193.878    23715193.7434   23715202.5294
        -0.000          -0.000
  -6996464.173 9  -5230682.28049  20718683.823    20718683.7744   20718690.4214
        -0.000          -0.000
  -6056793.111 9  -4706844.56447  22229545.608    22229545.2864   22229552.9544
        -0.000          -0.000
 -21280622.139 9 -16157034.85348  21491097.112    21491097.4734   21491103.4344
        -0.000          -0.000
 -17454445.689 9 -13392119.82248  21833096.329    21833095.6724   21833103.3864
        -0.000          -0.000
 98  5  1 20 59  0.0000000  0  8  6  4  5  9 24  8 30 10             0.000000111
 -10102061.284 9  -7709260.11046  23608388.589    23608388.6134   23608396.6634
        -0.000          -0.000
  13525171.069 9  10807323.18146  23380416.394    23380416.6644   23380423.7814
        -0.000          -0.000
 -18709167.319 9 -14563222.17649  20213601.852    20213601.5654   20213607.6424
        -0.000          -0.000
  11257149.985 9   8775605.83746  23732070.754    23732070.6794   23732079.5474
        -0.000          -0.000
  -6945894.647 9  -5191277.47149  20728306.905    20728306.8524   20728313.4444
        -0.000          -0.000
  -5997104.562 9  -4660334.05947  22240903.903    22240903.5834   22240911.2474
        -0.000          -0.000
 -21351646.633 9 -16212378.59948  21477581.582    21477581.9604   21477587.9324
        -0.000          -0.000
 -17522210.955 9 -13444923.86348  21820201.011    21820200.3704   21820208.0514
        -0.000          -0.000
 98  5  1 20 59 30.0000000  0  8  6  4  5  9 24  8 30 10             0.000000129
 -10169570.020 9  -7761864.24646  23595542.079    23595542.0664   23595550.0774
        -0.000          -0.000
  13620109.186 9  10881300.88646  23398482.570    23398482.8274   23398490.0254
        -0.000          -0.000
 -18713236.211 9 -14566392.74449  20212827.613    20212827.2714   20212833.3834
        -0.000          -0.000
  11345866.511 9   8844735.43746  23748952.918    23748952.8724   23748961.8364
        -0.000          -0.000
  -6895024.457 9  -5151638.37249  20737987.240    20737987.1504   20737993.7784
        -0.000          -0.000
  -5937028.071 9  -4613521.26647  22252336.139    22252335.7884   22252343.4294
        -0.000          -0.000
 -21422333.160 9 -16267458.99348  21464130.309    21464130.7424   21464136.6394
        -0.000          -0.000
 -17589584.328 9 -13497422.53848  21807380.290    21807379.6154   21807387.2494
        -0.000          -0.000
 98  5  1 21  0  0.0000000  0  8  6  4  5  9 24  8 30 10             0.000000118
 -10237093.684 9  -7814480.03346  23582692.688    23582692.7124   23582700.7704
        -0.000          -0.000
  13715089.798 9  10955311.70246  23416556.797    23416557.1054   23416564.2334
        -0.000          -0.000
 -18716810.442 9 -14569177.86749  20212147.461    20212147.1424   20212153.2714
        -0.000          -0.000
  11434583.811 9   8913865.63946  23765835.304    23765835.3344   23765844.2624
        -0.000          -0.000
  -6843871.265 9  -5111778.75349  20747721.335    20747721.2624   20747727.9454
        -0.000          -0.000
  -5876586.240 9  -4566423.79347  22263837.971    22263837.5864   22263845.2344
        -0.000          -0.000
 -21492695.078 9 -16322286.44248  21450740.927    21450741.3514   21450747.1664
        -0.000          -0.000
 -17656571.742 9 -13549620.45648  21794632.998    21794632.3504   21794639.9134
        -0.000          -0.000
 98  5  1 21  0 30.0000000  0  8  6  4  5  9 24  8 30 10             0.000000087
 -10304618.115 9  -7867096.41946  23569843.114    23569843.1874   23569851.2444
        -0.000          -0.000
  13810123.065 9  11029363.56046  23434641.182    23434641.4454   23434648.5234
        -0.000          -0.000
 -18719877.278 9 -14571567.62449  20211563.853    20211563.5264   20211569.6864
        -0.000          -0.000
  11523307.154 9   8983000.53546  23782718.841    23782718.9954   23782727.8604
        -0.000          -0.000
  -6792420.100 9  -5071686.95549  20757512.182    20757512.1234   20757518.8114
        -0.000          -0.000
  -5815768.871 9  -4519033.69347  22275411.115    22275410.8044   22275418.5204
        -0.000          -0.000
 -21562726.165 9 -16376856.10348  21437414.493    21437414.8574   21437420.6854
        -0.000          -0.000
 -17723134.224 9 -13601487.26648  21781966.565    21781965.9094   21781973.4844
        -0.000          -0.000
 98  5  1 21  1  0.0000000  0  8  6  4  5  9 24  8 30 10             0.000000050
 -10372135.463 9  -7919707.29646  23556994.874    23556994.9924   23557003.0814
        -0.000          -0.000
  13905216.670 9  11103462.41946  23452736.932    23452737.2984   23452744.2524
        -0.000          -0.000
 -18722443.102 9 -14573566.99549  20211075.604    20211075.2744   20211081.3954
        -0.000          -0.000
  11612049.618 9   9052150.32346  23799606.169    23799606.2954   23799615.2894
        -0.000          -0.000
  -6740667.846 9  -5031360.54649  20767360.348    20767360.2764   20767366.9984
        -0.000          -0.000
  -5754563.051 9  -4471340.91147  22287058.299    22287057.9504   22287065.6704
        -0.000          -0.000
 -21632412.429 9 -16431157.08048  21424153.546    21424153.9674   21424159.8404
        -0.000          -0.000
 -17789257.260 9 -13653011.66148  21769383.707    21769383.0504   21769390.6184
        -0.000          -0.000
 98  5  1 21  1 30.0000000  0  8  6  4  5  9 24  8 30 10             0.000000074
 -10439531.844 9  -7972223.89046  23544169.691    23544169.8404   23544177.8714
        -0.000          -0.000
  14000471.686 9  11177687.04746  23470863.338    23470863.6884   23470870.6444
        -0.000          -0.000
 -18724399.784 9 -14575091.69149  20210703.281    20210702.9514   20210709.0464
        -0.000          -0.000
  11700920.091 9   9121399.86746  23816517.908    23816517.9274   23816526.9594
        -0.000          -0.000
  -6688518.617 9  -4990724.79249  20777283.971    20777283.9264   20777290.7124
        -0.000          -0.000
  -5692854.101 9  -4423256.06047  22298801.167    22298800.8014   22298808.5614
        -0.000          -0.000
 -21701631.341 9 -16485093.87248  21410981.622    21410982.0664   21410987.9534
        -0.000          -0.000
 -17854852.462 9 -13704124.74248  21756901.290    21756900.6514   21756908.2124
        -0.000          -0.000
 98  5  1 21  2  0.0000000  0  8  6  4  5  9 24  8 30 10             0.000000089
 -10506930.245 9  -8024742.07146  23531344.225    23531344.3294   23531352.3424
        -0.000          -0.000
  14095777.857 9  11251951.56146  23488999.478    23488999.8544   23489006.7434
        -0.000          -0.000
 -18725860.902 9 -14576230.23749  20210425.221    20210424.8844   20210431.0084
        -0.000          -0.000
  11789813.301 9   9190667.12346  23833433.856    23833433.9174   23833442.8334
        -0.000          -0.000
  -6636088.367 9  -4949870.06449  20787261.082    20787261.0594   20787267.8114
        -0.000          -0.000
  -5630748.499 9  -4374862.14747  22310619.384    22310619.1194   22310626.9604
        -0.000          -0.000
 -21770490.346 9 -16538750.21948  21397878.269    21397878.6874   21397884.5834
        -0.000          -0.000
 -17920048.881 9 -13754927.08048  21744494.688    21744494.0904   21744501.7324
        -0.000          -0.000
 98  5  1 21  2 30.0000000  0  8  6  4  5  9 24  8 30 10             0.000000097
 -10574326.279 9  -8077258.40746  23518518.962    23518519.2284   23518527.2714
        -0.000          -0.000
  14191127.364 9  11326249.81946  23507143.815    23507144.2834   23507151.1664
        -0.000          -0.000
 -18726821.296 9 -14576978.60249  20210242.483    20210242.1404   20210248.2354
        -0.000          -0.000
  11878744.987 9   9259964.39246  23850357.109    23850357.2114   23850366.0964
        -0.000          -0.000
  -6583371.116 9  -4908791.70149  20797292.825    20797292.8244   20797299.5904
        -0.000          -0.000
  -5568242.318 9  -4326156.08947  22322514.092    22322513.7454   22322521.5284
        -0.000          -0.000
 -21838984.025 9 -16592121.89648  21384844.290    21384844.7704   21384850.6134
        -0.000          -0.000
 -17984842.929 9 -13805415.89548  21732164.778    21732164.1464   21732171.8024
        -0.000          -0.000
